<?xml version="1.0" encoding="UTF-8" standalone="no" ?>
<gpx xmlns="http://www.topografix.com/GPX/1/1" xmlns:xsi="http://www.w3.org/2001/XMLSchema-instance" xsi:schemaLocation="http://www.topografix.com/GPX/1/1 http://www.topografix.com/GPX/1/1/gpx.xsd" version="1.1" creator="VisuGPX - https://www.visugpx.com">
  <metadata>
    <name>Randonnée du 02/01/2022 à 08:44</name>
  </metadata>
  <trk>
    <name><![CDATA[Randonnée du 02/01/2022 à 08:44]]></name>
    <trkseg>
      <trkpt lat="48.76492" lon="2.16239">
        <ele>125</ele>
        <time>2022-01-02T08:44:35+01:00</time>
      </trkpt>
      <trkpt lat="48.76501" lon="2.16245">
        <ele>125</ele>
        <time>2022-01-02T08:44:40+01:00</time>
      </trkpt>
      <trkpt lat="48.76491" lon="2.16243">
        <ele>88</ele>
        <time>2022-01-02T08:46:07+01:00</time>
      </trkpt>
      <trkpt lat="48.76484" lon="2.16235">
        <ele>84</ele>
        <time>2022-01-02T08:46:30+01:00</time>
      </trkpt>
      <trkpt lat="48.76494" lon="2.16234">
        <ele>82</ele>
        <time>2022-01-02T08:47:17+01:00</time>
      </trkpt>
      <trkpt lat="48.76493" lon="2.1622">
        <ele>81</ele>
        <time>2022-01-02T08:49:20+01:00</time>
      </trkpt>
      <trkpt lat="48.76498" lon="2.16207">
        <ele>81</ele>
        <time>2022-01-02T08:49:29+01:00</time>
      </trkpt>
      <trkpt lat="48.76501" lon="2.16194">
        <ele>83</ele>
        <time>2022-01-02T08:49:43+01:00</time>
      </trkpt>
      <trkpt lat="48.76512" lon="2.16205">
        <ele>83</ele>
        <time>2022-01-02T08:50:20+01:00</time>
      </trkpt>
      <trkpt lat="48.76508" lon="2.16217">
        <ele>84</ele>
        <time>2022-01-02T08:50:37+01:00</time>
      </trkpt>
      <trkpt lat="48.76506" lon="2.16231">
        <ele>83</ele>
        <time>2022-01-02T08:50:55+01:00</time>
      </trkpt>
      <trkpt lat="48.76507" lon="2.16249">
        <ele>83</ele>
        <time>2022-01-02T08:51:20+01:00</time>
      </trkpt>
      <trkpt lat="48.76498" lon="2.16243">
        <ele>82</ele>
        <time>2022-01-02T08:52:08+01:00</time>
      </trkpt>
      <trkpt lat="48.76507" lon="2.16238">
        <ele>80</ele>
        <time>2022-01-02T08:53:02+01:00</time>
      </trkpt>
      <trkpt lat="48.76501" lon="2.16248">
        <ele>82</ele>
        <time>2022-01-02T08:54:03+01:00</time>
      </trkpt>
      <trkpt lat="48.76509" lon="2.16244">
        <ele>82</ele>
        <time>2022-01-02T08:54:23+01:00</time>
      </trkpt>
      <trkpt lat="48.765" lon="2.16243">
        <ele>84</ele>
        <time>2022-01-02T08:54:36+01:00</time>
      </trkpt>
      <trkpt lat="48.7651" lon="2.16248">
        <ele>86</ele>
        <time>2022-01-02T08:55:06+01:00</time>
      </trkpt>
      <trkpt lat="48.76501" lon="2.16248">
        <ele>86</ele>
        <time>2022-01-02T08:56:01+01:00</time>
      </trkpt>
      <trkpt lat="48.76497" lon="2.16235">
        <ele>83</ele>
        <time>2022-01-02T08:56:53+01:00</time>
      </trkpt>
      <trkpt lat="48.76499" lon="2.16222">
        <ele>83</ele>
        <time>2022-01-02T08:57:34+01:00</time>
      </trkpt>
      <trkpt lat="48.76487" lon="2.16231">
        <ele>81</ele>
        <time>2022-01-02T08:57:55+01:00</time>
      </trkpt>
      <trkpt lat="48.7649" lon="2.16217">
        <ele>80</ele>
        <time>2022-01-02T08:59:10+01:00</time>
      </trkpt>
      <trkpt lat="48.76486" lon="2.16231">
        <ele>84</ele>
        <time>2022-01-02T09:00:34+01:00</time>
      </trkpt>
      <trkpt lat="48.76496" lon="2.16229">
        <ele>83</ele>
        <time>2022-01-02T09:00:49+01:00</time>
      </trkpt>
      <trkpt lat="48.76503" lon="2.16237">
        <ele>83</ele>
        <time>2022-01-02T09:01:09+01:00</time>
      </trkpt>
      <trkpt lat="48.76494" lon="2.16238">
        <ele>77</ele>
        <time>2022-01-02T09:01:49+01:00</time>
      </trkpt>
      <trkpt lat="48.76488" lon="2.16227">
        <ele>78</ele>
        <time>2022-01-02T09:02:04+01:00</time>
      </trkpt>
      <trkpt lat="48.76498" lon="2.16228">
        <ele>85</ele>
        <time>2022-01-02T09:04:21+01:00</time>
      </trkpt>
      <trkpt lat="48.76504" lon="2.16238">
        <ele>83</ele>
        <time>2022-01-02T09:04:28+01:00</time>
      </trkpt>
      <trkpt lat="48.76495" lon="2.16237">
        <ele>81</ele>
        <time>2022-01-02T09:05:13+01:00</time>
      </trkpt>
      <trkpt lat="48.76491" lon="2.16223">
        <ele>82</ele>
        <time>2022-01-02T09:06:35+01:00</time>
      </trkpt>
      <trkpt lat="48.76498" lon="2.16231">
        <ele>79</ele>
        <time>2022-01-02T09:07:17+01:00</time>
      </trkpt>
      <trkpt lat="48.76498" lon="2.16217">
        <ele>81</ele>
        <time>2022-01-02T09:08:25+01:00</time>
      </trkpt>
      <trkpt lat="48.76499" lon="2.16232">
        <ele>79</ele>
        <time>2022-01-02T09:09:07+01:00</time>
      </trkpt>
      <trkpt lat="48.76492" lon="2.16223">
        <ele>80</ele>
        <time>2022-01-02T09:09:47+01:00</time>
      </trkpt>
      <trkpt lat="48.76495" lon="2.1621">
        <ele>82</ele>
        <time>2022-01-02T09:10:09+01:00</time>
      </trkpt>
      <trkpt lat="48.76494" lon="2.16225">
        <ele>84</ele>
        <time>2022-01-02T09:18:23+01:00</time>
      </trkpt>
      <trkpt lat="48.76502" lon="2.16234">
        <ele>84</ele>
        <time>2022-01-02T09:18:33+01:00</time>
      </trkpt>
      <trkpt lat="48.76493" lon="2.1623">
        <ele>83</ele>
        <time>2022-01-02T09:19:38+01:00</time>
      </trkpt>
      <trkpt lat="48.76494" lon="2.16216">
        <ele>83</ele>
        <time>2022-01-02T09:22:45+01:00</time>
      </trkpt>
      <trkpt lat="48.76495" lon="2.16201">
        <ele>84</ele>
        <time>2022-01-02T09:22:56+01:00</time>
      </trkpt>
      <trkpt lat="48.76497" lon="2.16186">
        <ele>85</ele>
        <time>2022-01-02T09:23:05+01:00</time>
      </trkpt>
      <trkpt lat="48.76493" lon="2.16199">
        <ele>86</ele>
        <time>2022-01-02T09:24:24+01:00</time>
      </trkpt>
      <trkpt lat="48.76499" lon="2.16211">
        <ele>83</ele>
        <time>2022-01-02T09:24:47+01:00</time>
      </trkpt>
      <trkpt lat="48.76491" lon="2.16204">
        <ele>88</ele>
        <time>2022-01-02T09:32:55+01:00</time>
      </trkpt>
      <trkpt lat="48.76493" lon="2.1619">
        <ele>87</ele>
        <time>2022-01-02T09:33:03+01:00</time>
      </trkpt>
      <trkpt lat="48.76494" lon="2.16176">
        <ele>85</ele>
        <time>2022-01-02T09:33:12+01:00</time>
      </trkpt>
      <trkpt lat="48.76493" lon="2.16162">
        <ele>83</ele>
        <time>2022-01-02T09:33:23+01:00</time>
      </trkpt>
      <trkpt lat="48.76497" lon="2.16149">
        <ele>83</ele>
        <time>2022-01-02T09:33:33+01:00</time>
      </trkpt>
      <trkpt lat="48.76502" lon="2.16135">
        <ele>82</ele>
        <time>2022-01-02T09:33:42+01:00</time>
      </trkpt>
      <trkpt lat="48.76504" lon="2.1612">
        <ele>82</ele>
        <time>2022-01-02T09:33:53+01:00</time>
      </trkpt>
      <trkpt lat="48.76502" lon="2.16107">
        <ele>83</ele>
        <time>2022-01-02T09:34:02+01:00</time>
      </trkpt>
      <trkpt lat="48.76503" lon="2.16093">
        <ele>82</ele>
        <time>2022-01-02T09:34:13+01:00</time>
      </trkpt>
      <trkpt lat="48.76507" lon="2.16078">
        <ele>82</ele>
        <time>2022-01-02T09:34:22+01:00</time>
      </trkpt>
      <trkpt lat="48.76513" lon="2.16067">
        <ele>82</ele>
        <time>2022-01-02T09:34:33+01:00</time>
      </trkpt>
      <trkpt lat="48.7652" lon="2.16058">
        <ele>81</ele>
        <time>2022-01-02T09:34:41+01:00</time>
      </trkpt>
      <trkpt lat="48.7653" lon="2.16051">
        <ele>77</ele>
        <time>2022-01-02T09:34:53+01:00</time>
      </trkpt>
      <trkpt lat="48.76531" lon="2.16036">
        <ele>77</ele>
        <time>2022-01-02T09:35:05+01:00</time>
      </trkpt>
      <trkpt lat="48.76525" lon="2.16023">
        <ele>77</ele>
        <time>2022-01-02T09:35:15+01:00</time>
      </trkpt>
      <trkpt lat="48.7652" lon="2.16012">
        <ele>78</ele>
        <time>2022-01-02T09:35:22+01:00</time>
      </trkpt>
      <trkpt lat="48.76515" lon="2.15998">
        <ele>79</ele>
        <time>2022-01-02T09:35:29+01:00</time>
      </trkpt>
      <trkpt lat="48.76516" lon="2.15985">
        <ele>80</ele>
        <time>2022-01-02T09:35:36+01:00</time>
      </trkpt>
      <trkpt lat="48.76523" lon="2.15973">
        <ele>80</ele>
        <time>2022-01-02T09:35:42+01:00</time>
      </trkpt>
      <trkpt lat="48.7653" lon="2.15961">
        <ele>79</ele>
        <time>2022-01-02T09:35:49+01:00</time>
      </trkpt>
      <trkpt lat="48.76535" lon="2.15951">
        <ele>79</ele>
        <time>2022-01-02T09:35:56+01:00</time>
      </trkpt>
      <trkpt lat="48.76543" lon="2.1594">
        <ele>80</ele>
        <time>2022-01-02T09:36:03+01:00</time>
      </trkpt>
      <trkpt lat="48.76552" lon="2.15936">
        <ele>78</ele>
        <time>2022-01-02T09:36:14+01:00</time>
      </trkpt>
      <trkpt lat="48.76559" lon="2.15924">
        <ele>78</ele>
        <time>2022-01-02T09:36:21+01:00</time>
      </trkpt>
      <trkpt lat="48.76565" lon="2.15913">
        <ele>79</ele>
        <time>2022-01-02T09:36:29+01:00</time>
      </trkpt>
      <trkpt lat="48.76569" lon="2.159">
        <ele>79</ele>
        <time>2022-01-02T09:36:36+01:00</time>
      </trkpt>
      <trkpt lat="48.76576" lon="2.15891">
        <ele>80</ele>
        <time>2022-01-02T09:36:43+01:00</time>
      </trkpt>
      <trkpt lat="48.76583" lon="2.15881">
        <ele>82</ele>
        <time>2022-01-02T09:36:51+01:00</time>
      </trkpt>
      <trkpt lat="48.76578" lon="2.15894">
        <ele>84</ele>
        <time>2022-01-02T09:37:14+01:00</time>
      </trkpt>
      <trkpt lat="48.76581" lon="2.15909">
        <ele>82</ele>
        <time>2022-01-02T09:37:23+01:00</time>
      </trkpt>
      <trkpt lat="48.76586" lon="2.15921">
        <ele>80</ele>
        <time>2022-01-02T09:37:31+01:00</time>
      </trkpt>
      <trkpt lat="48.76595" lon="2.15926">
        <ele>78</ele>
        <time>2022-01-02T09:37:42+01:00</time>
      </trkpt>
      <trkpt lat="48.76604" lon="2.15921">
        <ele>78</ele>
        <time>2022-01-02T09:37:50+01:00</time>
      </trkpt>
      <trkpt lat="48.76613" lon="2.15915">
        <ele>78</ele>
        <time>2022-01-02T09:37:58+01:00</time>
      </trkpt>
      <trkpt lat="48.76621" lon="2.15906">
        <ele>77</ele>
        <time>2022-01-02T09:38:05+01:00</time>
      </trkpt>
      <trkpt lat="48.7663" lon="2.159">
        <ele>77</ele>
        <time>2022-01-02T09:38:12+01:00</time>
      </trkpt>
      <trkpt lat="48.76638" lon="2.1589">
        <ele>76</ele>
        <time>2022-01-02T09:38:19+01:00</time>
      </trkpt>
      <trkpt lat="48.76646" lon="2.15881">
        <ele>77</ele>
        <time>2022-01-02T09:38:26+01:00</time>
      </trkpt>
      <trkpt lat="48.76653" lon="2.15871">
        <ele>77</ele>
        <time>2022-01-02T09:38:33+01:00</time>
      </trkpt>
      <trkpt lat="48.76658" lon="2.15859">
        <ele>77</ele>
        <time>2022-01-02T09:38:41+01:00</time>
      </trkpt>
      <trkpt lat="48.76663" lon="2.15846">
        <ele>77</ele>
        <time>2022-01-02T09:38:49+01:00</time>
      </trkpt>
      <trkpt lat="48.76669" lon="2.15835">
        <ele>77</ele>
        <time>2022-01-02T09:38:55+01:00</time>
      </trkpt>
      <trkpt lat="48.76674" lon="2.15823">
        <ele>77</ele>
        <time>2022-01-02T09:39:02+01:00</time>
      </trkpt>
      <trkpt lat="48.7668" lon="2.1581">
        <ele>76</ele>
        <time>2022-01-02T09:39:11+01:00</time>
      </trkpt>
      <trkpt lat="48.76684" lon="2.15798">
        <ele>76</ele>
        <time>2022-01-02T09:39:19+01:00</time>
      </trkpt>
      <trkpt lat="48.76689" lon="2.15785">
        <ele>76</ele>
        <time>2022-01-02T09:39:26+01:00</time>
      </trkpt>
      <trkpt lat="48.76693" lon="2.15772">
        <ele>77</ele>
        <time>2022-01-02T09:39:34+01:00</time>
      </trkpt>
      <trkpt lat="48.76696" lon="2.15759">
        <ele>77</ele>
        <time>2022-01-02T09:39:41+01:00</time>
      </trkpt>
      <trkpt lat="48.76698" lon="2.15744">
        <ele>77</ele>
        <time>2022-01-02T09:39:48+01:00</time>
      </trkpt>
      <trkpt lat="48.76698" lon="2.1573">
        <ele>77</ele>
        <time>2022-01-02T09:39:54+01:00</time>
      </trkpt>
      <trkpt lat="48.767" lon="2.15716">
        <ele>76</ele>
        <time>2022-01-02T09:40:01+01:00</time>
      </trkpt>
      <trkpt lat="48.76702" lon="2.15702">
        <ele>76</ele>
        <time>2022-01-02T09:40:08+01:00</time>
      </trkpt>
      <trkpt lat="48.76702" lon="2.15687">
        <ele>77</ele>
        <time>2022-01-02T09:40:16+01:00</time>
      </trkpt>
      <trkpt lat="48.76701" lon="2.15673">
        <ele>79</ele>
        <time>2022-01-02T09:40:23+01:00</time>
      </trkpt>
      <trkpt lat="48.767" lon="2.15659">
        <ele>81</ele>
        <time>2022-01-02T09:40:30+01:00</time>
      </trkpt>
      <trkpt lat="48.76702" lon="2.15644">
        <ele>81</ele>
        <time>2022-01-02T09:40:38+01:00</time>
      </trkpt>
      <trkpt lat="48.76706" lon="2.15632">
        <ele>81</ele>
        <time>2022-01-02T09:40:46+01:00</time>
      </trkpt>
      <trkpt lat="48.7671" lon="2.15619">
        <ele>81</ele>
        <time>2022-01-02T09:40:54+01:00</time>
      </trkpt>
      <trkpt lat="48.76715" lon="2.15607">
        <ele>81</ele>
        <time>2022-01-02T09:41:00+01:00</time>
      </trkpt>
      <trkpt lat="48.76717" lon="2.15592">
        <ele>83</ele>
        <time>2022-01-02T09:41:07+01:00</time>
      </trkpt>
      <trkpt lat="48.76715" lon="2.15578">
        <ele>85</ele>
        <time>2022-01-02T09:41:14+01:00</time>
      </trkpt>
      <trkpt lat="48.76713" lon="2.15564">
        <ele>87</ele>
        <time>2022-01-02T09:41:22+01:00</time>
      </trkpt>
      <trkpt lat="48.76717" lon="2.1555">
        <ele>87</ele>
        <time>2022-01-02T09:41:30+01:00</time>
      </trkpt>
      <trkpt lat="48.76724" lon="2.15541">
        <ele>86</ele>
        <time>2022-01-02T09:41:37+01:00</time>
      </trkpt>
      <trkpt lat="48.76731" lon="2.1553">
        <ele>86</ele>
        <time>2022-01-02T09:41:44+01:00</time>
      </trkpt>
      <trkpt lat="48.76739" lon="2.15521">
        <ele>86</ele>
        <time>2022-01-02T09:41:51+01:00</time>
      </trkpt>
      <trkpt lat="48.76746" lon="2.15511">
        <ele>87</ele>
        <time>2022-01-02T09:41:58+01:00</time>
      </trkpt>
      <trkpt lat="48.76753" lon="2.155">
        <ele>88</ele>
        <time>2022-01-02T09:42:06+01:00</time>
      </trkpt>
      <trkpt lat="48.7676" lon="2.1549">
        <ele>88</ele>
        <time>2022-01-02T09:42:14+01:00</time>
      </trkpt>
      <trkpt lat="48.76765" lon="2.15478">
        <ele>86</ele>
        <time>2022-01-02T09:42:21+01:00</time>
      </trkpt>
      <trkpt lat="48.76773" lon="2.1547">
        <ele>85</ele>
        <time>2022-01-02T09:42:28+01:00</time>
      </trkpt>
      <trkpt lat="48.7678" lon="2.15459">
        <ele>85</ele>
        <time>2022-01-02T09:42:35+01:00</time>
      </trkpt>
      <trkpt lat="48.76786" lon="2.15449">
        <ele>86</ele>
        <time>2022-01-02T09:42:43+01:00</time>
      </trkpt>
      <trkpt lat="48.76793" lon="2.15437">
        <ele>87</ele>
        <time>2022-01-02T09:42:50+01:00</time>
      </trkpt>
      <trkpt lat="48.76799" lon="2.15426">
        <ele>87</ele>
        <time>2022-01-02T09:42:57+01:00</time>
      </trkpt>
      <trkpt lat="48.76803" lon="2.15412">
        <ele>87</ele>
        <time>2022-01-02T09:43:03+01:00</time>
      </trkpt>
      <trkpt lat="48.76807" lon="2.15398">
        <ele>88</ele>
        <time>2022-01-02T09:43:10+01:00</time>
      </trkpt>
      <trkpt lat="48.76811" lon="2.15384">
        <ele>89</ele>
        <time>2022-01-02T09:43:16+01:00</time>
      </trkpt>
      <trkpt lat="48.76813" lon="2.15371">
        <ele>90</ele>
        <time>2022-01-02T09:43:22+01:00</time>
      </trkpt>
      <trkpt lat="48.76817" lon="2.15357">
        <ele>90</ele>
        <time>2022-01-02T09:43:28+01:00</time>
      </trkpt>
      <trkpt lat="48.76818" lon="2.15343">
        <ele>90</ele>
        <time>2022-01-02T09:43:36+01:00</time>
      </trkpt>
      <trkpt lat="48.7682" lon="2.15328">
        <ele>91</ele>
        <time>2022-01-02T09:43:44+01:00</time>
      </trkpt>
      <trkpt lat="48.76822" lon="2.15314">
        <ele>91</ele>
        <time>2022-01-02T09:43:52+01:00</time>
      </trkpt>
      <trkpt lat="48.76824" lon="2.15299">
        <ele>94</ele>
        <time>2022-01-02T09:44:02+01:00</time>
      </trkpt>
      <trkpt lat="48.76824" lon="2.15285">
        <ele>94</ele>
        <time>2022-01-02T09:44:10+01:00</time>
      </trkpt>
      <trkpt lat="48.76824" lon="2.1527">
        <ele>95</ele>
        <time>2022-01-02T09:44:18+01:00</time>
      </trkpt>
      <trkpt lat="48.76823" lon="2.15256">
        <ele>94</ele>
        <time>2022-01-02T09:44:25+01:00</time>
      </trkpt>
      <trkpt lat="48.7682" lon="2.15242">
        <ele>91</ele>
        <time>2022-01-02T09:44:34+01:00</time>
      </trkpt>
      <trkpt lat="48.76814" lon="2.15229">
        <ele>90</ele>
        <time>2022-01-02T09:44:42+01:00</time>
      </trkpt>
      <trkpt lat="48.76807" lon="2.15217">
        <ele>91</ele>
        <time>2022-01-02T09:44:49+01:00</time>
      </trkpt>
      <trkpt lat="48.76798" lon="2.1521">
        <ele>92</ele>
        <time>2022-01-02T09:44:57+01:00</time>
      </trkpt>
      <trkpt lat="48.76789" lon="2.15205">
        <ele>91</ele>
        <time>2022-01-02T09:45:05+01:00</time>
      </trkpt>
      <trkpt lat="48.7678" lon="2.15202">
        <ele>91</ele>
        <time>2022-01-02T09:45:13+01:00</time>
      </trkpt>
      <trkpt lat="48.76771" lon="2.15201">
        <ele>92</ele>
        <time>2022-01-02T09:45:21+01:00</time>
      </trkpt>
      <trkpt lat="48.76761" lon="2.152">
        <ele>93</ele>
        <time>2022-01-02T09:45:28+01:00</time>
      </trkpt>
      <trkpt lat="48.76755" lon="2.1519">
        <ele>95</ele>
        <time>2022-01-02T09:45:35+01:00</time>
      </trkpt>
      <trkpt lat="48.76749" lon="2.15178">
        <ele>95</ele>
        <time>2022-01-02T09:45:45+01:00</time>
      </trkpt>
      <trkpt lat="48.76748" lon="2.15163">
        <ele>94</ele>
        <time>2022-01-02T09:45:53+01:00</time>
      </trkpt>
      <trkpt lat="48.76751" lon="2.15149">
        <ele>93</ele>
        <time>2022-01-02T09:46:02+01:00</time>
      </trkpt>
      <trkpt lat="48.76755" lon="2.15135">
        <ele>92</ele>
        <time>2022-01-02T09:46:11+01:00</time>
      </trkpt>
      <trkpt lat="48.76756" lon="2.15121">
        <ele>91</ele>
        <time>2022-01-02T09:46:18+01:00</time>
      </trkpt>
      <trkpt lat="48.76754" lon="2.15106">
        <ele>91</ele>
        <time>2022-01-02T09:46:25+01:00</time>
      </trkpt>
      <trkpt lat="48.76755" lon="2.15091">
        <ele>88</ele>
        <time>2022-01-02T09:46:35+01:00</time>
      </trkpt>
      <trkpt lat="48.76759" lon="2.15078">
        <ele>87</ele>
        <time>2022-01-02T09:46:41+01:00</time>
      </trkpt>
      <trkpt lat="48.76753" lon="2.15067">
        <ele>86</ele>
        <time>2022-01-02T09:46:48+01:00</time>
      </trkpt>
      <trkpt lat="48.76744" lon="2.15063">
        <ele>85</ele>
        <time>2022-01-02T09:46:55+01:00</time>
      </trkpt>
      <trkpt lat="48.76735" lon="2.15059">
        <ele>85</ele>
        <time>2022-01-02T09:47:03+01:00</time>
      </trkpt>
      <trkpt lat="48.76724" lon="2.15053">
        <ele>84</ele>
        <time>2022-01-02T09:47:10+01:00</time>
      </trkpt>
      <trkpt lat="48.76715" lon="2.15047">
        <ele>87</ele>
        <time>2022-01-02T09:47:20+01:00</time>
      </trkpt>
      <trkpt lat="48.76706" lon="2.1504">
        <ele>88</ele>
        <time>2022-01-02T09:47:29+01:00</time>
      </trkpt>
      <trkpt lat="48.76697" lon="2.15035">
        <ele>90</ele>
        <time>2022-01-02T09:47:38+01:00</time>
      </trkpt>
      <trkpt lat="48.76688" lon="2.15034">
        <ele>92</ele>
        <time>2022-01-02T09:47:45+01:00</time>
      </trkpt>
      <trkpt lat="48.7668" lon="2.15028">
        <ele>92</ele>
        <time>2022-01-02T09:47:56+01:00</time>
      </trkpt>
      <trkpt lat="48.76671" lon="2.15021">
        <ele>92</ele>
        <time>2022-01-02T09:48:08+01:00</time>
      </trkpt>
      <trkpt lat="48.76663" lon="2.15012">
        <ele>88</ele>
        <time>2022-01-02T09:48:20+01:00</time>
      </trkpt>
      <trkpt lat="48.76654" lon="2.15008">
        <ele>86</ele>
        <time>2022-01-02T09:48:30+01:00</time>
      </trkpt>
      <trkpt lat="48.76646" lon="2.15">
        <ele>85</ele>
        <time>2022-01-02T09:48:38+01:00</time>
      </trkpt>
      <trkpt lat="48.76637" lon="2.14997">
        <ele>84</ele>
        <time>2022-01-02T09:48:46+01:00</time>
      </trkpt>
      <trkpt lat="48.76628" lon="2.14993">
        <ele>85</ele>
        <time>2022-01-02T09:48:54+01:00</time>
      </trkpt>
      <trkpt lat="48.76619" lon="2.14987">
        <ele>87</ele>
        <time>2022-01-02T09:49:02+01:00</time>
      </trkpt>
      <trkpt lat="48.76609" lon="2.14983">
        <ele>87</ele>
        <time>2022-01-02T09:49:12+01:00</time>
      </trkpt>
      <trkpt lat="48.76604" lon="2.1497">
        <ele>93</ele>
        <time>2022-01-02T09:49:28+01:00</time>
      </trkpt>
      <trkpt lat="48.76608" lon="2.14956">
        <ele>94</ele>
        <time>2022-01-02T09:49:36+01:00</time>
      </trkpt>
      <trkpt lat="48.76612" lon="2.14942">
        <ele>96</ele>
        <time>2022-01-02T09:49:45+01:00</time>
      </trkpt>
      <trkpt lat="48.76616" lon="2.14929">
        <ele>98</ele>
        <time>2022-01-02T09:49:54+01:00</time>
      </trkpt>
      <trkpt lat="48.76623" lon="2.14919">
        <ele>97</ele>
        <time>2022-01-02T09:50:02+01:00</time>
      </trkpt>
      <trkpt lat="48.7663" lon="2.14911">
        <ele>95</ele>
        <time>2022-01-02T09:50:09+01:00</time>
      </trkpt>
      <trkpt lat="48.76637" lon="2.14902">
        <ele>92</ele>
        <time>2022-01-02T09:50:16+01:00</time>
      </trkpt>
      <trkpt lat="48.76646" lon="2.14895">
        <ele>90</ele>
        <time>2022-01-02T09:50:22+01:00</time>
      </trkpt>
      <trkpt lat="48.76655" lon="2.1489">
        <ele>88</ele>
        <time>2022-01-02T09:50:29+01:00</time>
      </trkpt>
      <trkpt lat="48.76664" lon="2.14882">
        <ele>87</ele>
        <time>2022-01-02T09:50:36+01:00</time>
      </trkpt>
      <trkpt lat="48.76672" lon="2.14872">
        <ele>87</ele>
        <time>2022-01-02T09:50:44+01:00</time>
      </trkpt>
      <trkpt lat="48.76679" lon="2.14863">
        <ele>87</ele>
        <time>2022-01-02T09:50:50+01:00</time>
      </trkpt>
      <trkpt lat="48.76686" lon="2.14853">
        <ele>88</ele>
        <time>2022-01-02T09:50:56+01:00</time>
      </trkpt>
      <trkpt lat="48.76693" lon="2.14843">
        <ele>89</ele>
        <time>2022-01-02T09:51:04+01:00</time>
      </trkpt>
      <trkpt lat="48.767" lon="2.14832">
        <ele>90</ele>
        <time>2022-01-02T09:51:11+01:00</time>
      </trkpt>
      <trkpt lat="48.76706" lon="2.14822">
        <ele>90</ele>
        <time>2022-01-02T09:51:18+01:00</time>
      </trkpt>
      <trkpt lat="48.76713" lon="2.14811">
        <ele>92</ele>
        <time>2022-01-02T09:51:26+01:00</time>
      </trkpt>
      <trkpt lat="48.76721" lon="2.14802">
        <ele>90</ele>
        <time>2022-01-02T09:51:33+01:00</time>
      </trkpt>
      <trkpt lat="48.76728" lon="2.14792">
        <ele>91</ele>
        <time>2022-01-02T09:51:40+01:00</time>
      </trkpt>
      <trkpt lat="48.76734" lon="2.1478">
        <ele>92</ele>
        <time>2022-01-02T09:51:47+01:00</time>
      </trkpt>
      <trkpt lat="48.76742" lon="2.14772">
        <ele>93</ele>
        <time>2022-01-02T09:51:53+01:00</time>
      </trkpt>
      <trkpt lat="48.76748" lon="2.14761">
        <ele>91</ele>
        <time>2022-01-02T09:52:02+01:00</time>
      </trkpt>
      <trkpt lat="48.76756" lon="2.1475">
        <ele>89</ele>
        <time>2022-01-02T09:52:09+01:00</time>
      </trkpt>
      <trkpt lat="48.76761" lon="2.14738">
        <ele>86</ele>
        <time>2022-01-02T09:52:18+01:00</time>
      </trkpt>
      <trkpt lat="48.76767" lon="2.14727">
        <ele>82</ele>
        <time>2022-01-02T09:52:30+01:00</time>
      </trkpt>
      <trkpt lat="48.76772" lon="2.14713">
        <ele>83</ele>
        <time>2022-01-02T09:52:35+01:00</time>
      </trkpt>
      <trkpt lat="48.76775" lon="2.147">
        <ele>84</ele>
        <time>2022-01-02T09:52:40+01:00</time>
      </trkpt>
      <trkpt lat="48.76777" lon="2.14685">
        <ele>87</ele>
        <time>2022-01-02T09:52:46+01:00</time>
      </trkpt>
      <trkpt lat="48.76779" lon="2.14671">
        <ele>90</ele>
        <time>2022-01-02T09:52:54+01:00</time>
      </trkpt>
      <trkpt lat="48.76784" lon="2.14659">
        <ele>90</ele>
        <time>2022-01-02T09:53:01+01:00</time>
      </trkpt>
      <trkpt lat="48.7679" lon="2.14646">
        <ele>91</ele>
        <time>2022-01-02T09:53:09+01:00</time>
      </trkpt>
      <trkpt lat="48.76793" lon="2.14632">
        <ele>89</ele>
        <time>2022-01-02T09:53:17+01:00</time>
      </trkpt>
      <trkpt lat="48.76794" lon="2.14618">
        <ele>90</ele>
        <time>2022-01-02T09:53:23+01:00</time>
      </trkpt>
      <trkpt lat="48.76798" lon="2.14605">
        <ele>90</ele>
        <time>2022-01-02T09:53:31+01:00</time>
      </trkpt>
      <trkpt lat="48.76803" lon="2.14592">
        <ele>92</ele>
        <time>2022-01-02T09:53:38+01:00</time>
      </trkpt>
      <trkpt lat="48.76806" lon="2.14579">
        <ele>91</ele>
        <time>2022-01-02T09:53:44+01:00</time>
      </trkpt>
      <trkpt lat="48.7681" lon="2.14565">
        <ele>92</ele>
        <time>2022-01-02T09:53:52+01:00</time>
      </trkpt>
      <trkpt lat="48.76812" lon="2.14551">
        <ele>89</ele>
        <time>2022-01-02T09:54:03+01:00</time>
      </trkpt>
      <trkpt lat="48.76814" lon="2.14537">
        <ele>85</ele>
        <time>2022-01-02T09:54:13+01:00</time>
      </trkpt>
      <trkpt lat="48.7682" lon="2.14524">
        <ele>85</ele>
        <time>2022-01-02T09:54:18+01:00</time>
      </trkpt>
      <trkpt lat="48.76825" lon="2.1451">
        <ele>84</ele>
        <time>2022-01-02T09:54:24+01:00</time>
      </trkpt>
      <trkpt lat="48.7683" lon="2.14499">
        <ele>86</ele>
        <time>2022-01-02T09:54:30+01:00</time>
      </trkpt>
      <trkpt lat="48.76833" lon="2.14484">
        <ele>87</ele>
        <time>2022-01-02T09:54:36+01:00</time>
      </trkpt>
      <trkpt lat="48.76839" lon="2.14474">
        <ele>90</ele>
        <time>2022-01-02T09:54:43+01:00</time>
      </trkpt>
      <trkpt lat="48.76844" lon="2.14459">
        <ele>90</ele>
        <time>2022-01-02T09:54:50+01:00</time>
      </trkpt>
      <trkpt lat="48.76851" lon="2.1445">
        <ele>90</ele>
        <time>2022-01-02T09:54:56+01:00</time>
      </trkpt>
      <trkpt lat="48.76859" lon="2.14443">
        <ele>91</ele>
        <time>2022-01-02T09:55:04+01:00</time>
      </trkpt>
      <trkpt lat="48.76867" lon="2.14437">
        <ele>92</ele>
        <time>2022-01-02T09:55:11+01:00</time>
      </trkpt>
      <trkpt lat="48.76877" lon="2.14436">
        <ele>92</ele>
        <time>2022-01-02T09:55:21+01:00</time>
      </trkpt>
      <trkpt lat="48.76886" lon="2.14433">
        <ele>92</ele>
        <time>2022-01-02T09:55:28+01:00</time>
      </trkpt>
      <trkpt lat="48.76896" lon="2.14434">
        <ele>91</ele>
        <time>2022-01-02T09:55:37+01:00</time>
      </trkpt>
      <trkpt lat="48.76906" lon="2.14437">
        <ele>89</ele>
        <time>2022-01-02T09:55:43+01:00</time>
      </trkpt>
      <trkpt lat="48.76917" lon="2.14441">
        <ele>90</ele>
        <time>2022-01-02T09:55:49+01:00</time>
      </trkpt>
      <trkpt lat="48.76925" lon="2.1445">
        <ele>91</ele>
        <time>2022-01-02T09:55:55+01:00</time>
      </trkpt>
      <trkpt lat="48.76932" lon="2.1446">
        <ele>91</ele>
        <time>2022-01-02T09:56:02+01:00</time>
      </trkpt>
      <trkpt lat="48.76939" lon="2.1447">
        <ele>90</ele>
        <time>2022-01-02T09:56:12+01:00</time>
      </trkpt>
      <trkpt lat="48.76948" lon="2.14477">
        <ele>89</ele>
        <time>2022-01-02T09:56:19+01:00</time>
      </trkpt>
      <trkpt lat="48.76955" lon="2.14487">
        <ele>88</ele>
        <time>2022-01-02T09:56:26+01:00</time>
      </trkpt>
      <trkpt lat="48.76964" lon="2.14496">
        <ele>88</ele>
        <time>2022-01-02T09:56:34+01:00</time>
      </trkpt>
      <trkpt lat="48.7697" lon="2.14506">
        <ele>87</ele>
        <time>2022-01-02T09:56:43+01:00</time>
      </trkpt>
      <trkpt lat="48.76979" lon="2.14516">
        <ele>87</ele>
        <time>2022-01-02T09:56:50+01:00</time>
      </trkpt>
      <trkpt lat="48.76988" lon="2.14524">
        <ele>89</ele>
        <time>2022-01-02T09:56:57+01:00</time>
      </trkpt>
      <trkpt lat="48.76994" lon="2.14535">
        <ele>89</ele>
        <time>2022-01-02T09:57:04+01:00</time>
      </trkpt>
      <trkpt lat="48.77" lon="2.14548">
        <ele>87</ele>
        <time>2022-01-02T09:57:12+01:00</time>
      </trkpt>
      <trkpt lat="48.77009" lon="2.14556">
        <ele>87</ele>
        <time>2022-01-02T09:57:19+01:00</time>
      </trkpt>
      <trkpt lat="48.77015" lon="2.14567">
        <ele>88</ele>
        <time>2022-01-02T09:57:26+01:00</time>
      </trkpt>
      <trkpt lat="48.7702" lon="2.14579">
        <ele>88</ele>
        <time>2022-01-02T09:57:34+01:00</time>
      </trkpt>
      <trkpt lat="48.77026" lon="2.1459">
        <ele>89</ele>
        <time>2022-01-02T09:57:42+01:00</time>
      </trkpt>
      <trkpt lat="48.77034" lon="2.14599">
        <ele>88</ele>
        <time>2022-01-02T09:57:49+01:00</time>
      </trkpt>
      <trkpt lat="48.77038" lon="2.14612">
        <ele>87</ele>
        <time>2022-01-02T09:57:57+01:00</time>
      </trkpt>
      <trkpt lat="48.77044" lon="2.14624">
        <ele>86</ele>
        <time>2022-01-02T09:58:06+01:00</time>
      </trkpt>
      <trkpt lat="48.77049" lon="2.14637">
        <ele>85</ele>
        <time>2022-01-02T09:58:14+01:00</time>
      </trkpt>
      <trkpt lat="48.77058" lon="2.14642">
        <ele>82</ele>
        <time>2022-01-02T09:58:27+01:00</time>
      </trkpt>
      <trkpt lat="48.77063" lon="2.14631">
        <ele>86</ele>
        <time>2022-01-02T09:58:43+01:00</time>
      </trkpt>
      <trkpt lat="48.77065" lon="2.14616">
        <ele>88</ele>
        <time>2022-01-02T09:58:55+01:00</time>
      </trkpt>
      <trkpt lat="48.77064" lon="2.14602">
        <ele>90</ele>
        <time>2022-01-02T09:59:03+01:00</time>
      </trkpt>
      <trkpt lat="48.77069" lon="2.14589">
        <ele>89</ele>
        <time>2022-01-02T09:59:13+01:00</time>
      </trkpt>
      <trkpt lat="48.77072" lon="2.14576">
        <ele>91</ele>
        <time>2022-01-02T09:59:19+01:00</time>
      </trkpt>
      <trkpt lat="48.77076" lon="2.14563">
        <ele>101</ele>
        <time>2022-01-02T09:59:54+01:00</time>
      </trkpt>
      <trkpt lat="48.77083" lon="2.14553">
        <ele>100</ele>
        <time>2022-01-02T10:00:18+01:00</time>
      </trkpt>
      <trkpt lat="48.77077" lon="2.14564">
        <ele>110</ele>
        <time>2022-01-02T10:01:26+01:00</time>
      </trkpt>
      <trkpt lat="48.77076" lon="2.14579">
        <ele>113</ele>
        <time>2022-01-02T10:01:39+01:00</time>
      </trkpt>
      <trkpt lat="48.77083" lon="2.1459">
        <ele>112</ele>
        <time>2022-01-02T10:01:46+01:00</time>
      </trkpt>
      <trkpt lat="48.77092" lon="2.14594">
        <ele>112</ele>
        <time>2022-01-02T10:01:56+01:00</time>
      </trkpt>
      <trkpt lat="48.77101" lon="2.14598">
        <ele>116</ele>
        <time>2022-01-02T10:02:09+01:00</time>
      </trkpt>
      <trkpt lat="48.77111" lon="2.14593">
        <ele>118</ele>
        <time>2022-01-02T10:02:19+01:00</time>
      </trkpt>
      <trkpt lat="48.77117" lon="2.14583">
        <ele>121</ele>
        <time>2022-01-02T10:02:26+01:00</time>
      </trkpt>
      <trkpt lat="48.77122" lon="2.14572">
        <ele>124</ele>
        <time>2022-01-02T10:02:34+01:00</time>
      </trkpt>
      <trkpt lat="48.77123" lon="2.14558">
        <ele>128</ele>
        <time>2022-01-02T10:02:43+01:00</time>
      </trkpt>
      <trkpt lat="48.77122" lon="2.14544">
        <ele>128</ele>
        <time>2022-01-02T10:02:54+01:00</time>
      </trkpt>
      <trkpt lat="48.77126" lon="2.14531">
        <ele>128</ele>
        <time>2022-01-02T10:03:05+01:00</time>
      </trkpt>
      <trkpt lat="48.7713" lon="2.14518">
        <ele>129</ele>
        <time>2022-01-02T10:03:14+01:00</time>
      </trkpt>
      <trkpt lat="48.77131" lon="2.14504">
        <ele>133</ele>
        <time>2022-01-02T10:03:26+01:00</time>
      </trkpt>
      <trkpt lat="48.77131" lon="2.1449">
        <ele>136</ele>
        <time>2022-01-02T10:03:40+01:00</time>
      </trkpt>
      <trkpt lat="48.77136" lon="2.14479">
        <ele>137</ele>
        <time>2022-01-02T10:03:51+01:00</time>
      </trkpt>
      <trkpt lat="48.77144" lon="2.14472">
        <ele>137</ele>
        <time>2022-01-02T10:03:58+01:00</time>
      </trkpt>
      <trkpt lat="48.77151" lon="2.14462">
        <ele>138</ele>
        <time>2022-01-02T10:04:08+01:00</time>
      </trkpt>
      <trkpt lat="48.77157" lon="2.14451">
        <ele>137</ele>
        <time>2022-01-02T10:04:18+01:00</time>
      </trkpt>
      <trkpt lat="48.77161" lon="2.14439">
        <ele>137</ele>
        <time>2022-01-02T10:04:27+01:00</time>
      </trkpt>
      <trkpt lat="48.77169" lon="2.14431">
        <ele>140</ele>
        <time>2022-01-02T10:04:45+01:00</time>
      </trkpt>
      <trkpt lat="48.77177" lon="2.14422">
        <ele>143</ele>
        <time>2022-01-02T10:04:56+01:00</time>
      </trkpt>
      <trkpt lat="48.77184" lon="2.14411">
        <ele>144</ele>
        <time>2022-01-02T10:05:06+01:00</time>
      </trkpt>
      <trkpt lat="48.7719" lon="2.14401">
        <ele>144</ele>
        <time>2022-01-02T10:05:13+01:00</time>
      </trkpt>
      <trkpt lat="48.77196" lon="2.1439">
        <ele>145</ele>
        <time>2022-01-02T10:05:20+01:00</time>
      </trkpt>
      <trkpt lat="48.77203" lon="2.1438">
        <ele>145</ele>
        <time>2022-01-02T10:05:28+01:00</time>
      </trkpt>
      <trkpt lat="48.77208" lon="2.14367">
        <ele>146</ele>
        <time>2022-01-02T10:05:39+01:00</time>
      </trkpt>
      <trkpt lat="48.77216" lon="2.14359">
        <ele>147</ele>
        <time>2022-01-02T10:05:48+01:00</time>
      </trkpt>
      <trkpt lat="48.77224" lon="2.1435">
        <ele>147</ele>
        <time>2022-01-02T10:06:00+01:00</time>
      </trkpt>
      <trkpt lat="48.77233" lon="2.14344">
        <ele>147</ele>
        <time>2022-01-02T10:06:07+01:00</time>
      </trkpt>
      <trkpt lat="48.77239" lon="2.14333">
        <ele>147</ele>
        <time>2022-01-02T10:06:17+01:00</time>
      </trkpt>
      <trkpt lat="48.77248" lon="2.14326">
        <ele>145</ele>
        <time>2022-01-02T10:06:45+01:00</time>
      </trkpt>
      <trkpt lat="48.77256" lon="2.14332">
        <ele>143</ele>
        <time>2022-01-02T10:06:54+01:00</time>
      </trkpt>
      <trkpt lat="48.77266" lon="2.14332">
        <ele>142</ele>
        <time>2022-01-02T10:07:04+01:00</time>
      </trkpt>
      <trkpt lat="48.77275" lon="2.14328">
        <ele>140</ele>
        <time>2022-01-02T10:07:12+01:00</time>
      </trkpt>
      <trkpt lat="48.77284" lon="2.14322">
        <ele>141</ele>
        <time>2022-01-02T10:07:21+01:00</time>
      </trkpt>
      <trkpt lat="48.77294" lon="2.14322">
        <ele>142</ele>
        <time>2022-01-02T10:07:30+01:00</time>
      </trkpt>
      <trkpt lat="48.77304" lon="2.1432">
        <ele>142</ele>
        <time>2022-01-02T10:07:37+01:00</time>
      </trkpt>
      <trkpt lat="48.77313" lon="2.14321">
        <ele>143</ele>
        <time>2022-01-02T10:07:44+01:00</time>
      </trkpt>
      <trkpt lat="48.77322" lon="2.14323">
        <ele>143</ele>
        <time>2022-01-02T10:07:52+01:00</time>
      </trkpt>
      <trkpt lat="48.77331" lon="2.14328">
        <ele>145</ele>
        <time>2022-01-02T10:08:00+01:00</time>
      </trkpt>
      <trkpt lat="48.7734" lon="2.14333">
        <ele>145</ele>
        <time>2022-01-02T10:08:08+01:00</time>
      </trkpt>
      <trkpt lat="48.77349" lon="2.14337">
        <ele>146</ele>
        <time>2022-01-02T10:08:16+01:00</time>
      </trkpt>
      <trkpt lat="48.77357" lon="2.14347">
        <ele>149</ele>
        <time>2022-01-02T10:08:21+01:00</time>
      </trkpt>
      <trkpt lat="48.77364" lon="2.14357">
        <ele>153</ele>
        <time>2022-01-02T10:08:27+01:00</time>
      </trkpt>
      <trkpt lat="48.77372" lon="2.14366">
        <ele>157</ele>
        <time>2022-01-02T10:08:34+01:00</time>
      </trkpt>
      <trkpt lat="48.7738" lon="2.14374">
        <ele>156</ele>
        <time>2022-01-02T10:08:46+01:00</time>
      </trkpt>
      <trkpt lat="48.77387" lon="2.14383">
        <ele>157</ele>
        <time>2022-01-02T10:08:54+01:00</time>
      </trkpt>
      <trkpt lat="48.77395" lon="2.1439">
        <ele>156</ele>
        <time>2022-01-02T10:09:01+01:00</time>
      </trkpt>
      <trkpt lat="48.77403" lon="2.14397">
        <ele>155</ele>
        <time>2022-01-02T10:09:08+01:00</time>
      </trkpt>
      <trkpt lat="48.77411" lon="2.14404">
        <ele>156</ele>
        <time>2022-01-02T10:09:15+01:00</time>
      </trkpt>
      <trkpt lat="48.7742" lon="2.14412">
        <ele>156</ele>
        <time>2022-01-02T10:09:22+01:00</time>
      </trkpt>
      <trkpt lat="48.77428" lon="2.1442">
        <ele>157</ele>
        <time>2022-01-02T10:09:30+01:00</time>
      </trkpt>
      <trkpt lat="48.77435" lon="2.1443">
        <ele>155</ele>
        <time>2022-01-02T10:09:38+01:00</time>
      </trkpt>
      <trkpt lat="48.77444" lon="2.14438">
        <ele>154</ele>
        <time>2022-01-02T10:09:45+01:00</time>
      </trkpt>
      <trkpt lat="48.77451" lon="2.14446">
        <ele>154</ele>
        <time>2022-01-02T10:09:53+01:00</time>
      </trkpt>
      <trkpt lat="48.7746" lon="2.14452">
        <ele>153</ele>
        <time>2022-01-02T10:10:00+01:00</time>
      </trkpt>
      <trkpt lat="48.77467" lon="2.1446">
        <ele>152</ele>
        <time>2022-01-02T10:10:07+01:00</time>
      </trkpt>
      <trkpt lat="48.77474" lon="2.1447">
        <ele>153</ele>
        <time>2022-01-02T10:10:16+01:00</time>
      </trkpt>
      <trkpt lat="48.77483" lon="2.14468">
        <ele>150</ele>
        <time>2022-01-02T10:10:47+01:00</time>
      </trkpt>
      <trkpt lat="48.77493" lon="2.14472">
        <ele>150</ele>
        <time>2022-01-02T10:10:55+01:00</time>
      </trkpt>
      <trkpt lat="48.77502" lon="2.14473">
        <ele>152</ele>
        <time>2022-01-02T10:11:03+01:00</time>
      </trkpt>
      <trkpt lat="48.77512" lon="2.14475">
        <ele>152</ele>
        <time>2022-01-02T10:11:11+01:00</time>
      </trkpt>
      <trkpt lat="48.77521" lon="2.14476">
        <ele>150</ele>
        <time>2022-01-02T10:11:20+01:00</time>
      </trkpt>
      <trkpt lat="48.7753" lon="2.14472">
        <ele>149</ele>
        <time>2022-01-02T10:11:28+01:00</time>
      </trkpt>
      <trkpt lat="48.7754" lon="2.14472">
        <ele>146</ele>
        <time>2022-01-02T10:11:37+01:00</time>
      </trkpt>
      <trkpt lat="48.77548" lon="2.14464">
        <ele>146</ele>
        <time>2022-01-02T10:11:44+01:00</time>
      </trkpt>
      <trkpt lat="48.77552" lon="2.14452">
        <ele>145</ele>
        <time>2022-01-02T10:11:51+01:00</time>
      </trkpt>
      <trkpt lat="48.77554" lon="2.14436">
        <ele>144</ele>
        <time>2022-01-02T10:11:58+01:00</time>
      </trkpt>
      <trkpt lat="48.77555" lon="2.14422">
        <ele>144</ele>
        <time>2022-01-02T10:12:06+01:00</time>
      </trkpt>
      <trkpt lat="48.77558" lon="2.14409">
        <ele>144</ele>
        <time>2022-01-02T10:12:13+01:00</time>
      </trkpt>
      <trkpt lat="48.77557" lon="2.14395">
        <ele>143</ele>
        <time>2022-01-02T10:12:21+01:00</time>
      </trkpt>
      <trkpt lat="48.77554" lon="2.14381">
        <ele>143</ele>
        <time>2022-01-02T10:12:29+01:00</time>
      </trkpt>
      <trkpt lat="48.77551" lon="2.14367">
        <ele>143</ele>
        <time>2022-01-02T10:12:37+01:00</time>
      </trkpt>
      <trkpt lat="48.77553" lon="2.14353">
        <ele>145</ele>
        <time>2022-01-02T10:12:47+01:00</time>
      </trkpt>
      <trkpt lat="48.77551" lon="2.1434">
        <ele>147</ele>
        <time>2022-01-02T10:12:55+01:00</time>
      </trkpt>
      <trkpt lat="48.77551" lon="2.14325">
        <ele>148</ele>
        <time>2022-01-02T10:13:03+01:00</time>
      </trkpt>
      <trkpt lat="48.77551" lon="2.14311">
        <ele>148</ele>
        <time>2022-01-02T10:13:11+01:00</time>
      </trkpt>
      <trkpt lat="48.7755" lon="2.14296">
        <ele>148</ele>
        <time>2022-01-02T10:13:19+01:00</time>
      </trkpt>
      <trkpt lat="48.7755" lon="2.14282">
        <ele>147</ele>
        <time>2022-01-02T10:13:27+01:00</time>
      </trkpt>
      <trkpt lat="48.77547" lon="2.14269">
        <ele>147</ele>
        <time>2022-01-02T10:13:35+01:00</time>
      </trkpt>
      <trkpt lat="48.77543" lon="2.14255">
        <ele>148</ele>
        <time>2022-01-02T10:13:41+01:00</time>
      </trkpt>
      <trkpt lat="48.7754" lon="2.14242">
        <ele>149</ele>
        <time>2022-01-02T10:13:47+01:00</time>
      </trkpt>
      <trkpt lat="48.77538" lon="2.14227">
        <ele>150</ele>
        <time>2022-01-02T10:13:54+01:00</time>
      </trkpt>
      <trkpt lat="48.77537" lon="2.14213">
        <ele>153</ele>
        <time>2022-01-02T10:14:02+01:00</time>
      </trkpt>
      <trkpt lat="48.77532" lon="2.142">
        <ele>152</ele>
        <time>2022-01-02T10:14:10+01:00</time>
      </trkpt>
      <trkpt lat="48.77529" lon="2.14185">
        <ele>150</ele>
        <time>2022-01-02T10:14:19+01:00</time>
      </trkpt>
      <trkpt lat="48.77522" lon="2.14172">
        <ele>150</ele>
        <time>2022-01-02T10:14:27+01:00</time>
      </trkpt>
      <trkpt lat="48.77517" lon="2.1416">
        <ele>147</ele>
        <time>2022-01-02T10:14:34+01:00</time>
      </trkpt>
      <trkpt lat="48.7751" lon="2.1415">
        <ele>146</ele>
        <time>2022-01-02T10:14:41+01:00</time>
      </trkpt>
      <trkpt lat="48.77503" lon="2.14141">
        <ele>144</ele>
        <time>2022-01-02T10:14:49+01:00</time>
      </trkpt>
      <trkpt lat="48.77497" lon="2.1413">
        <ele>143</ele>
        <time>2022-01-02T10:14:56+01:00</time>
      </trkpt>
      <trkpt lat="48.7749" lon="2.14118">
        <ele>142</ele>
        <time>2022-01-02T10:15:04+01:00</time>
      </trkpt>
      <trkpt lat="48.77482" lon="2.14109">
        <ele>142</ele>
        <time>2022-01-02T10:15:12+01:00</time>
      </trkpt>
      <trkpt lat="48.77477" lon="2.14095">
        <ele>143</ele>
        <time>2022-01-02T10:15:20+01:00</time>
      </trkpt>
      <trkpt lat="48.77471" lon="2.14084">
        <ele>144</ele>
        <time>2022-01-02T10:15:26+01:00</time>
      </trkpt>
      <trkpt lat="48.77463" lon="2.14074">
        <ele>143</ele>
        <time>2022-01-02T10:15:35+01:00</time>
      </trkpt>
      <trkpt lat="48.77457" lon="2.14062">
        <ele>144</ele>
        <time>2022-01-02T10:15:44+01:00</time>
      </trkpt>
      <trkpt lat="48.7745" lon="2.14052">
        <ele>145</ele>
        <time>2022-01-02T10:15:52+01:00</time>
      </trkpt>
      <trkpt lat="48.77447" lon="2.14038">
        <ele>143</ele>
        <time>2022-01-02T10:16:01+01:00</time>
      </trkpt>
      <trkpt lat="48.77453" lon="2.14026">
        <ele>143</ele>
        <time>2022-01-02T10:16:12+01:00</time>
      </trkpt>
      <trkpt lat="48.7746" lon="2.14016">
        <ele>147</ele>
        <time>2022-01-02T10:16:22+01:00</time>
      </trkpt>
      <trkpt lat="48.77465" lon="2.14005">
        <ele>151</ele>
        <time>2022-01-02T10:16:32+01:00</time>
      </trkpt>
      <trkpt lat="48.77471" lon="2.13993">
        <ele>152</ele>
        <time>2022-01-02T10:16:40+01:00</time>
      </trkpt>
      <trkpt lat="48.77479" lon="2.13984">
        <ele>152</ele>
        <time>2022-01-02T10:16:46+01:00</time>
      </trkpt>
      <trkpt lat="48.77485" lon="2.13973">
        <ele>151</ele>
        <time>2022-01-02T10:16:54+01:00</time>
      </trkpt>
      <trkpt lat="48.77492" lon="2.13962">
        <ele>149</ele>
        <time>2022-01-02T10:17:02+01:00</time>
      </trkpt>
      <trkpt lat="48.77499" lon="2.13952">
        <ele>150</ele>
        <time>2022-01-02T10:17:09+01:00</time>
      </trkpt>
      <trkpt lat="48.77504" lon="2.1394">
        <ele>151</ele>
        <time>2022-01-02T10:17:16+01:00</time>
      </trkpt>
      <trkpt lat="48.7751" lon="2.13929">
        <ele>151</ele>
        <time>2022-01-02T10:17:22+01:00</time>
      </trkpt>
      <trkpt lat="48.77515" lon="2.13915">
        <ele>151</ele>
        <time>2022-01-02T10:17:29+01:00</time>
      </trkpt>
      <trkpt lat="48.77516" lon="2.139">
        <ele>149</ele>
        <time>2022-01-02T10:17:37+01:00</time>
      </trkpt>
      <trkpt lat="48.77517" lon="2.13885">
        <ele>149</ele>
        <time>2022-01-02T10:17:47+01:00</time>
      </trkpt>
      <trkpt lat="48.77516" lon="2.13871">
        <ele>150</ele>
        <time>2022-01-02T10:17:56+01:00</time>
      </trkpt>
      <trkpt lat="48.77515" lon="2.13855">
        <ele>150</ele>
        <time>2022-01-02T10:18:06+01:00</time>
      </trkpt>
      <trkpt lat="48.77515" lon="2.1384">
        <ele>150</ele>
        <time>2022-01-02T10:18:16+01:00</time>
      </trkpt>
      <trkpt lat="48.77514" lon="2.13826">
        <ele>150</ele>
        <time>2022-01-02T10:18:22+01:00</time>
      </trkpt>
      <trkpt lat="48.77513" lon="2.13811">
        <ele>151</ele>
        <time>2022-01-02T10:18:30+01:00</time>
      </trkpt>
      <trkpt lat="48.77513" lon="2.13796">
        <ele>153</ele>
        <time>2022-01-02T10:18:38+01:00</time>
      </trkpt>
      <trkpt lat="48.77509" lon="2.13783">
        <ele>152</ele>
        <time>2022-01-02T10:18:44+01:00</time>
      </trkpt>
      <trkpt lat="48.77503" lon="2.13772">
        <ele>150</ele>
        <time>2022-01-02T10:18:50+01:00</time>
      </trkpt>
      <trkpt lat="48.77498" lon="2.13761">
        <ele>150</ele>
        <time>2022-01-02T10:18:56+01:00</time>
      </trkpt>
      <trkpt lat="48.77498" lon="2.13746">
        <ele>149</ele>
        <time>2022-01-02T10:19:03+01:00</time>
      </trkpt>
      <trkpt lat="48.77499" lon="2.13733">
        <ele>150</ele>
        <time>2022-01-02T10:19:14+01:00</time>
      </trkpt>
      <trkpt lat="48.77504" lon="2.13721">
        <ele>150</ele>
        <time>2022-01-02T10:19:23+01:00</time>
      </trkpt>
      <trkpt lat="48.77506" lon="2.13707">
        <ele>149</ele>
        <time>2022-01-02T10:19:30+01:00</time>
      </trkpt>
      <trkpt lat="48.77511" lon="2.13695">
        <ele>150</ele>
        <time>2022-01-02T10:19:39+01:00</time>
      </trkpt>
      <trkpt lat="48.77519" lon="2.13686">
        <ele>150</ele>
        <time>2022-01-02T10:19:50+01:00</time>
      </trkpt>
      <trkpt lat="48.77525" lon="2.13675">
        <ele>152</ele>
        <time>2022-01-02T10:19:58+01:00</time>
      </trkpt>
      <trkpt lat="48.77531" lon="2.13664">
        <ele>153</ele>
        <time>2022-01-02T10:20:06+01:00</time>
      </trkpt>
      <trkpt lat="48.77538" lon="2.13653">
        <ele>151</ele>
        <time>2022-01-02T10:20:29+01:00</time>
      </trkpt>
      <trkpt lat="48.77544" lon="2.13641">
        <ele>152</ele>
        <time>2022-01-02T10:20:36+01:00</time>
      </trkpt>
      <trkpt lat="48.77547" lon="2.13627">
        <ele>153</ele>
        <time>2022-01-02T10:20:42+01:00</time>
      </trkpt>
      <trkpt lat="48.77551" lon="2.13613">
        <ele>150</ele>
        <time>2022-01-02T10:20:48+01:00</time>
      </trkpt>
      <trkpt lat="48.77556" lon="2.13601">
        <ele>148</ele>
        <time>2022-01-02T10:20:59+01:00</time>
      </trkpt>
      <trkpt lat="48.77562" lon="2.13591">
        <ele>151</ele>
        <time>2022-01-02T10:21:07+01:00</time>
      </trkpt>
      <trkpt lat="48.77566" lon="2.13578">
        <ele>153</ele>
        <time>2022-01-02T10:21:16+01:00</time>
      </trkpt>
      <trkpt lat="48.77572" lon="2.13566">
        <ele>155</ele>
        <time>2022-01-02T10:21:26+01:00</time>
      </trkpt>
      <trkpt lat="48.77576" lon="2.13554">
        <ele>156</ele>
        <time>2022-01-02T10:21:31+01:00</time>
      </trkpt>
      <trkpt lat="48.77579" lon="2.1354">
        <ele>155</ele>
        <time>2022-01-02T10:21:37+01:00</time>
      </trkpt>
      <trkpt lat="48.77579" lon="2.13526">
        <ele>154</ele>
        <time>2022-01-02T10:21:44+01:00</time>
      </trkpt>
      <trkpt lat="48.77576" lon="2.13511">
        <ele>156</ele>
        <time>2022-01-02T10:21:51+01:00</time>
      </trkpt>
      <trkpt lat="48.77573" lon="2.13497">
        <ele>155</ele>
        <time>2022-01-02T10:21:58+01:00</time>
      </trkpt>
      <trkpt lat="48.7757" lon="2.13483">
        <ele>154</ele>
        <time>2022-01-02T10:22:06+01:00</time>
      </trkpt>
      <trkpt lat="48.77567" lon="2.13469">
        <ele>153</ele>
        <time>2022-01-02T10:22:14+01:00</time>
      </trkpt>
      <trkpt lat="48.77567" lon="2.13455">
        <ele>152</ele>
        <time>2022-01-02T10:22:22+01:00</time>
      </trkpt>
      <trkpt lat="48.77567" lon="2.1344">
        <ele>152</ele>
        <time>2022-01-02T10:22:29+01:00</time>
      </trkpt>
      <trkpt lat="48.77569" lon="2.13426">
        <ele>153</ele>
        <time>2022-01-02T10:22:40+01:00</time>
      </trkpt>
      <trkpt lat="48.77575" lon="2.13416">
        <ele>153</ele>
        <time>2022-01-02T10:22:53+01:00</time>
      </trkpt>
      <trkpt lat="48.77584" lon="2.13419">
        <ele>151</ele>
        <time>2022-01-02T10:23:12+01:00</time>
      </trkpt>
      <trkpt lat="48.77591" lon="2.13429">
        <ele>151</ele>
        <time>2022-01-02T10:23:23+01:00</time>
      </trkpt>
      <trkpt lat="48.77598" lon="2.13441">
        <ele>152</ele>
        <time>2022-01-02T10:23:32+01:00</time>
      </trkpt>
      <trkpt lat="48.77605" lon="2.1345">
        <ele>155</ele>
        <time>2022-01-02T10:23:40+01:00</time>
      </trkpt>
      <trkpt lat="48.77612" lon="2.13457">
        <ele>158</ele>
        <time>2022-01-02T10:23:48+01:00</time>
      </trkpt>
      <trkpt lat="48.7762" lon="2.13467">
        <ele>160</ele>
        <time>2022-01-02T10:23:58+01:00</time>
      </trkpt>
      <trkpt lat="48.77628" lon="2.13476">
        <ele>161</ele>
        <time>2022-01-02T10:24:07+01:00</time>
      </trkpt>
      <trkpt lat="48.77636" lon="2.13483">
        <ele>161</ele>
        <time>2022-01-02T10:24:14+01:00</time>
      </trkpt>
      <trkpt lat="48.77643" lon="2.13492">
        <ele>160</ele>
        <time>2022-01-02T10:24:21+01:00</time>
      </trkpt>
      <trkpt lat="48.77651" lon="2.13501">
        <ele>160</ele>
        <time>2022-01-02T10:24:28+01:00</time>
      </trkpt>
      <trkpt lat="48.7766" lon="2.13508">
        <ele>159</ele>
        <time>2022-01-02T10:24:35+01:00</time>
      </trkpt>
      <trkpt lat="48.77667" lon="2.13516">
        <ele>158</ele>
        <time>2022-01-02T10:24:46+01:00</time>
      </trkpt>
      <trkpt lat="48.77672" lon="2.13527">
        <ele>158</ele>
        <time>2022-01-02T10:24:53+01:00</time>
      </trkpt>
      <trkpt lat="48.7768" lon="2.13535">
        <ele>160</ele>
        <time>2022-01-02T10:25:01+01:00</time>
      </trkpt>
      <trkpt lat="48.77688" lon="2.13544">
        <ele>157</ele>
        <time>2022-01-02T10:25:11+01:00</time>
      </trkpt>
      <trkpt lat="48.77695" lon="2.13554">
        <ele>157</ele>
        <time>2022-01-02T10:25:18+01:00</time>
      </trkpt>
      <trkpt lat="48.77702" lon="2.13563">
        <ele>157</ele>
        <time>2022-01-02T10:25:26+01:00</time>
      </trkpt>
      <trkpt lat="48.7771" lon="2.13572">
        <ele>157</ele>
        <time>2022-01-02T10:25:35+01:00</time>
      </trkpt>
      <trkpt lat="48.77718" lon="2.1358">
        <ele>157</ele>
        <time>2022-01-02T10:25:42+01:00</time>
      </trkpt>
      <trkpt lat="48.77726" lon="2.13587">
        <ele>156</ele>
        <time>2022-01-02T10:25:50+01:00</time>
      </trkpt>
      <trkpt lat="48.77733" lon="2.13597">
        <ele>157</ele>
        <time>2022-01-02T10:25:57+01:00</time>
      </trkpt>
      <trkpt lat="48.77741" lon="2.13606">
        <ele>155</ele>
        <time>2022-01-02T10:26:04+01:00</time>
      </trkpt>
      <trkpt lat="48.77749" lon="2.13615">
        <ele>157</ele>
        <time>2022-01-02T10:26:11+01:00</time>
      </trkpt>
      <trkpt lat="48.77757" lon="2.13624">
        <ele>160</ele>
        <time>2022-01-02T10:26:19+01:00</time>
      </trkpt>
      <trkpt lat="48.77764" lon="2.13633">
        <ele>162</ele>
        <time>2022-01-02T10:26:27+01:00</time>
      </trkpt>
      <trkpt lat="48.77772" lon="2.13639">
        <ele>164</ele>
        <time>2022-01-02T10:26:36+01:00</time>
      </trkpt>
      <trkpt lat="48.7778" lon="2.13646">
        <ele>165</ele>
        <time>2022-01-02T10:26:43+01:00</time>
      </trkpt>
      <trkpt lat="48.77787" lon="2.13654">
        <ele>165</ele>
        <time>2022-01-02T10:26:51+01:00</time>
      </trkpt>
      <trkpt lat="48.77794" lon="2.13663">
        <ele>165</ele>
        <time>2022-01-02T10:26:59+01:00</time>
      </trkpt>
      <trkpt lat="48.778" lon="2.13676">
        <ele>165</ele>
        <time>2022-01-02T10:27:06+01:00</time>
      </trkpt>
      <trkpt lat="48.77808" lon="2.13684">
        <ele>165</ele>
        <time>2022-01-02T10:27:14+01:00</time>
      </trkpt>
      <trkpt lat="48.77816" lon="2.13691">
        <ele>165</ele>
        <time>2022-01-02T10:27:23+01:00</time>
      </trkpt>
      <trkpt lat="48.77824" lon="2.137">
        <ele>165</ele>
        <time>2022-01-02T10:27:31+01:00</time>
      </trkpt>
      <trkpt lat="48.77832" lon="2.13705">
        <ele>164</ele>
        <time>2022-01-02T10:27:40+01:00</time>
      </trkpt>
      <trkpt lat="48.77842" lon="2.13698">
        <ele>164</ele>
        <time>2022-01-02T10:27:48+01:00</time>
      </trkpt>
      <trkpt lat="48.7785" lon="2.1369">
        <ele>166</ele>
        <time>2022-01-02T10:27:56+01:00</time>
      </trkpt>
      <trkpt lat="48.77859" lon="2.13683">
        <ele>168</ele>
        <time>2022-01-02T10:28:04+01:00</time>
      </trkpt>
      <trkpt lat="48.77866" lon="2.13673">
        <ele>169</ele>
        <time>2022-01-02T10:28:11+01:00</time>
      </trkpt>
      <trkpt lat="48.77873" lon="2.13664">
        <ele>170</ele>
        <time>2022-01-02T10:28:19+01:00</time>
      </trkpt>
      <trkpt lat="48.77879" lon="2.13653">
        <ele>172</ele>
        <time>2022-01-02T10:28:27+01:00</time>
      </trkpt>
      <trkpt lat="48.77882" lon="2.13639">
        <ele>172</ele>
        <time>2022-01-02T10:28:35+01:00</time>
      </trkpt>
      <trkpt lat="48.77889" lon="2.1363">
        <ele>171</ele>
        <time>2022-01-02T10:28:51+01:00</time>
      </trkpt>
      <trkpt lat="48.77896" lon="2.13618">
        <ele>171</ele>
        <time>2022-01-02T10:29:00+01:00</time>
      </trkpt>
      <trkpt lat="48.77901" lon="2.13607">
        <ele>169</ele>
        <time>2022-01-02T10:29:08+01:00</time>
      </trkpt>
      <trkpt lat="48.77908" lon="2.13598">
        <ele>168</ele>
        <time>2022-01-02T10:29:17+01:00</time>
      </trkpt>
      <trkpt lat="48.77915" lon="2.13589">
        <ele>168</ele>
        <time>2022-01-02T10:29:24+01:00</time>
      </trkpt>
      <trkpt lat="48.7792" lon="2.13577">
        <ele>168</ele>
        <time>2022-01-02T10:29:33+01:00</time>
      </trkpt>
      <trkpt lat="48.77925" lon="2.13565">
        <ele>167</ele>
        <time>2022-01-02T10:30:33+01:00</time>
      </trkpt>
      <trkpt lat="48.77931" lon="2.13556">
        <ele>167</ele>
        <time>2022-01-02T10:30:41+01:00</time>
      </trkpt>
      <trkpt lat="48.77938" lon="2.13547">
        <ele>168</ele>
        <time>2022-01-02T10:30:49+01:00</time>
      </trkpt>
      <trkpt lat="48.77944" lon="2.13536">
        <ele>166</ele>
        <time>2022-01-02T10:31:06+01:00</time>
      </trkpt>
      <trkpt lat="48.77948" lon="2.13523">
        <ele>167</ele>
        <time>2022-01-02T10:31:19+01:00</time>
      </trkpt>
      <trkpt lat="48.77957" lon="2.1352">
        <ele>171</ele>
        <time>2022-01-02T10:34:32+01:00</time>
      </trkpt>
      <trkpt lat="48.77963" lon="2.13509">
        <ele>172</ele>
        <time>2022-01-02T10:34:41+01:00</time>
      </trkpt>
      <trkpt lat="48.77967" lon="2.13497">
        <ele>172</ele>
        <time>2022-01-02T10:34:50+01:00</time>
      </trkpt>
      <trkpt lat="48.77973" lon="2.13487">
        <ele>173</ele>
        <time>2022-01-02T10:34:58+01:00</time>
      </trkpt>
      <trkpt lat="48.7798" lon="2.13476">
        <ele>172</ele>
        <time>2022-01-02T10:35:06+01:00</time>
      </trkpt>
      <trkpt lat="48.77988" lon="2.13467">
        <ele>172</ele>
        <time>2022-01-02T10:35:15+01:00</time>
      </trkpt>
      <trkpt lat="48.77996" lon="2.13473">
        <ele>171</ele>
        <time>2022-01-02T10:35:31+01:00</time>
      </trkpt>
      <trkpt lat="48.78004" lon="2.13481">
        <ele>168</ele>
        <time>2022-01-02T10:35:42+01:00</time>
      </trkpt>
      <trkpt lat="48.78013" lon="2.13488">
        <ele>168</ele>
        <time>2022-01-02T10:35:50+01:00</time>
      </trkpt>
      <trkpt lat="48.78021" lon="2.13496">
        <ele>167</ele>
        <time>2022-01-02T10:35:58+01:00</time>
      </trkpt>
      <trkpt lat="48.78031" lon="2.13501">
        <ele>167</ele>
        <time>2022-01-02T10:36:06+01:00</time>
      </trkpt>
      <trkpt lat="48.7804" lon="2.13506">
        <ele>166</ele>
        <time>2022-01-02T10:36:14+01:00</time>
      </trkpt>
      <trkpt lat="48.78048" lon="2.13513">
        <ele>167</ele>
        <time>2022-01-02T10:36:21+01:00</time>
      </trkpt>
      <trkpt lat="48.78056" lon="2.13522">
        <ele>166</ele>
        <time>2022-01-02T10:36:28+01:00</time>
      </trkpt>
      <trkpt lat="48.78065" lon="2.13528">
        <ele>169</ele>
        <time>2022-01-02T10:36:36+01:00</time>
      </trkpt>
      <trkpt lat="48.78073" lon="2.13535">
        <ele>170</ele>
        <time>2022-01-02T10:36:43+01:00</time>
      </trkpt>
      <trkpt lat="48.78082" lon="2.13541">
        <ele>168</ele>
        <time>2022-01-02T10:36:52+01:00</time>
      </trkpt>
      <trkpt lat="48.78091" lon="2.13547">
        <ele>167</ele>
        <time>2022-01-02T10:37:00+01:00</time>
      </trkpt>
      <trkpt lat="48.78099" lon="2.13554">
        <ele>167</ele>
        <time>2022-01-02T10:37:07+01:00</time>
      </trkpt>
      <trkpt lat="48.78108" lon="2.1356">
        <ele>167</ele>
        <time>2022-01-02T10:37:14+01:00</time>
      </trkpt>
      <trkpt lat="48.78117" lon="2.13564">
        <ele>168</ele>
        <time>2022-01-02T10:37:23+01:00</time>
      </trkpt>
      <trkpt lat="48.78126" lon="2.13569">
        <ele>167</ele>
        <time>2022-01-02T10:37:30+01:00</time>
      </trkpt>
      <trkpt lat="48.78134" lon="2.13575">
        <ele>168</ele>
        <time>2022-01-02T10:37:39+01:00</time>
      </trkpt>
      <trkpt lat="48.78142" lon="2.13584">
        <ele>168</ele>
        <time>2022-01-02T10:37:46+01:00</time>
      </trkpt>
      <trkpt lat="48.78152" lon="2.13589">
        <ele>167</ele>
        <time>2022-01-02T10:37:55+01:00</time>
      </trkpt>
      <trkpt lat="48.78161" lon="2.13593">
        <ele>169</ele>
        <time>2022-01-02T10:38:03+01:00</time>
      </trkpt>
      <trkpt lat="48.7817" lon="2.13599">
        <ele>168</ele>
        <time>2022-01-02T10:38:10+01:00</time>
      </trkpt>
      <trkpt lat="48.7818" lon="2.13605">
        <ele>169</ele>
        <time>2022-01-02T10:38:19+01:00</time>
      </trkpt>
      <trkpt lat="48.7819" lon="2.13609">
        <ele>169</ele>
        <time>2022-01-02T10:38:25+01:00</time>
      </trkpt>
      <trkpt lat="48.782" lon="2.13608">
        <ele>172</ele>
        <time>2022-01-02T10:38:33+01:00</time>
      </trkpt>
      <trkpt lat="48.78208" lon="2.13601">
        <ele>172</ele>
        <time>2022-01-02T10:38:40+01:00</time>
      </trkpt>
      <trkpt lat="48.78217" lon="2.13598">
        <ele>174</ele>
        <time>2022-01-02T10:38:47+01:00</time>
      </trkpt>
      <trkpt lat="48.78226" lon="2.13593">
        <ele>174</ele>
        <time>2022-01-02T10:38:55+01:00</time>
      </trkpt>
      <trkpt lat="48.78234" lon="2.13584">
        <ele>172</ele>
        <time>2022-01-02T10:39:02+01:00</time>
      </trkpt>
      <trkpt lat="48.78243" lon="2.13578">
        <ele>172</ele>
        <time>2022-01-02T10:39:11+01:00</time>
      </trkpt>
      <trkpt lat="48.78252" lon="2.13575">
        <ele>171</ele>
        <time>2022-01-02T10:39:20+01:00</time>
      </trkpt>
      <trkpt lat="48.78261" lon="2.13569">
        <ele>172</ele>
        <time>2022-01-02T10:39:27+01:00</time>
      </trkpt>
      <trkpt lat="48.78269" lon="2.13561">
        <ele>172</ele>
        <time>2022-01-02T10:39:35+01:00</time>
      </trkpt>
      <trkpt lat="48.78278" lon="2.13557">
        <ele>173</ele>
        <time>2022-01-02T10:39:42+01:00</time>
      </trkpt>
      <trkpt lat="48.78287" lon="2.13551">
        <ele>173</ele>
        <time>2022-01-02T10:39:49+01:00</time>
      </trkpt>
      <trkpt lat="48.78297" lon="2.13546">
        <ele>172</ele>
        <time>2022-01-02T10:39:56+01:00</time>
      </trkpt>
      <trkpt lat="48.78305" lon="2.13541">
        <ele>173</ele>
        <time>2022-01-02T10:40:04+01:00</time>
      </trkpt>
      <trkpt lat="48.78313" lon="2.13534">
        <ele>173</ele>
        <time>2022-01-02T10:40:12+01:00</time>
      </trkpt>
      <trkpt lat="48.78322" lon="2.13528">
        <ele>172</ele>
        <time>2022-01-02T10:40:20+01:00</time>
      </trkpt>
      <trkpt lat="48.78331" lon="2.1352">
        <ele>170</ele>
        <time>2022-01-02T10:40:29+01:00</time>
      </trkpt>
      <trkpt lat="48.7834" lon="2.13513">
        <ele>170</ele>
        <time>2022-01-02T10:40:37+01:00</time>
      </trkpt>
      <trkpt lat="48.7835" lon="2.13508">
        <ele>170</ele>
        <time>2022-01-02T10:40:46+01:00</time>
      </trkpt>
      <trkpt lat="48.78359" lon="2.135">
        <ele>170</ele>
        <time>2022-01-02T10:40:55+01:00</time>
      </trkpt>
      <trkpt lat="48.78367" lon="2.13493">
        <ele>170</ele>
        <time>2022-01-02T10:41:03+01:00</time>
      </trkpt>
      <trkpt lat="48.78374" lon="2.13485">
        <ele>169</ele>
        <time>2022-01-02T10:41:11+01:00</time>
      </trkpt>
      <trkpt lat="48.78384" lon="2.1348">
        <ele>167</ele>
        <time>2022-01-02T10:41:20+01:00</time>
      </trkpt>
      <trkpt lat="48.78393" lon="2.13474">
        <ele>164</ele>
        <time>2022-01-02T10:41:30+01:00</time>
      </trkpt>
      <trkpt lat="48.78402" lon="2.13469">
        <ele>165</ele>
        <time>2022-01-02T10:41:38+01:00</time>
      </trkpt>
      <trkpt lat="48.78411" lon="2.13465">
        <ele>166</ele>
        <time>2022-01-02T10:41:44+01:00</time>
      </trkpt>
      <trkpt lat="48.7842" lon="2.1346">
        <ele>167</ele>
        <time>2022-01-02T10:41:52+01:00</time>
      </trkpt>
      <trkpt lat="48.78429" lon="2.13456">
        <ele>167</ele>
        <time>2022-01-02T10:42:01+01:00</time>
      </trkpt>
      <trkpt lat="48.78439" lon="2.13451">
        <ele>166</ele>
        <time>2022-01-02T10:42:12+01:00</time>
      </trkpt>
      <trkpt lat="48.78447" lon="2.13443">
        <ele>163</ele>
        <time>2022-01-02T10:42:23+01:00</time>
      </trkpt>
      <trkpt lat="48.78455" lon="2.13435">
        <ele>161</ele>
        <time>2022-01-02T10:42:31+01:00</time>
      </trkpt>
      <trkpt lat="48.78464" lon="2.1343">
        <ele>159</ele>
        <time>2022-01-02T10:42:40+01:00</time>
      </trkpt>
      <trkpt lat="48.78472" lon="2.13423">
        <ele>156</ele>
        <time>2022-01-02T10:42:46+01:00</time>
      </trkpt>
      <trkpt lat="48.78481" lon="2.13414">
        <ele>151</ele>
        <time>2022-01-02T10:42:55+01:00</time>
      </trkpt>
      <trkpt lat="48.78491" lon="2.1341">
        <ele>145</ele>
        <time>2022-01-02T10:43:05+01:00</time>
      </trkpt>
      <trkpt lat="48.785" lon="2.13406">
        <ele>142</ele>
        <time>2022-01-02T10:43:13+01:00</time>
      </trkpt>
      <trkpt lat="48.78509" lon="2.13403">
        <ele>139</ele>
        <time>2022-01-02T10:43:21+01:00</time>
      </trkpt>
      <trkpt lat="48.78519" lon="2.134">
        <ele>136</ele>
        <time>2022-01-02T10:43:31+01:00</time>
      </trkpt>
      <trkpt lat="48.78529" lon="2.13403">
        <ele>136</ele>
        <time>2022-01-02T10:43:39+01:00</time>
      </trkpt>
      <trkpt lat="48.78539" lon="2.13403">
        <ele>135</ele>
        <time>2022-01-02T10:43:48+01:00</time>
      </trkpt>
      <trkpt lat="48.78549" lon="2.13401">
        <ele>135</ele>
        <time>2022-01-02T10:43:58+01:00</time>
      </trkpt>
      <trkpt lat="48.78558" lon="2.134">
        <ele>135</ele>
        <time>2022-01-02T10:44:05+01:00</time>
      </trkpt>
      <trkpt lat="48.78568" lon="2.134">
        <ele>136</ele>
        <time>2022-01-02T10:44:12+01:00</time>
      </trkpt>
      <trkpt lat="48.78577" lon="2.13399">
        <ele>137</ele>
        <time>2022-01-02T10:44:19+01:00</time>
      </trkpt>
      <trkpt lat="48.78586" lon="2.134">
        <ele>137</ele>
        <time>2022-01-02T10:44:25+01:00</time>
      </trkpt>
      <trkpt lat="48.78595" lon="2.134">
        <ele>137</ele>
        <time>2022-01-02T10:44:33+01:00</time>
      </trkpt>
      <trkpt lat="48.78605" lon="2.134">
        <ele>136</ele>
        <time>2022-01-02T10:44:40+01:00</time>
      </trkpt>
      <trkpt lat="48.78615" lon="2.13395">
        <ele>136</ele>
        <time>2022-01-02T10:44:49+01:00</time>
      </trkpt>
      <trkpt lat="48.78625" lon="2.13395">
        <ele>138</ele>
        <time>2022-01-02T10:44:55+01:00</time>
      </trkpt>
      <trkpt lat="48.78635" lon="2.13395">
        <ele>139</ele>
        <time>2022-01-02T10:45:03+01:00</time>
      </trkpt>
      <trkpt lat="48.78645" lon="2.13396">
        <ele>139</ele>
        <time>2022-01-02T10:45:11+01:00</time>
      </trkpt>
      <trkpt lat="48.78655" lon="2.13394">
        <ele>139</ele>
        <time>2022-01-02T10:45:19+01:00</time>
      </trkpt>
      <trkpt lat="48.78664" lon="2.13395">
        <ele>139</ele>
        <time>2022-01-02T10:45:27+01:00</time>
      </trkpt>
      <trkpt lat="48.78674" lon="2.13396">
        <ele>138</ele>
        <time>2022-01-02T10:45:35+01:00</time>
      </trkpt>
      <trkpt lat="48.78684" lon="2.13395">
        <ele>138</ele>
        <time>2022-01-02T10:45:42+01:00</time>
      </trkpt>
      <trkpt lat="48.78693" lon="2.13392">
        <ele>139</ele>
        <time>2022-01-02T10:45:50+01:00</time>
      </trkpt>
      <trkpt lat="48.78703" lon="2.1339">
        <ele>140</ele>
        <time>2022-01-02T10:45:58+01:00</time>
      </trkpt>
      <trkpt lat="48.78713" lon="2.13393">
        <ele>140</ele>
        <time>2022-01-02T10:46:05+01:00</time>
      </trkpt>
      <trkpt lat="48.78722" lon="2.1339">
        <ele>142</ele>
        <time>2022-01-02T10:46:13+01:00</time>
      </trkpt>
      <trkpt lat="48.78731" lon="2.13389">
        <ele>145</ele>
        <time>2022-01-02T10:46:21+01:00</time>
      </trkpt>
      <trkpt lat="48.78741" lon="2.13391">
        <ele>146</ele>
        <time>2022-01-02T10:46:29+01:00</time>
      </trkpt>
      <trkpt lat="48.7875" lon="2.1339">
        <ele>147</ele>
        <time>2022-01-02T10:46:35+01:00</time>
      </trkpt>
      <trkpt lat="48.7876" lon="2.13388">
        <ele>149</ele>
        <time>2022-01-02T10:46:41+01:00</time>
      </trkpt>
      <trkpt lat="48.78768" lon="2.13382">
        <ele>152</ele>
        <time>2022-01-02T10:46:48+01:00</time>
      </trkpt>
      <trkpt lat="48.78775" lon="2.13372">
        <ele>153</ele>
        <time>2022-01-02T10:46:57+01:00</time>
      </trkpt>
      <trkpt lat="48.78775" lon="2.13358">
        <ele>149</ele>
        <time>2022-01-02T10:47:26+01:00</time>
      </trkpt>
      <trkpt lat="48.7878" lon="2.13346">
        <ele>150</ele>
        <time>2022-01-02T10:47:45+01:00</time>
      </trkpt>
      <trkpt lat="48.78787" lon="2.13334">
        <ele>150</ele>
        <time>2022-01-02T10:48:01+01:00</time>
      </trkpt>
      <trkpt lat="48.78796" lon="2.13332">
        <ele>150</ele>
        <time>2022-01-02T10:48:16+01:00</time>
      </trkpt>
      <trkpt lat="48.78805" lon="2.13337">
        <ele>151</ele>
        <time>2022-01-02T10:48:22+01:00</time>
      </trkpt>
      <trkpt lat="48.78815" lon="2.13339">
        <ele>152</ele>
        <time>2022-01-02T10:48:31+01:00</time>
      </trkpt>
      <trkpt lat="48.78824" lon="2.13342">
        <ele>153</ele>
        <time>2022-01-02T10:48:37+01:00</time>
      </trkpt>
      <trkpt lat="48.78831" lon="2.13352">
        <ele>152</ele>
        <time>2022-01-02T10:48:45+01:00</time>
      </trkpt>
      <trkpt lat="48.7884" lon="2.13359">
        <ele>152</ele>
        <time>2022-01-02T10:48:51+01:00</time>
      </trkpt>
      <trkpt lat="48.78845" lon="2.13371">
        <ele>154</ele>
        <time>2022-01-02T10:49:07+01:00</time>
      </trkpt>
      <trkpt lat="48.78843" lon="2.13384">
        <ele>153</ele>
        <time>2022-01-02T10:49:10+01:00</time>
      </trkpt>
      <trkpt lat="48.78849" lon="2.13396">
        <ele>153</ele>
        <time>2022-01-02T10:49:14+01:00</time>
      </trkpt>
      <trkpt lat="48.78847" lon="2.1341">
        <ele>152</ele>
        <time>2022-01-02T10:49:20+01:00</time>
      </trkpt>
      <trkpt lat="48.78857" lon="2.13403">
        <ele>153</ele>
        <time>2022-01-02T10:49:30+01:00</time>
      </trkpt>
      <trkpt lat="48.78866" lon="2.13397">
        <ele>153</ele>
        <time>2022-01-02T10:49:33+01:00</time>
      </trkpt>
      <trkpt lat="48.78876" lon="2.13389">
        <ele>155</ele>
        <time>2022-01-02T10:49:39+01:00</time>
      </trkpt>
      <trkpt lat="48.78885" lon="2.13383">
        <ele>157</ele>
        <time>2022-01-02T10:49:42+01:00</time>
      </trkpt>
      <trkpt lat="48.78893" lon="2.13376">
        <ele>158</ele>
        <time>2022-01-02T10:49:47+01:00</time>
      </trkpt>
      <trkpt lat="48.78899" lon="2.13364">
        <ele>158</ele>
        <time>2022-01-02T10:49:54+01:00</time>
      </trkpt>
      <trkpt lat="48.78908" lon="2.1336">
        <ele>161</ele>
        <time>2022-01-02T10:50:02+01:00</time>
      </trkpt>
      <trkpt lat="48.78915" lon="2.13351">
        <ele>163</ele>
        <time>2022-01-02T10:50:11+01:00</time>
      </trkpt>
      <trkpt lat="48.78925" lon="2.1335">
        <ele>166</ele>
        <time>2022-01-02T10:50:25+01:00</time>
      </trkpt>
      <trkpt lat="48.78935" lon="2.13348">
        <ele>168</ele>
        <time>2022-01-02T10:50:33+01:00</time>
      </trkpt>
      <trkpt lat="48.78943" lon="2.13343">
        <ele>171</ele>
        <time>2022-01-02T10:50:42+01:00</time>
      </trkpt>
      <trkpt lat="48.78952" lon="2.13339">
        <ele>171</ele>
        <time>2022-01-02T10:50:51+01:00</time>
      </trkpt>
      <trkpt lat="48.78962" lon="2.1334">
        <ele>172</ele>
        <time>2022-01-02T10:51:01+01:00</time>
      </trkpt>
      <trkpt lat="48.78971" lon="2.13339">
        <ele>173</ele>
        <time>2022-01-02T10:51:11+01:00</time>
      </trkpt>
      <trkpt lat="48.78981" lon="2.1334">
        <ele>174</ele>
        <time>2022-01-02T10:51:18+01:00</time>
      </trkpt>
      <trkpt lat="48.7899" lon="2.1334">
        <ele>174</ele>
        <time>2022-01-02T10:51:25+01:00</time>
      </trkpt>
      <trkpt lat="48.79001" lon="2.13342">
        <ele>174</ele>
        <time>2022-01-02T10:51:34+01:00</time>
      </trkpt>
      <trkpt lat="48.7901" lon="2.13344">
        <ele>174</ele>
        <time>2022-01-02T10:51:41+01:00</time>
      </trkpt>
      <trkpt lat="48.7902" lon="2.13344">
        <ele>174</ele>
        <time>2022-01-02T10:51:51+01:00</time>
      </trkpt>
      <trkpt lat="48.79029" lon="2.13346">
        <ele>174</ele>
        <time>2022-01-02T10:51:59+01:00</time>
      </trkpt>
      <trkpt lat="48.79038" lon="2.13348">
        <ele>173</ele>
        <time>2022-01-02T10:52:06+01:00</time>
      </trkpt>
      <trkpt lat="48.79048" lon="2.13347">
        <ele>173</ele>
        <time>2022-01-02T10:52:14+01:00</time>
      </trkpt>
      <trkpt lat="48.79057" lon="2.13347">
        <ele>172</ele>
        <time>2022-01-02T10:52:22+01:00</time>
      </trkpt>
      <trkpt lat="48.79066" lon="2.13348">
        <ele>172</ele>
        <time>2022-01-02T10:52:30+01:00</time>
      </trkpt>
      <trkpt lat="48.79076" lon="2.1335">
        <ele>173</ele>
        <time>2022-01-02T10:52:39+01:00</time>
      </trkpt>
      <trkpt lat="48.79085" lon="2.13351">
        <ele>174</ele>
        <time>2022-01-02T10:52:47+01:00</time>
      </trkpt>
      <trkpt lat="48.79094" lon="2.13351">
        <ele>175</ele>
        <time>2022-01-02T10:52:53+01:00</time>
      </trkpt>
      <trkpt lat="48.79104" lon="2.13351">
        <ele>175</ele>
        <time>2022-01-02T10:53:00+01:00</time>
      </trkpt>
      <trkpt lat="48.79114" lon="2.13354">
        <ele>175</ele>
        <time>2022-01-02T10:53:06+01:00</time>
      </trkpt>
      <trkpt lat="48.79123" lon="2.13356">
        <ele>176</ele>
        <time>2022-01-02T10:53:13+01:00</time>
      </trkpt>
      <trkpt lat="48.79132" lon="2.13352">
        <ele>177</ele>
        <time>2022-01-02T10:53:21+01:00</time>
      </trkpt>
      <trkpt lat="48.79141" lon="2.13355">
        <ele>178</ele>
        <time>2022-01-02T10:53:29+01:00</time>
      </trkpt>
      <trkpt lat="48.79151" lon="2.13354">
        <ele>179</ele>
        <time>2022-01-02T10:53:37+01:00</time>
      </trkpt>
      <trkpt lat="48.79161" lon="2.13349">
        <ele>178</ele>
        <time>2022-01-02T10:53:45+01:00</time>
      </trkpt>
      <trkpt lat="48.7917" lon="2.13348">
        <ele>179</ele>
        <time>2022-01-02T10:53:52+01:00</time>
      </trkpt>
      <trkpt lat="48.7918" lon="2.13349">
        <ele>178</ele>
        <time>2022-01-02T10:54:02+01:00</time>
      </trkpt>
      <trkpt lat="48.79189" lon="2.13348">
        <ele>177</ele>
        <time>2022-01-02T10:54:11+01:00</time>
      </trkpt>
      <trkpt lat="48.79198" lon="2.1335">
        <ele>178</ele>
        <time>2022-01-02T10:54:18+01:00</time>
      </trkpt>
      <trkpt lat="48.79209" lon="2.13353">
        <ele>178</ele>
        <time>2022-01-02T10:54:25+01:00</time>
      </trkpt>
      <trkpt lat="48.79218" lon="2.13354">
        <ele>178</ele>
        <time>2022-01-02T10:54:33+01:00</time>
      </trkpt>
      <trkpt lat="48.79227" lon="2.13355">
        <ele>178</ele>
        <time>2022-01-02T10:54:42+01:00</time>
      </trkpt>
      <trkpt lat="48.79237" lon="2.13355">
        <ele>178</ele>
        <time>2022-01-02T10:54:49+01:00</time>
      </trkpt>
      <trkpt lat="48.79246" lon="2.13349">
        <ele>179</ele>
        <time>2022-01-02T10:54:57+01:00</time>
      </trkpt>
      <trkpt lat="48.7925" lon="2.13337">
        <ele>178</ele>
        <time>2022-01-02T10:55:03+01:00</time>
      </trkpt>
      <trkpt lat="48.79253" lon="2.13323">
        <ele>176</ele>
        <time>2022-01-02T10:55:10+01:00</time>
      </trkpt>
      <trkpt lat="48.79252" lon="2.13308">
        <ele>174</ele>
        <time>2022-01-02T10:55:17+01:00</time>
      </trkpt>
      <trkpt lat="48.79252" lon="2.13293">
        <ele>173</ele>
        <time>2022-01-02T10:55:26+01:00</time>
      </trkpt>
      <trkpt lat="48.7925" lon="2.13279">
        <ele>171</ele>
        <time>2022-01-02T10:55:34+01:00</time>
      </trkpt>
      <trkpt lat="48.79246" lon="2.13264">
        <ele>172</ele>
        <time>2022-01-02T10:55:42+01:00</time>
      </trkpt>
      <trkpt lat="48.79247" lon="2.1325">
        <ele>174</ele>
        <time>2022-01-02T10:55:51+01:00</time>
      </trkpt>
      <trkpt lat="48.79251" lon="2.13237">
        <ele>175</ele>
        <time>2022-01-02T10:56:01+01:00</time>
      </trkpt>
      <trkpt lat="48.79253" lon="2.13223">
        <ele>173</ele>
        <time>2022-01-02T10:56:13+01:00</time>
      </trkpt>
      <trkpt lat="48.79258" lon="2.13211">
        <ele>172</ele>
        <time>2022-01-02T10:56:21+01:00</time>
      </trkpt>
      <trkpt lat="48.79261" lon="2.13197">
        <ele>172</ele>
        <time>2022-01-02T10:56:29+01:00</time>
      </trkpt>
      <trkpt lat="48.79264" lon="2.13184">
        <ele>170</ele>
        <time>2022-01-02T10:56:37+01:00</time>
      </trkpt>
      <trkpt lat="48.79265" lon="2.1317">
        <ele>169</ele>
        <time>2022-01-02T10:56:44+01:00</time>
      </trkpt>
      <trkpt lat="48.79265" lon="2.13155">
        <ele>168</ele>
        <time>2022-01-02T10:56:51+01:00</time>
      </trkpt>
      <trkpt lat="48.79261" lon="2.13142">
        <ele>167</ele>
        <time>2022-01-02T10:57:01+01:00</time>
      </trkpt>
      <trkpt lat="48.79254" lon="2.13132">
        <ele>166</ele>
        <time>2022-01-02T10:57:09+01:00</time>
      </trkpt>
      <trkpt lat="48.79247" lon="2.1312">
        <ele>165</ele>
        <time>2022-01-02T10:57:16+01:00</time>
      </trkpt>
      <trkpt lat="48.7924" lon="2.13111">
        <ele>165</ele>
        <time>2022-01-02T10:57:23+01:00</time>
      </trkpt>
      <trkpt lat="48.79233" lon="2.13101">
        <ele>165</ele>
        <time>2022-01-02T10:57:33+01:00</time>
      </trkpt>
      <trkpt lat="48.79225" lon="2.13091">
        <ele>163</ele>
        <time>2022-01-02T10:57:44+01:00</time>
      </trkpt>
      <trkpt lat="48.79217" lon="2.13083">
        <ele>161</ele>
        <time>2022-01-02T10:57:51+01:00</time>
      </trkpt>
      <trkpt lat="48.79209" lon="2.13074">
        <ele>160</ele>
        <time>2022-01-02T10:57:57+01:00</time>
      </trkpt>
      <trkpt lat="48.79202" lon="2.13065">
        <ele>161</ele>
        <time>2022-01-02T10:58:05+01:00</time>
      </trkpt>
      <trkpt lat="48.79195" lon="2.13057">
        <ele>164</ele>
        <time>2022-01-02T10:58:12+01:00</time>
      </trkpt>
      <trkpt lat="48.79187" lon="2.13048">
        <ele>164</ele>
        <time>2022-01-02T10:58:18+01:00</time>
      </trkpt>
      <trkpt lat="48.7918" lon="2.13039">
        <ele>165</ele>
        <time>2022-01-02T10:58:26+01:00</time>
      </trkpt>
      <trkpt lat="48.79173" lon="2.1303">
        <ele>167</ele>
        <time>2022-01-02T10:58:33+01:00</time>
      </trkpt>
      <trkpt lat="48.79166" lon="2.13021">
        <ele>172</ele>
        <time>2022-01-02T10:59:16+01:00</time>
      </trkpt>
      <trkpt lat="48.79164" lon="2.13006">
        <ele>172</ele>
        <time>2022-01-02T10:59:29+01:00</time>
      </trkpt>
      <trkpt lat="48.7916" lon="2.12993">
        <ele>170</ele>
        <time>2022-01-02T10:59:39+01:00</time>
      </trkpt>
      <trkpt lat="48.79159" lon="2.12979">
        <ele>166</ele>
        <time>2022-01-02T10:59:49+01:00</time>
      </trkpt>
      <trkpt lat="48.79158" lon="2.12965">
        <ele>165</ele>
        <time>2022-01-02T10:59:58+01:00</time>
      </trkpt>
      <trkpt lat="48.79156" lon="2.12949">
        <ele>164</ele>
        <time>2022-01-02T11:00:05+01:00</time>
      </trkpt>
      <trkpt lat="48.79154" lon="2.12934">
        <ele>166</ele>
        <time>2022-01-02T11:00:13+01:00</time>
      </trkpt>
      <trkpt lat="48.7916" lon="2.1292">
        <ele>173</ele>
        <time>2022-01-02T11:00:24+01:00</time>
      </trkpt>
      <trkpt lat="48.79164" lon="2.12908">
        <ele>174</ele>
        <time>2022-01-02T11:00:29+01:00</time>
      </trkpt>
      <trkpt lat="48.79166" lon="2.12894">
        <ele>174</ele>
        <time>2022-01-02T11:00:35+01:00</time>
      </trkpt>
      <trkpt lat="48.79166" lon="2.1288">
        <ele>172</ele>
        <time>2022-01-02T11:00:47+01:00</time>
      </trkpt>
      <trkpt lat="48.79162" lon="2.12867">
        <ele>172</ele>
        <time>2022-01-02T11:00:57+01:00</time>
      </trkpt>
      <trkpt lat="48.79159" lon="2.12853">
        <ele>172</ele>
        <time>2022-01-02T11:01:08+01:00</time>
      </trkpt>
      <trkpt lat="48.7916" lon="2.12838">
        <ele>172</ele>
        <time>2022-01-02T11:01:15+01:00</time>
      </trkpt>
      <trkpt lat="48.79161" lon="2.12824">
        <ele>172</ele>
        <time>2022-01-02T11:01:24+01:00</time>
      </trkpt>
      <trkpt lat="48.79164" lon="2.12811">
        <ele>172</ele>
        <time>2022-01-02T11:01:31+01:00</time>
      </trkpt>
      <trkpt lat="48.79165" lon="2.12797">
        <ele>170</ele>
        <time>2022-01-02T11:01:41+01:00</time>
      </trkpt>
      <trkpt lat="48.7917" lon="2.12786">
        <ele>172</ele>
        <time>2022-01-02T11:02:07+01:00</time>
      </trkpt>
      <trkpt lat="48.79169" lon="2.12771">
        <ele>172</ele>
        <time>2022-01-02T11:02:19+01:00</time>
      </trkpt>
      <trkpt lat="48.79163" lon="2.12759">
        <ele>171</ele>
        <time>2022-01-02T11:02:26+01:00</time>
      </trkpt>
      <trkpt lat="48.79158" lon="2.12745">
        <ele>169</ele>
        <time>2022-01-02T11:02:34+01:00</time>
      </trkpt>
      <trkpt lat="48.79159" lon="2.12731">
        <ele>166</ele>
        <time>2022-01-02T11:02:44+01:00</time>
      </trkpt>
      <trkpt lat="48.79158" lon="2.12718">
        <ele>168</ele>
        <time>2022-01-02T11:03:22+01:00</time>
      </trkpt>
      <trkpt lat="48.79162" lon="2.12704">
        <ele>167</ele>
        <time>2022-01-02T11:03:31+01:00</time>
      </trkpt>
      <trkpt lat="48.79157" lon="2.12691">
        <ele>168</ele>
        <time>2022-01-02T11:04:13+01:00</time>
      </trkpt>
      <trkpt lat="48.79153" lon="2.12679">
        <ele>168</ele>
        <time>2022-01-02T11:04:28+01:00</time>
      </trkpt>
      <trkpt lat="48.79157" lon="2.12692">
        <ele>169</ele>
        <time>2022-01-02T11:05:18+01:00</time>
      </trkpt>
      <trkpt lat="48.79151" lon="2.12679">
        <ele>164</ele>
        <time>2022-01-02T11:06:02+01:00</time>
      </trkpt>
      <trkpt lat="48.79149" lon="2.12666">
        <ele>165</ele>
        <time>2022-01-02T11:06:13+01:00</time>
      </trkpt>
      <trkpt lat="48.79144" lon="2.12653">
        <ele>167</ele>
        <time>2022-01-02T11:06:23+01:00</time>
      </trkpt>
      <trkpt lat="48.79138" lon="2.12641">
        <ele>169</ele>
        <time>2022-01-02T11:06:33+01:00</time>
      </trkpt>
      <trkpt lat="48.79131" lon="2.12632">
        <ele>171</ele>
        <time>2022-01-02T11:06:40+01:00</time>
      </trkpt>
      <trkpt lat="48.79123" lon="2.12626">
        <ele>171</ele>
        <time>2022-01-02T11:06:47+01:00</time>
      </trkpt>
      <trkpt lat="48.79115" lon="2.12616">
        <ele>172</ele>
        <time>2022-01-02T11:06:54+01:00</time>
      </trkpt>
      <trkpt lat="48.7911" lon="2.12603">
        <ele>174</ele>
        <time>2022-01-02T11:07:00+01:00</time>
      </trkpt>
      <trkpt lat="48.79109" lon="2.1259">
        <ele>175</ele>
        <time>2022-01-02T11:07:11+01:00</time>
      </trkpt>
      <trkpt lat="48.79111" lon="2.12576">
        <ele>174</ele>
        <time>2022-01-02T11:07:20+01:00</time>
      </trkpt>
      <trkpt lat="48.7911" lon="2.12562">
        <ele>172</ele>
        <time>2022-01-02T11:07:26+01:00</time>
      </trkpt>
      <trkpt lat="48.79109" lon="2.12548">
        <ele>172</ele>
        <time>2022-01-02T11:07:32+01:00</time>
      </trkpt>
      <trkpt lat="48.7911" lon="2.12534">
        <ele>172</ele>
        <time>2022-01-02T11:07:40+01:00</time>
      </trkpt>
      <trkpt lat="48.79111" lon="2.1252">
        <ele>171</ele>
        <time>2022-01-02T11:07:46+01:00</time>
      </trkpt>
      <trkpt lat="48.79109" lon="2.12505">
        <ele>170</ele>
        <time>2022-01-02T11:07:54+01:00</time>
      </trkpt>
      <trkpt lat="48.79105" lon="2.12493">
        <ele>167</ele>
        <time>2022-01-02T11:08:02+01:00</time>
      </trkpt>
      <trkpt lat="48.79103" lon="2.12479">
        <ele>164</ele>
        <time>2022-01-02T11:08:10+01:00</time>
      </trkpt>
      <trkpt lat="48.79103" lon="2.12463">
        <ele>163</ele>
        <time>2022-01-02T11:08:18+01:00</time>
      </trkpt>
      <trkpt lat="48.79098" lon="2.1245">
        <ele>160</ele>
        <time>2022-01-02T11:08:27+01:00</time>
      </trkpt>
      <trkpt lat="48.791" lon="2.12436">
        <ele>159</ele>
        <time>2022-01-02T11:08:35+01:00</time>
      </trkpt>
      <trkpt lat="48.79098" lon="2.12422">
        <ele>158</ele>
        <time>2022-01-02T11:08:42+01:00</time>
      </trkpt>
      <trkpt lat="48.791" lon="2.12408">
        <ele>159</ele>
        <time>2022-01-02T11:09:27+01:00</time>
      </trkpt>
      <trkpt lat="48.79103" lon="2.12395">
        <ele>160</ele>
        <time>2022-01-02T11:09:33+01:00</time>
      </trkpt>
      <trkpt lat="48.79105" lon="2.1238">
        <ele>161</ele>
        <time>2022-01-02T11:09:40+01:00</time>
      </trkpt>
      <trkpt lat="48.79107" lon="2.12366">
        <ele>161</ele>
        <time>2022-01-02T11:09:48+01:00</time>
      </trkpt>
      <trkpt lat="48.79109" lon="2.12353">
        <ele>162</ele>
        <time>2022-01-02T11:09:56+01:00</time>
      </trkpt>
      <trkpt lat="48.79112" lon="2.1234">
        <ele>167</ele>
        <time>2022-01-02T11:10:06+01:00</time>
      </trkpt>
      <trkpt lat="48.79112" lon="2.12325">
        <ele>168</ele>
        <time>2022-01-02T11:10:14+01:00</time>
      </trkpt>
      <trkpt lat="48.7911" lon="2.12311">
        <ele>168</ele>
        <time>2022-01-02T11:10:21+01:00</time>
      </trkpt>
      <trkpt lat="48.79106" lon="2.12298">
        <ele>166</ele>
        <time>2022-01-02T11:10:27+01:00</time>
      </trkpt>
      <trkpt lat="48.79107" lon="2.12284">
        <ele>162</ele>
        <time>2022-01-02T11:10:36+01:00</time>
      </trkpt>
      <trkpt lat="48.79113" lon="2.12273">
        <ele>159</ele>
        <time>2022-01-02T11:10:46+01:00</time>
      </trkpt>
      <trkpt lat="48.7912" lon="2.12263">
        <ele>159</ele>
        <time>2022-01-02T11:10:55+01:00</time>
      </trkpt>
      <trkpt lat="48.79128" lon="2.12258">
        <ele>158</ele>
        <time>2022-01-02T11:11:03+01:00</time>
      </trkpt>
      <trkpt lat="48.79137" lon="2.12252">
        <ele>157</ele>
        <time>2022-01-02T11:11:12+01:00</time>
      </trkpt>
      <trkpt lat="48.79145" lon="2.12244">
        <ele>158</ele>
        <time>2022-01-02T11:11:22+01:00</time>
      </trkpt>
      <trkpt lat="48.7915" lon="2.12232">
        <ele>156</ele>
        <time>2022-01-02T11:11:30+01:00</time>
      </trkpt>
      <trkpt lat="48.79159" lon="2.12229">
        <ele>155</ele>
        <time>2022-01-02T11:11:42+01:00</time>
      </trkpt>
      <trkpt lat="48.79166" lon="2.12218">
        <ele>154</ele>
        <time>2022-01-02T11:11:50+01:00</time>
      </trkpt>
      <trkpt lat="48.7917" lon="2.12205">
        <ele>153</ele>
        <time>2022-01-02T11:11:57+01:00</time>
      </trkpt>
      <trkpt lat="48.79177" lon="2.12196">
        <ele>150</ele>
        <time>2022-01-02T11:12:04+01:00</time>
      </trkpt>
      <trkpt lat="48.79185" lon="2.1219">
        <ele>146</ele>
        <time>2022-01-02T11:12:14+01:00</time>
      </trkpt>
      <trkpt lat="48.7919" lon="2.12178">
        <ele>146</ele>
        <time>2022-01-02T11:12:20+01:00</time>
      </trkpt>
      <trkpt lat="48.79196" lon="2.12165">
        <ele>144</ele>
        <time>2022-01-02T11:12:29+01:00</time>
      </trkpt>
      <trkpt lat="48.79201" lon="2.12154">
        <ele>141</ele>
        <time>2022-01-02T11:12:42+01:00</time>
      </trkpt>
      <trkpt lat="48.79201" lon="2.12139">
        <ele>140</ele>
        <time>2022-01-02T11:12:50+01:00</time>
      </trkpt>
      <trkpt lat="48.79206" lon="2.12127">
        <ele>139</ele>
        <time>2022-01-02T11:13:01+01:00</time>
      </trkpt>
      <trkpt lat="48.79207" lon="2.12111">
        <ele>138</ele>
        <time>2022-01-02T11:13:09+01:00</time>
      </trkpt>
      <trkpt lat="48.79208" lon="2.12097">
        <ele>139</ele>
        <time>2022-01-02T11:13:17+01:00</time>
      </trkpt>
      <trkpt lat="48.79209" lon="2.12082">
        <ele>139</ele>
        <time>2022-01-02T11:13:25+01:00</time>
      </trkpt>
      <trkpt lat="48.79212" lon="2.12068">
        <ele>140</ele>
        <time>2022-01-02T11:13:34+01:00</time>
      </trkpt>
      <trkpt lat="48.79213" lon="2.12054">
        <ele>142</ele>
        <time>2022-01-02T11:13:42+01:00</time>
      </trkpt>
      <trkpt lat="48.79215" lon="2.12039">
        <ele>142</ele>
        <time>2022-01-02T11:13:50+01:00</time>
      </trkpt>
      <trkpt lat="48.79216" lon="2.12025">
        <ele>144</ele>
        <time>2022-01-02T11:13:59+01:00</time>
      </trkpt>
      <trkpt lat="48.79216" lon="2.12011">
        <ele>143</ele>
        <time>2022-01-02T11:14:07+01:00</time>
      </trkpt>
      <trkpt lat="48.79218" lon="2.11997">
        <ele>143</ele>
        <time>2022-01-02T11:14:15+01:00</time>
      </trkpt>
      <trkpt lat="48.79219" lon="2.11981">
        <ele>145</ele>
        <time>2022-01-02T11:14:23+01:00</time>
      </trkpt>
      <trkpt lat="48.79222" lon="2.11968">
        <ele>146</ele>
        <time>2022-01-02T11:14:32+01:00</time>
      </trkpt>
      <trkpt lat="48.79225" lon="2.11954">
        <ele>147</ele>
        <time>2022-01-02T11:14:40+01:00</time>
      </trkpt>
      <trkpt lat="48.79225" lon="2.11938">
        <ele>147</ele>
        <time>2022-01-02T11:14:49+01:00</time>
      </trkpt>
      <trkpt lat="48.79228" lon="2.11923">
        <ele>146</ele>
        <time>2022-01-02T11:15:00+01:00</time>
      </trkpt>
      <trkpt lat="48.79226" lon="2.1191">
        <ele>146</ele>
        <time>2022-01-02T11:15:07+01:00</time>
      </trkpt>
      <trkpt lat="48.79226" lon="2.11896">
        <ele>144</ele>
        <time>2022-01-02T11:15:15+01:00</time>
      </trkpt>
      <trkpt lat="48.79223" lon="2.11883">
        <ele>142</ele>
        <time>2022-01-02T11:15:21+01:00</time>
      </trkpt>
      <trkpt lat="48.79223" lon="2.11868">
        <ele>141</ele>
        <time>2022-01-02T11:15:29+01:00</time>
      </trkpt>
      <trkpt lat="48.79227" lon="2.11854">
        <ele>140</ele>
        <time>2022-01-02T11:15:36+01:00</time>
      </trkpt>
      <trkpt lat="48.79232" lon="2.11841">
        <ele>141</ele>
        <time>2022-01-02T11:15:46+01:00</time>
      </trkpt>
      <trkpt lat="48.79237" lon="2.1183">
        <ele>142</ele>
        <time>2022-01-02T11:15:55+01:00</time>
      </trkpt>
      <trkpt lat="48.7924" lon="2.11816">
        <ele>142</ele>
        <time>2022-01-02T11:16:07+01:00</time>
      </trkpt>
      <trkpt lat="48.79239" lon="2.11801">
        <ele>142</ele>
        <time>2022-01-02T11:16:14+01:00</time>
      </trkpt>
      <trkpt lat="48.79241" lon="2.11787">
        <ele>144</ele>
        <time>2022-01-02T11:17:02+01:00</time>
      </trkpt>
      <trkpt lat="48.79241" lon="2.11773">
        <ele>147</ele>
        <time>2022-01-02T11:17:09+01:00</time>
      </trkpt>
      <trkpt lat="48.79249" lon="2.11766">
        <ele>152</ele>
        <time>2022-01-02T11:17:27+01:00</time>
      </trkpt>
      <trkpt lat="48.7925" lon="2.11752">
        <ele>150</ele>
        <time>2022-01-02T11:17:35+01:00</time>
      </trkpt>
      <trkpt lat="48.79252" lon="2.11738">
        <ele>148</ele>
        <time>2022-01-02T11:17:43+01:00</time>
      </trkpt>
      <trkpt lat="48.79252" lon="2.11723">
        <ele>147</ele>
        <time>2022-01-02T11:17:50+01:00</time>
      </trkpt>
      <trkpt lat="48.79256" lon="2.1171">
        <ele>145</ele>
        <time>2022-01-02T11:17:59+01:00</time>
      </trkpt>
      <trkpt lat="48.79256" lon="2.11696">
        <ele>145</ele>
        <time>2022-01-02T11:18:05+01:00</time>
      </trkpt>
      <trkpt lat="48.79256" lon="2.11682">
        <ele>144</ele>
        <time>2022-01-02T11:18:13+01:00</time>
      </trkpt>
      <trkpt lat="48.79257" lon="2.11667">
        <ele>143</ele>
        <time>2022-01-02T11:18:21+01:00</time>
      </trkpt>
      <trkpt lat="48.79258" lon="2.11652">
        <ele>142</ele>
        <time>2022-01-02T11:18:30+01:00</time>
      </trkpt>
      <trkpt lat="48.79259" lon="2.11637">
        <ele>142</ele>
        <time>2022-01-02T11:18:38+01:00</time>
      </trkpt>
      <trkpt lat="48.79261" lon="2.11623">
        <ele>140</ele>
        <time>2022-01-02T11:18:46+01:00</time>
      </trkpt>
      <trkpt lat="48.79263" lon="2.1161">
        <ele>138</ele>
        <time>2022-01-02T11:18:53+01:00</time>
      </trkpt>
      <trkpt lat="48.79264" lon="2.11595">
        <ele>139</ele>
        <time>2022-01-02T11:19:01+01:00</time>
      </trkpt>
      <trkpt lat="48.79263" lon="2.11582">
        <ele>138</ele>
        <time>2022-01-02T11:19:08+01:00</time>
      </trkpt>
      <trkpt lat="48.79261" lon="2.11568">
        <ele>138</ele>
        <time>2022-01-02T11:19:15+01:00</time>
      </trkpt>
      <trkpt lat="48.79259" lon="2.11554">
        <ele>137</ele>
        <time>2022-01-02T11:19:23+01:00</time>
      </trkpt>
      <trkpt lat="48.7926" lon="2.1154">
        <ele>133</ele>
        <time>2022-01-02T11:19:32+01:00</time>
      </trkpt>
      <trkpt lat="48.79257" lon="2.11527">
        <ele>132</ele>
        <time>2022-01-02T11:19:39+01:00</time>
      </trkpt>
      <trkpt lat="48.79255" lon="2.11512">
        <ele>130</ele>
        <time>2022-01-02T11:19:45+01:00</time>
      </trkpt>
      <trkpt lat="48.79255" lon="2.11499">
        <ele>130</ele>
        <time>2022-01-02T11:19:54+01:00</time>
      </trkpt>
      <trkpt lat="48.79256" lon="2.11485">
        <ele>131</ele>
        <time>2022-01-02T11:20:02+01:00</time>
      </trkpt>
      <trkpt lat="48.79255" lon="2.1147">
        <ele>132</ele>
        <time>2022-01-02T11:20:09+01:00</time>
      </trkpt>
      <trkpt lat="48.79252" lon="2.11455">
        <ele>131</ele>
        <time>2022-01-02T11:20:17+01:00</time>
      </trkpt>
      <trkpt lat="48.79253" lon="2.1144">
        <ele>134</ele>
        <time>2022-01-02T11:20:25+01:00</time>
      </trkpt>
      <trkpt lat="48.79255" lon="2.11425">
        <ele>133</ele>
        <time>2022-01-02T11:20:33+01:00</time>
      </trkpt>
      <trkpt lat="48.79259" lon="2.11411">
        <ele>131</ele>
        <time>2022-01-02T11:20:40+01:00</time>
      </trkpt>
      <trkpt lat="48.79261" lon="2.11398">
        <ele>128</ele>
        <time>2022-01-02T11:20:54+01:00</time>
      </trkpt>
      <trkpt lat="48.79262" lon="2.11384">
        <ele>126</ele>
        <time>2022-01-02T11:21:05+01:00</time>
      </trkpt>
      <trkpt lat="48.79263" lon="2.1137">
        <ele>129</ele>
        <time>2022-01-02T11:21:14+01:00</time>
      </trkpt>
      <trkpt lat="48.79263" lon="2.11355">
        <ele>132</ele>
        <time>2022-01-02T11:21:21+01:00</time>
      </trkpt>
      <trkpt lat="48.79264" lon="2.11341">
        <ele>135</ele>
        <time>2022-01-02T11:21:31+01:00</time>
      </trkpt>
      <trkpt lat="48.79267" lon="2.11327">
        <ele>139</ele>
        <time>2022-01-02T11:21:41+01:00</time>
      </trkpt>
      <trkpt lat="48.79268" lon="2.11313">
        <ele>140</ele>
        <time>2022-01-02T11:21:47+01:00</time>
      </trkpt>
      <trkpt lat="48.79268" lon="2.11298">
        <ele>141</ele>
        <time>2022-01-02T11:21:53+01:00</time>
      </trkpt>
      <trkpt lat="48.79277" lon="2.11291">
        <ele>144</ele>
        <time>2022-01-02T11:21:58+01:00</time>
      </trkpt>
      <trkpt lat="48.79283" lon="2.1128">
        <ele>151</ele>
        <time>2022-01-02T11:22:07+01:00</time>
      </trkpt>
      <trkpt lat="48.79286" lon="2.11267">
        <ele>153</ele>
        <time>2022-01-02T11:22:14+01:00</time>
      </trkpt>
      <trkpt lat="48.79291" lon="2.11253">
        <ele>157</ele>
        <time>2022-01-02T11:22:24+01:00</time>
      </trkpt>
      <trkpt lat="48.79296" lon="2.11241">
        <ele>157</ele>
        <time>2022-01-02T11:22:33+01:00</time>
      </trkpt>
      <trkpt lat="48.793" lon="2.11227">
        <ele>153</ele>
        <time>2022-01-02T11:22:45+01:00</time>
      </trkpt>
      <trkpt lat="48.79304" lon="2.11213">
        <ele>155</ele>
        <time>2022-01-02T11:22:54+01:00</time>
      </trkpt>
      <trkpt lat="48.79307" lon="2.11199">
        <ele>157</ele>
        <time>2022-01-02T11:23:02+01:00</time>
      </trkpt>
      <trkpt lat="48.79307" lon="2.11185">
        <ele>156</ele>
        <time>2022-01-02T11:23:08+01:00</time>
      </trkpt>
      <trkpt lat="48.79308" lon="2.1117">
        <ele>155</ele>
        <time>2022-01-02T11:23:15+01:00</time>
      </trkpt>
      <trkpt lat="48.7931" lon="2.11155">
        <ele>155</ele>
        <time>2022-01-02T11:23:24+01:00</time>
      </trkpt>
      <trkpt lat="48.79311" lon="2.11141">
        <ele>154</ele>
        <time>2022-01-02T11:23:30+01:00</time>
      </trkpt>
      <trkpt lat="48.79315" lon="2.11128">
        <ele>155</ele>
        <time>2022-01-02T11:23:39+01:00</time>
      </trkpt>
      <trkpt lat="48.79315" lon="2.11114">
        <ele>156</ele>
        <time>2022-01-02T11:23:49+01:00</time>
      </trkpt>
      <trkpt lat="48.79322" lon="2.11105">
        <ele>157</ele>
        <time>2022-01-02T11:23:57+01:00</time>
      </trkpt>
      <trkpt lat="48.7933" lon="2.11095">
        <ele>159</ele>
        <time>2022-01-02T11:24:07+01:00</time>
      </trkpt>
      <trkpt lat="48.79337" lon="2.11086">
        <ele>157</ele>
        <time>2022-01-02T11:24:16+01:00</time>
      </trkpt>
      <trkpt lat="48.79344" lon="2.11076">
        <ele>157</ele>
        <time>2022-01-02T11:24:25+01:00</time>
      </trkpt>
      <trkpt lat="48.79351" lon="2.11067">
        <ele>157</ele>
        <time>2022-01-02T11:24:36+01:00</time>
      </trkpt>
      <trkpt lat="48.79357" lon="2.11055">
        <ele>158</ele>
        <time>2022-01-02T11:24:42+01:00</time>
      </trkpt>
      <trkpt lat="48.79359" lon="2.1104">
        <ele>158</ele>
        <time>2022-01-02T11:24:48+01:00</time>
      </trkpt>
      <trkpt lat="48.79361" lon="2.11027">
        <ele>157</ele>
        <time>2022-01-02T11:24:53+01:00</time>
      </trkpt>
      <trkpt lat="48.79358" lon="2.11011">
        <ele>160</ele>
        <time>2022-01-02T11:25:02+01:00</time>
      </trkpt>
      <trkpt lat="48.79351" lon="2.11">
        <ele>162</ele>
        <time>2022-01-02T11:25:11+01:00</time>
      </trkpt>
      <trkpt lat="48.79345" lon="2.10988">
        <ele>166</ele>
        <time>2022-01-02T11:25:19+01:00</time>
      </trkpt>
      <trkpt lat="48.79345" lon="2.10974">
        <ele>166</ele>
        <time>2022-01-02T11:25:30+01:00</time>
      </trkpt>
      <trkpt lat="48.79348" lon="2.1096">
        <ele>165</ele>
        <time>2022-01-02T11:25:39+01:00</time>
      </trkpt>
      <trkpt lat="48.79354" lon="2.10949">
        <ele>164</ele>
        <time>2022-01-02T11:25:49+01:00</time>
      </trkpt>
      <trkpt lat="48.79359" lon="2.10937">
        <ele>164</ele>
        <time>2022-01-02T11:25:59+01:00</time>
      </trkpt>
      <trkpt lat="48.79365" lon="2.10926">
        <ele>162</ele>
        <time>2022-01-02T11:26:08+01:00</time>
      </trkpt>
      <trkpt lat="48.79373" lon="2.10917">
        <ele>160</ele>
        <time>2022-01-02T11:26:17+01:00</time>
      </trkpt>
      <trkpt lat="48.79379" lon="2.10906">
        <ele>158</ele>
        <time>2022-01-02T11:26:27+01:00</time>
      </trkpt>
      <trkpt lat="48.79387" lon="2.10898">
        <ele>158</ele>
        <time>2022-01-02T11:26:34+01:00</time>
      </trkpt>
      <trkpt lat="48.79395" lon="2.10889">
        <ele>160</ele>
        <time>2022-01-02T11:26:42+01:00</time>
      </trkpt>
      <trkpt lat="48.79403" lon="2.10881">
        <ele>161</ele>
        <time>2022-01-02T11:26:50+01:00</time>
      </trkpt>
      <trkpt lat="48.7941" lon="2.10871">
        <ele>161</ele>
        <time>2022-01-02T11:26:57+01:00</time>
      </trkpt>
      <trkpt lat="48.79417" lon="2.10863">
        <ele>161</ele>
        <time>2022-01-02T11:27:04+01:00</time>
      </trkpt>
      <trkpt lat="48.79424" lon="2.10853">
        <ele>162</ele>
        <time>2022-01-02T11:27:13+01:00</time>
      </trkpt>
      <trkpt lat="48.79431" lon="2.10845">
        <ele>163</ele>
        <time>2022-01-02T11:27:20+01:00</time>
      </trkpt>
      <trkpt lat="48.7944" lon="2.10839">
        <ele>164</ele>
        <time>2022-01-02T11:27:28+01:00</time>
      </trkpt>
      <trkpt lat="48.79449" lon="2.10836">
        <ele>164</ele>
        <time>2022-01-02T11:27:36+01:00</time>
      </trkpt>
      <trkpt lat="48.79457" lon="2.10829">
        <ele>161</ele>
        <time>2022-01-02T11:27:43+01:00</time>
      </trkpt>
      <trkpt lat="48.79465" lon="2.10822">
        <ele>159</ele>
        <time>2022-01-02T11:27:51+01:00</time>
      </trkpt>
      <trkpt lat="48.79474" lon="2.1082">
        <ele>159</ele>
        <time>2022-01-02T11:28:01+01:00</time>
      </trkpt>
      <trkpt lat="48.79481" lon="2.1081">
        <ele>159</ele>
        <time>2022-01-02T11:28:09+01:00</time>
      </trkpt>
      <trkpt lat="48.79492" lon="2.10808">
        <ele>163</ele>
        <time>2022-01-02T11:30:39+01:00</time>
      </trkpt>
      <trkpt lat="48.7949" lon="2.10794">
        <ele>161</ele>
        <time>2022-01-02T11:30:48+01:00</time>
      </trkpt>
      <trkpt lat="48.7949" lon="2.1078">
        <ele>161</ele>
        <time>2022-01-02T11:32:31+01:00</time>
      </trkpt>
      <trkpt lat="48.79499" lon="2.10778">
        <ele>161</ele>
        <time>2022-01-02T11:32:52+01:00</time>
      </trkpt>
      <trkpt lat="48.79499" lon="2.10763">
        <ele>161</ele>
        <time>2022-01-02T11:33:03+01:00</time>
      </trkpt>
      <trkpt lat="48.79492" lon="2.10753">
        <ele>161</ele>
        <time>2022-01-02T11:33:12+01:00</time>
      </trkpt>
      <trkpt lat="48.79484" lon="2.10744">
        <ele>161</ele>
        <time>2022-01-02T11:33:21+01:00</time>
      </trkpt>
      <trkpt lat="48.79475" lon="2.10738">
        <ele>162</ele>
        <time>2022-01-02T11:33:32+01:00</time>
      </trkpt>
      <trkpt lat="48.79466" lon="2.10734">
        <ele>163</ele>
        <time>2022-01-02T11:33:42+01:00</time>
      </trkpt>
      <trkpt lat="48.79456" lon="2.10733">
        <ele>164</ele>
        <time>2022-01-02T11:33:50+01:00</time>
      </trkpt>
      <trkpt lat="48.79446" lon="2.10733">
        <ele>163</ele>
        <time>2022-01-02T11:33:57+01:00</time>
      </trkpt>
      <trkpt lat="48.79437" lon="2.10735">
        <ele>162</ele>
        <time>2022-01-02T11:34:04+01:00</time>
      </trkpt>
      <trkpt lat="48.79427" lon="2.10738">
        <ele>161</ele>
        <time>2022-01-02T11:34:11+01:00</time>
      </trkpt>
      <trkpt lat="48.79418" lon="2.10739">
        <ele>161</ele>
        <time>2022-01-02T11:34:17+01:00</time>
      </trkpt>
      <trkpt lat="48.79409" lon="2.10743">
        <ele>163</ele>
        <time>2022-01-02T11:34:27+01:00</time>
      </trkpt>
      <trkpt lat="48.794" lon="2.10748">
        <ele>163</ele>
        <time>2022-01-02T11:34:35+01:00</time>
      </trkpt>
      <trkpt lat="48.79391" lon="2.10749">
        <ele>164</ele>
        <time>2022-01-02T11:34:44+01:00</time>
      </trkpt>
      <trkpt lat="48.79383" lon="2.10739">
        <ele>165</ele>
        <time>2022-01-02T11:34:56+01:00</time>
      </trkpt>
      <trkpt lat="48.79375" lon="2.10732">
        <ele>167</ele>
        <time>2022-01-02T11:35:04+01:00</time>
      </trkpt>
      <trkpt lat="48.79368" lon="2.10722">
        <ele>168</ele>
        <time>2022-01-02T11:35:12+01:00</time>
      </trkpt>
      <trkpt lat="48.79361" lon="2.10713">
        <ele>167</ele>
        <time>2022-01-02T11:35:20+01:00</time>
      </trkpt>
      <trkpt lat="48.79354" lon="2.10702">
        <ele>165</ele>
        <time>2022-01-02T11:35:28+01:00</time>
      </trkpt>
      <trkpt lat="48.7935" lon="2.10689">
        <ele>165</ele>
        <time>2022-01-02T11:35:35+01:00</time>
      </trkpt>
      <trkpt lat="48.79349" lon="2.10675">
        <ele>164</ele>
        <time>2022-01-02T11:35:45+01:00</time>
      </trkpt>
      <trkpt lat="48.79356" lon="2.10665">
        <ele>162</ele>
        <time>2022-01-02T11:35:55+01:00</time>
      </trkpt>
      <trkpt lat="48.79362" lon="2.10653">
        <ele>160</ele>
        <time>2022-01-02T11:36:02+01:00</time>
      </trkpt>
      <trkpt lat="48.79359" lon="2.10638">
        <ele>160</ele>
        <time>2022-01-02T11:36:09+01:00</time>
      </trkpt>
      <trkpt lat="48.79354" lon="2.10626">
        <ele>163</ele>
        <time>2022-01-02T11:36:16+01:00</time>
      </trkpt>
      <trkpt lat="48.7935" lon="2.10614">
        <ele>162</ele>
        <time>2022-01-02T11:36:26+01:00</time>
      </trkpt>
      <trkpt lat="48.7935" lon="2.10599">
        <ele>159</ele>
        <time>2022-01-02T11:36:35+01:00</time>
      </trkpt>
      <trkpt lat="48.79353" lon="2.10585">
        <ele>154</ele>
        <time>2022-01-02T11:36:42+01:00</time>
      </trkpt>
      <trkpt lat="48.79362" lon="2.1058">
        <ele>153</ele>
        <time>2022-01-02T11:36:50+01:00</time>
      </trkpt>
      <trkpt lat="48.79369" lon="2.1057">
        <ele>156</ele>
        <time>2022-01-02T11:36:55+01:00</time>
      </trkpt>
      <trkpt lat="48.79374" lon="2.10559">
        <ele>158</ele>
        <time>2022-01-02T11:37:00+01:00</time>
      </trkpt>
      <trkpt lat="48.79379" lon="2.10548">
        <ele>158</ele>
        <time>2022-01-02T11:37:08+01:00</time>
      </trkpt>
      <trkpt lat="48.79388" lon="2.10543">
        <ele>160</ele>
        <time>2022-01-02T11:37:17+01:00</time>
      </trkpt>
      <trkpt lat="48.79397" lon="2.1054">
        <ele>162</ele>
        <time>2022-01-02T11:37:25+01:00</time>
      </trkpt>
      <trkpt lat="48.79406" lon="2.10539">
        <ele>164</ele>
        <time>2022-01-02T11:37:32+01:00</time>
      </trkpt>
      <trkpt lat="48.79415" lon="2.10537">
        <ele>166</ele>
        <time>2022-01-02T11:37:41+01:00</time>
      </trkpt>
      <trkpt lat="48.79424" lon="2.10533">
        <ele>165</ele>
        <time>2022-01-02T11:37:50+01:00</time>
      </trkpt>
      <trkpt lat="48.79434" lon="2.10531">
        <ele>163</ele>
        <time>2022-01-02T11:37:56+01:00</time>
      </trkpt>
      <trkpt lat="48.79441" lon="2.10522">
        <ele>159</ele>
        <time>2022-01-02T11:38:05+01:00</time>
      </trkpt>
      <trkpt lat="48.79448" lon="2.10512">
        <ele>157</ele>
        <time>2022-01-02T11:38:10+01:00</time>
      </trkpt>
      <trkpt lat="48.79452" lon="2.10498">
        <ele>155</ele>
        <time>2022-01-02T11:38:18+01:00</time>
      </trkpt>
      <trkpt lat="48.79456" lon="2.10486">
        <ele>155</ele>
        <time>2022-01-02T11:38:24+01:00</time>
      </trkpt>
      <trkpt lat="48.79459" lon="2.10472">
        <ele>153</ele>
        <time>2022-01-02T11:38:31+01:00</time>
      </trkpt>
      <trkpt lat="48.79465" lon="2.10461">
        <ele>150</ele>
        <time>2022-01-02T11:38:40+01:00</time>
      </trkpt>
      <trkpt lat="48.79469" lon="2.10448">
        <ele>150</ele>
        <time>2022-01-02T11:38:49+01:00</time>
      </trkpt>
      <trkpt lat="48.79472" lon="2.10433">
        <ele>149</ele>
        <time>2022-01-02T11:38:57+01:00</time>
      </trkpt>
      <trkpt lat="48.79477" lon="2.10422">
        <ele>147</ele>
        <time>2022-01-02T11:39:04+01:00</time>
      </trkpt>
      <trkpt lat="48.79484" lon="2.10411">
        <ele>144</ele>
        <time>2022-01-02T11:39:13+01:00</time>
      </trkpt>
      <trkpt lat="48.79492" lon="2.10404">
        <ele>140</ele>
        <time>2022-01-02T11:39:23+01:00</time>
      </trkpt>
      <trkpt lat="48.79499" lon="2.10393">
        <ele>137</ele>
        <time>2022-01-02T11:39:33+01:00</time>
      </trkpt>
      <trkpt lat="48.79504" lon="2.10381">
        <ele>136</ele>
        <time>2022-01-02T11:39:41+01:00</time>
      </trkpt>
      <trkpt lat="48.79506" lon="2.10367">
        <ele>133</ele>
        <time>2022-01-02T11:39:48+01:00</time>
      </trkpt>
      <trkpt lat="48.79509" lon="2.10353">
        <ele>130</ele>
        <time>2022-01-02T11:39:55+01:00</time>
      </trkpt>
      <trkpt lat="48.79511" lon="2.1034">
        <ele>127</ele>
        <time>2022-01-02T11:40:04+01:00</time>
      </trkpt>
      <trkpt lat="48.79515" lon="2.10326">
        <ele>127</ele>
        <time>2022-01-02T11:40:12+01:00</time>
      </trkpt>
      <trkpt lat="48.79516" lon="2.10311">
        <ele>128</ele>
        <time>2022-01-02T11:40:20+01:00</time>
      </trkpt>
      <trkpt lat="48.79514" lon="2.10296">
        <ele>130</ele>
        <time>2022-01-02T11:40:26+01:00</time>
      </trkpt>
      <trkpt lat="48.7951" lon="2.10282">
        <ele>134</ele>
        <time>2022-01-02T11:40:35+01:00</time>
      </trkpt>
      <trkpt lat="48.79501" lon="2.10276">
        <ele>135</ele>
        <time>2022-01-02T11:40:45+01:00</time>
      </trkpt>
      <trkpt lat="48.79492" lon="2.10272">
        <ele>137</ele>
        <time>2022-01-02T11:40:55+01:00</time>
      </trkpt>
      <trkpt lat="48.79483" lon="2.10267">
        <ele>137</ele>
        <time>2022-01-02T11:41:06+01:00</time>
      </trkpt>
      <trkpt lat="48.79476" lon="2.10258">
        <ele>138</ele>
        <time>2022-01-02T11:41:14+01:00</time>
      </trkpt>
      <trkpt lat="48.79468" lon="2.1025">
        <ele>138</ele>
        <time>2022-01-02T11:41:21+01:00</time>
      </trkpt>
      <trkpt lat="48.7946" lon="2.10242">
        <ele>139</ele>
        <time>2022-01-02T11:41:30+01:00</time>
      </trkpt>
      <trkpt lat="48.79452" lon="2.10235">
        <ele>138</ele>
        <time>2022-01-02T11:41:38+01:00</time>
      </trkpt>
      <trkpt lat="48.79446" lon="2.10224">
        <ele>139</ele>
        <time>2022-01-02T11:41:47+01:00</time>
      </trkpt>
      <trkpt lat="48.79442" lon="2.10211">
        <ele>143</ele>
        <time>2022-01-02T11:41:55+01:00</time>
      </trkpt>
      <trkpt lat="48.79442" lon="2.10196">
        <ele>145</ele>
        <time>2022-01-02T11:42:06+01:00</time>
      </trkpt>
      <trkpt lat="48.79442" lon="2.10181">
        <ele>146</ele>
        <time>2022-01-02T11:42:15+01:00</time>
      </trkpt>
      <trkpt lat="48.79443" lon="2.10167">
        <ele>146</ele>
        <time>2022-01-02T11:42:23+01:00</time>
      </trkpt>
      <trkpt lat="48.79442" lon="2.10152">
        <ele>144</ele>
        <time>2022-01-02T11:42:29+01:00</time>
      </trkpt>
      <trkpt lat="48.79442" lon="2.10138">
        <ele>138</ele>
        <time>2022-01-02T11:42:38+01:00</time>
      </trkpt>
      <trkpt lat="48.79442" lon="2.10124">
        <ele>136</ele>
        <time>2022-01-02T11:42:44+01:00</time>
      </trkpt>
      <trkpt lat="48.79443" lon="2.10108">
        <ele>133</ele>
        <time>2022-01-02T11:42:59+01:00</time>
      </trkpt>
      <trkpt lat="48.79442" lon="2.10094">
        <ele>135</ele>
        <time>2022-01-02T11:43:09+01:00</time>
      </trkpt>
      <trkpt lat="48.79446" lon="2.10081">
        <ele>140</ele>
        <time>2022-01-02T11:43:31+01:00</time>
      </trkpt>
      <trkpt lat="48.79449" lon="2.10067">
        <ele>144</ele>
        <time>2022-01-02T11:43:42+01:00</time>
      </trkpt>
      <trkpt lat="48.79452" lon="2.10054">
        <ele>146</ele>
        <time>2022-01-02T11:43:51+01:00</time>
      </trkpt>
      <trkpt lat="48.79458" lon="2.10043">
        <ele>150</ele>
        <time>2022-01-02T11:44:00+01:00</time>
      </trkpt>
      <trkpt lat="48.79463" lon="2.10031">
        <ele>154</ele>
        <time>2022-01-02T11:44:11+01:00</time>
      </trkpt>
      <trkpt lat="48.79468" lon="2.10018">
        <ele>155</ele>
        <time>2022-01-02T11:44:18+01:00</time>
      </trkpt>
      <trkpt lat="48.7947" lon="2.10005">
        <ele>156</ele>
        <time>2022-01-02T11:44:24+01:00</time>
      </trkpt>
      <trkpt lat="48.79476" lon="2.09995">
        <ele>157</ele>
        <time>2022-01-02T11:44:34+01:00</time>
      </trkpt>
      <trkpt lat="48.7948" lon="2.09982">
        <ele>160</ele>
        <time>2022-01-02T11:44:42+01:00</time>
      </trkpt>
      <trkpt lat="48.79486" lon="2.09971">
        <ele>162</ele>
        <time>2022-01-02T11:44:51+01:00</time>
      </trkpt>
      <trkpt lat="48.7949" lon="2.09957">
        <ele>161</ele>
        <time>2022-01-02T11:44:58+01:00</time>
      </trkpt>
      <trkpt lat="48.79492" lon="2.09943">
        <ele>161</ele>
        <time>2022-01-02T11:45:06+01:00</time>
      </trkpt>
      <trkpt lat="48.79491" lon="2.09929">
        <ele>162</ele>
        <time>2022-01-02T11:45:19+01:00</time>
      </trkpt>
      <trkpt lat="48.79487" lon="2.09916">
        <ele>164</ele>
        <time>2022-01-02T11:46:37+01:00</time>
      </trkpt>
      <trkpt lat="48.79489" lon="2.09902">
        <ele>163</ele>
        <time>2022-01-02T11:46:49+01:00</time>
      </trkpt>
      <trkpt lat="48.79489" lon="2.09887">
        <ele>162</ele>
        <time>2022-01-02T11:47:09+01:00</time>
      </trkpt>
      <trkpt lat="48.79489" lon="2.09873">
        <ele>163</ele>
        <time>2022-01-02T11:47:17+01:00</time>
      </trkpt>
      <trkpt lat="48.79486" lon="2.0986">
        <ele>163</ele>
        <time>2022-01-02T11:47:25+01:00</time>
      </trkpt>
      <trkpt lat="48.79483" lon="2.09845">
        <ele>164</ele>
        <time>2022-01-02T11:47:35+01:00</time>
      </trkpt>
      <trkpt lat="48.79481" lon="2.0983">
        <ele>163</ele>
        <time>2022-01-02T11:47:42+01:00</time>
      </trkpt>
      <trkpt lat="48.7948" lon="2.09817">
        <ele>163</ele>
        <time>2022-01-02T11:47:49+01:00</time>
      </trkpt>
      <trkpt lat="48.79479" lon="2.09802">
        <ele>163</ele>
        <time>2022-01-02T11:47:58+01:00</time>
      </trkpt>
      <trkpt lat="48.79478" lon="2.09789">
        <ele>162</ele>
        <time>2022-01-02T11:48:05+01:00</time>
      </trkpt>
      <trkpt lat="48.79477" lon="2.09774">
        <ele>161</ele>
        <time>2022-01-02T11:48:15+01:00</time>
      </trkpt>
      <trkpt lat="48.79476" lon="2.09759">
        <ele>162</ele>
        <time>2022-01-02T11:48:24+01:00</time>
      </trkpt>
      <trkpt lat="48.79475" lon="2.09745">
        <ele>162</ele>
        <time>2022-01-02T11:48:31+01:00</time>
      </trkpt>
      <trkpt lat="48.79471" lon="2.0973">
        <ele>161</ele>
        <time>2022-01-02T11:48:38+01:00</time>
      </trkpt>
      <trkpt lat="48.79465" lon="2.09719">
        <ele>160</ele>
        <time>2022-01-02T11:48:46+01:00</time>
      </trkpt>
      <trkpt lat="48.79458" lon="2.09707">
        <ele>158</ele>
        <time>2022-01-02T11:48:54+01:00</time>
      </trkpt>
      <trkpt lat="48.79451" lon="2.09698">
        <ele>158</ele>
        <time>2022-01-02T11:49:01+01:00</time>
      </trkpt>
      <trkpt lat="48.79445" lon="2.09688">
        <ele>159</ele>
        <time>2022-01-02T11:49:09+01:00</time>
      </trkpt>
      <trkpt lat="48.79437" lon="2.09681">
        <ele>159</ele>
        <time>2022-01-02T11:49:19+01:00</time>
      </trkpt>
      <trkpt lat="48.79427" lon="2.09678">
        <ele>160</ele>
        <time>2022-01-02T11:49:27+01:00</time>
      </trkpt>
      <trkpt lat="48.79419" lon="2.0967">
        <ele>164</ele>
        <time>2022-01-02T11:49:36+01:00</time>
      </trkpt>
      <trkpt lat="48.79418" lon="2.09655">
        <ele>167</ele>
        <time>2022-01-02T11:49:46+01:00</time>
      </trkpt>
      <trkpt lat="48.79417" lon="2.09641">
        <ele>168</ele>
        <time>2022-01-02T11:49:55+01:00</time>
      </trkpt>
      <trkpt lat="48.79417" lon="2.09627">
        <ele>170</ele>
        <time>2022-01-02T11:50:04+01:00</time>
      </trkpt>
      <trkpt lat="48.79415" lon="2.09612">
        <ele>172</ele>
        <time>2022-01-02T11:50:12+01:00</time>
      </trkpt>
      <trkpt lat="48.79412" lon="2.09599">
        <ele>172</ele>
        <time>2022-01-02T11:50:18+01:00</time>
      </trkpt>
      <trkpt lat="48.79411" lon="2.09585">
        <ele>171</ele>
        <time>2022-01-02T11:50:26+01:00</time>
      </trkpt>
      <trkpt lat="48.79411" lon="2.09571">
        <ele>171</ele>
        <time>2022-01-02T11:50:36+01:00</time>
      </trkpt>
      <trkpt lat="48.7941" lon="2.09556">
        <ele>170</ele>
        <time>2022-01-02T11:50:44+01:00</time>
      </trkpt>
      <trkpt lat="48.7941" lon="2.09541">
        <ele>170</ele>
        <time>2022-01-02T11:50:51+01:00</time>
      </trkpt>
      <trkpt lat="48.79412" lon="2.09526">
        <ele>170</ele>
        <time>2022-01-02T11:51:00+01:00</time>
      </trkpt>
      <trkpt lat="48.79412" lon="2.09512">
        <ele>170</ele>
        <time>2022-01-02T11:51:07+01:00</time>
      </trkpt>
      <trkpt lat="48.7941" lon="2.09498">
        <ele>167</ele>
        <time>2022-01-02T11:51:14+01:00</time>
      </trkpt>
      <trkpt lat="48.79407" lon="2.09484">
        <ele>166</ele>
        <time>2022-01-02T11:51:23+01:00</time>
      </trkpt>
      <trkpt lat="48.79405" lon="2.09469">
        <ele>166</ele>
        <time>2022-01-02T11:51:32+01:00</time>
      </trkpt>
      <trkpt lat="48.794" lon="2.09457">
        <ele>168</ele>
        <time>2022-01-02T11:51:40+01:00</time>
      </trkpt>
      <trkpt lat="48.79395" lon="2.09445">
        <ele>169</ele>
        <time>2022-01-02T11:51:46+01:00</time>
      </trkpt>
      <trkpt lat="48.79391" lon="2.09432">
        <ele>170</ele>
        <time>2022-01-02T11:51:55+01:00</time>
      </trkpt>
      <trkpt lat="48.79387" lon="2.0942">
        <ele>172</ele>
        <time>2022-01-02T11:52:03+01:00</time>
      </trkpt>
      <trkpt lat="48.79382" lon="2.09408">
        <ele>173</ele>
        <time>2022-01-02T11:52:10+01:00</time>
      </trkpt>
      <trkpt lat="48.79379" lon="2.09393">
        <ele>175</ele>
        <time>2022-01-02T11:52:19+01:00</time>
      </trkpt>
      <trkpt lat="48.79376" lon="2.0938">
        <ele>176</ele>
        <time>2022-01-02T11:52:27+01:00</time>
      </trkpt>
      <trkpt lat="48.79375" lon="2.09366">
        <ele>175</ele>
        <time>2022-01-02T11:52:33+01:00</time>
      </trkpt>
      <trkpt lat="48.79374" lon="2.09351">
        <ele>176</ele>
        <time>2022-01-02T11:52:41+01:00</time>
      </trkpt>
      <trkpt lat="48.79374" lon="2.09336">
        <ele>175</ele>
        <time>2022-01-02T11:52:49+01:00</time>
      </trkpt>
      <trkpt lat="48.79372" lon="2.09322">
        <ele>174</ele>
        <time>2022-01-02T11:52:57+01:00</time>
      </trkpt>
      <trkpt lat="48.79371" lon="2.09308">
        <ele>174</ele>
        <time>2022-01-02T11:53:04+01:00</time>
      </trkpt>
      <trkpt lat="48.79372" lon="2.09294">
        <ele>173</ele>
        <time>2022-01-02T11:53:11+01:00</time>
      </trkpt>
      <trkpt lat="48.79373" lon="2.09278">
        <ele>173</ele>
        <time>2022-01-02T11:53:19+01:00</time>
      </trkpt>
      <trkpt lat="48.79372" lon="2.09263">
        <ele>174</ele>
        <time>2022-01-02T11:53:27+01:00</time>
      </trkpt>
      <trkpt lat="48.79371" lon="2.09249">
        <ele>175</ele>
        <time>2022-01-02T11:53:32+01:00</time>
      </trkpt>
      <trkpt lat="48.79369" lon="2.09235">
        <ele>175</ele>
        <time>2022-01-02T11:53:38+01:00</time>
      </trkpt>
      <trkpt lat="48.79369" lon="2.09221">
        <ele>173</ele>
        <time>2022-01-02T11:53:47+01:00</time>
      </trkpt>
      <trkpt lat="48.79368" lon="2.09207">
        <ele>171</ele>
        <time>2022-01-02T11:53:56+01:00</time>
      </trkpt>
      <trkpt lat="48.79365" lon="2.09193">
        <ele>167</ele>
        <time>2022-01-02T11:54:04+01:00</time>
      </trkpt>
      <trkpt lat="48.79364" lon="2.09179">
        <ele>165</ele>
        <time>2022-01-02T11:54:11+01:00</time>
      </trkpt>
      <trkpt lat="48.79365" lon="2.09164">
        <ele>165</ele>
        <time>2022-01-02T11:54:17+01:00</time>
      </trkpt>
      <trkpt lat="48.79372" lon="2.09152">
        <ele>166</ele>
        <time>2022-01-02T11:54:21+01:00</time>
      </trkpt>
      <trkpt lat="48.79375" lon="2.09139">
        <ele>169</ele>
        <time>2022-01-02T11:54:27+01:00</time>
      </trkpt>
      <trkpt lat="48.79375" lon="2.09124">
        <ele>169</ele>
        <time>2022-01-02T11:54:37+01:00</time>
      </trkpt>
      <trkpt lat="48.79375" lon="2.0911">
        <ele>170</ele>
        <time>2022-01-02T11:54:48+01:00</time>
      </trkpt>
      <trkpt lat="48.79376" lon="2.09096">
        <ele>172</ele>
        <time>2022-01-02T11:54:54+01:00</time>
      </trkpt>
      <trkpt lat="48.79377" lon="2.09082">
        <ele>174</ele>
        <time>2022-01-02T11:55:01+01:00</time>
      </trkpt>
      <trkpt lat="48.79378" lon="2.09068">
        <ele>174</ele>
        <time>2022-01-02T11:55:08+01:00</time>
      </trkpt>
      <trkpt lat="48.79378" lon="2.09054">
        <ele>174</ele>
        <time>2022-01-02T11:55:15+01:00</time>
      </trkpt>
      <trkpt lat="48.79376" lon="2.0904">
        <ele>174</ele>
        <time>2022-01-02T11:55:21+01:00</time>
      </trkpt>
      <trkpt lat="48.7937" lon="2.09028">
        <ele>173</ele>
        <time>2022-01-02T11:55:27+01:00</time>
      </trkpt>
      <trkpt lat="48.79366" lon="2.09014">
        <ele>171</ele>
        <time>2022-01-02T11:55:36+01:00</time>
      </trkpt>
      <trkpt lat="48.7936" lon="2.09001">
        <ele>169</ele>
        <time>2022-01-02T11:55:44+01:00</time>
      </trkpt>
      <trkpt lat="48.79353" lon="2.08989">
        <ele>166</ele>
        <time>2022-01-02T11:55:51+01:00</time>
      </trkpt>
      <trkpt lat="48.79346" lon="2.0898">
        <ele>167</ele>
        <time>2022-01-02T11:56:00+01:00</time>
      </trkpt>
      <trkpt lat="48.79337" lon="2.08973">
        <ele>168</ele>
        <time>2022-01-02T11:56:05+01:00</time>
      </trkpt>
      <trkpt lat="48.79328" lon="2.08968">
        <ele>167</ele>
        <time>2022-01-02T11:56:10+01:00</time>
      </trkpt>
      <trkpt lat="48.7932" lon="2.08965">
        <ele>167</ele>
        <time>2022-01-02T11:56:17+01:00</time>
      </trkpt>
      <trkpt lat="48.79315" lon="2.08952">
        <ele>162</ele>
        <time>2022-01-02T11:56:48+01:00</time>
      </trkpt>
      <trkpt lat="48.79319" lon="2.08939">
        <ele>162</ele>
        <time>2022-01-02T11:57:03+01:00</time>
      </trkpt>
      <trkpt lat="48.79323" lon="2.08924">
        <ele>163</ele>
        <time>2022-01-02T11:57:10+01:00</time>
      </trkpt>
      <trkpt lat="48.79326" lon="2.0891">
        <ele>161</ele>
        <time>2022-01-02T11:57:17+01:00</time>
      </trkpt>
      <trkpt lat="48.79328" lon="2.08896">
        <ele>161</ele>
        <time>2022-01-02T11:57:24+01:00</time>
      </trkpt>
      <trkpt lat="48.79331" lon="2.08882">
        <ele>163</ele>
        <time>2022-01-02T11:57:33+01:00</time>
      </trkpt>
      <trkpt lat="48.79333" lon="2.08867">
        <ele>166</ele>
        <time>2022-01-02T11:57:41+01:00</time>
      </trkpt>
      <trkpt lat="48.79332" lon="2.08853">
        <ele>166</ele>
        <time>2022-01-02T11:57:51+01:00</time>
      </trkpt>
      <trkpt lat="48.79336" lon="2.08839">
        <ele>164</ele>
        <time>2022-01-02T11:58:04+01:00</time>
      </trkpt>
      <trkpt lat="48.79336" lon="2.08825">
        <ele>164</ele>
        <time>2022-01-02T11:58:11+01:00</time>
      </trkpt>
      <trkpt lat="48.79338" lon="2.08811">
        <ele>165</ele>
        <time>2022-01-02T11:58:30+01:00</time>
      </trkpt>
      <trkpt lat="48.79338" lon="2.08797">
        <ele>163</ele>
        <time>2022-01-02T11:58:43+01:00</time>
      </trkpt>
      <trkpt lat="48.79337" lon="2.08782">
        <ele>166</ele>
        <time>2022-01-02T11:58:55+01:00</time>
      </trkpt>
      <trkpt lat="48.79339" lon="2.08768">
        <ele>166</ele>
        <time>2022-01-02T11:59:03+01:00</time>
      </trkpt>
      <trkpt lat="48.79337" lon="2.08754">
        <ele>165</ele>
        <time>2022-01-02T11:59:11+01:00</time>
      </trkpt>
      <trkpt lat="48.79328" lon="2.08748">
        <ele>165</ele>
        <time>2022-01-02T11:59:19+01:00</time>
      </trkpt>
      <trkpt lat="48.79337" lon="2.08747">
        <ele>160</ele>
        <time>2022-01-02T12:00:14+01:00</time>
      </trkpt>
      <trkpt lat="48.79343" lon="2.08737">
        <ele>160</ele>
        <time>2022-01-02T12:00:20+01:00</time>
      </trkpt>
      <trkpt lat="48.79351" lon="2.08725">
        <ele>160</ele>
        <time>2022-01-02T12:00:25+01:00</time>
      </trkpt>
      <trkpt lat="48.79358" lon="2.08715">
        <ele>159</ele>
        <time>2022-01-02T12:00:29+01:00</time>
      </trkpt>
      <trkpt lat="48.79365" lon="2.08705">
        <ele>160</ele>
        <time>2022-01-02T12:00:34+01:00</time>
      </trkpt>
      <trkpt lat="48.79371" lon="2.08693">
        <ele>159</ele>
        <time>2022-01-02T12:00:39+01:00</time>
      </trkpt>
      <trkpt lat="48.79376" lon="2.0868">
        <ele>158</ele>
        <time>2022-01-02T12:00:46+01:00</time>
      </trkpt>
      <trkpt lat="48.79383" lon="2.08667">
        <ele>157</ele>
        <time>2022-01-02T12:00:51+01:00</time>
      </trkpt>
      <trkpt lat="48.79387" lon="2.08651">
        <ele>156</ele>
        <time>2022-01-02T12:00:56+01:00</time>
      </trkpt>
      <trkpt lat="48.79391" lon="2.08639">
        <ele>154</ele>
        <time>2022-01-02T12:01:02+01:00</time>
      </trkpt>
      <trkpt lat="48.79399" lon="2.08631">
        <ele>152</ele>
        <time>2022-01-02T12:01:10+01:00</time>
      </trkpt>
      <trkpt lat="48.79409" lon="2.08629">
        <ele>149</ele>
        <time>2022-01-02T12:01:17+01:00</time>
      </trkpt>
      <trkpt lat="48.79419" lon="2.08625">
        <ele>148</ele>
        <time>2022-01-02T12:01:23+01:00</time>
      </trkpt>
      <trkpt lat="48.79429" lon="2.08617">
        <ele>148</ele>
        <time>2022-01-02T12:01:30+01:00</time>
      </trkpt>
      <trkpt lat="48.79439" lon="2.08612">
        <ele>147</ele>
        <time>2022-01-02T12:01:35+01:00</time>
      </trkpt>
      <trkpt lat="48.79446" lon="2.08602">
        <ele>147</ele>
        <time>2022-01-02T12:01:43+01:00</time>
      </trkpt>
      <trkpt lat="48.79455" lon="2.08595">
        <ele>147</ele>
        <time>2022-01-02T12:01:49+01:00</time>
      </trkpt>
      <trkpt lat="48.79465" lon="2.08589">
        <ele>148</ele>
        <time>2022-01-02T12:01:57+01:00</time>
      </trkpt>
      <trkpt lat="48.79474" lon="2.08583">
        <ele>151</ele>
        <time>2022-01-02T12:02:04+01:00</time>
      </trkpt>
      <trkpt lat="48.79484" lon="2.08575">
        <ele>155</ele>
        <time>2022-01-02T12:02:09+01:00</time>
      </trkpt>
      <trkpt lat="48.7949" lon="2.08562">
        <ele>157</ele>
        <time>2022-01-02T12:02:14+01:00</time>
      </trkpt>
      <trkpt lat="48.79495" lon="2.08549">
        <ele>158</ele>
        <time>2022-01-02T12:02:20+01:00</time>
      </trkpt>
      <trkpt lat="48.79499" lon="2.08537">
        <ele>161</ele>
        <time>2022-01-02T12:02:25+01:00</time>
      </trkpt>
      <trkpt lat="48.79503" lon="2.08522">
        <ele>162</ele>
        <time>2022-01-02T12:02:31+01:00</time>
      </trkpt>
      <trkpt lat="48.79507" lon="2.08509">
        <ele>163</ele>
        <time>2022-01-02T12:02:37+01:00</time>
      </trkpt>
      <trkpt lat="48.79512" lon="2.08497">
        <ele>163</ele>
        <time>2022-01-02T12:02:43+01:00</time>
      </trkpt>
      <trkpt lat="48.79517" lon="2.08484">
        <ele>163</ele>
        <time>2022-01-02T12:02:50+01:00</time>
      </trkpt>
      <trkpt lat="48.7952" lon="2.08469">
        <ele>162</ele>
        <time>2022-01-02T12:02:58+01:00</time>
      </trkpt>
      <trkpt lat="48.79524" lon="2.08456">
        <ele>163</ele>
        <time>2022-01-02T12:03:04+01:00</time>
      </trkpt>
      <trkpt lat="48.79527" lon="2.08443">
        <ele>166</ele>
        <time>2022-01-02T12:03:11+01:00</time>
      </trkpt>
      <trkpt lat="48.7953" lon="2.08429">
        <ele>169</ele>
        <time>2022-01-02T12:03:16+01:00</time>
      </trkpt>
      <trkpt lat="48.79533" lon="2.08415">
        <ele>172</ele>
        <time>2022-01-02T12:03:22+01:00</time>
      </trkpt>
      <trkpt lat="48.79535" lon="2.084">
        <ele>173</ele>
        <time>2022-01-02T12:03:27+01:00</time>
      </trkpt>
      <trkpt lat="48.79536" lon="2.08384">
        <ele>174</ele>
        <time>2022-01-02T12:03:33+01:00</time>
      </trkpt>
      <trkpt lat="48.79537" lon="2.08369">
        <ele>174</ele>
        <time>2022-01-02T12:03:39+01:00</time>
      </trkpt>
      <trkpt lat="48.79538" lon="2.08356">
        <ele>176</ele>
        <time>2022-01-02T12:03:45+01:00</time>
      </trkpt>
      <trkpt lat="48.79539" lon="2.0834">
        <ele>176</ele>
        <time>2022-01-02T12:03:53+01:00</time>
      </trkpt>
      <trkpt lat="48.79539" lon="2.08325">
        <ele>176</ele>
        <time>2022-01-02T12:04:00+01:00</time>
      </trkpt>
      <trkpt lat="48.7954" lon="2.0831">
        <ele>174</ele>
        <time>2022-01-02T12:04:07+01:00</time>
      </trkpt>
      <trkpt lat="48.79539" lon="2.08295">
        <ele>170</ele>
        <time>2022-01-02T12:04:17+01:00</time>
      </trkpt>
      <trkpt lat="48.7954" lon="2.08281">
        <ele>170</ele>
        <time>2022-01-02T12:04:24+01:00</time>
      </trkpt>
      <trkpt lat="48.79536" lon="2.08267">
        <ele>169</ele>
        <time>2022-01-02T12:04:31+01:00</time>
      </trkpt>
      <trkpt lat="48.79527" lon="2.08262">
        <ele>167</ele>
        <time>2022-01-02T12:04:37+01:00</time>
      </trkpt>
      <trkpt lat="48.79519" lon="2.08252">
        <ele>168</ele>
        <time>2022-01-02T12:04:46+01:00</time>
      </trkpt>
      <trkpt lat="48.7951" lon="2.08245">
        <ele>165</ele>
        <time>2022-01-02T12:04:56+01:00</time>
      </trkpt>
      <trkpt lat="48.79501" lon="2.08244">
        <ele>166</ele>
        <time>2022-01-02T12:05:01+01:00</time>
      </trkpt>
      <trkpt lat="48.79492" lon="2.0824">
        <ele>167</ele>
        <time>2022-01-02T12:05:09+01:00</time>
      </trkpt>
      <trkpt lat="48.79487" lon="2.08228">
        <ele>169</ele>
        <time>2022-01-02T12:05:16+01:00</time>
      </trkpt>
      <trkpt lat="48.79478" lon="2.0822">
        <ele>170</ele>
        <time>2022-01-02T12:05:23+01:00</time>
      </trkpt>
      <trkpt lat="48.7947" lon="2.08213">
        <ele>169</ele>
        <time>2022-01-02T12:05:31+01:00</time>
      </trkpt>
      <trkpt lat="48.79465" lon="2.082">
        <ele>169</ele>
        <time>2022-01-02T12:05:41+01:00</time>
      </trkpt>
      <trkpt lat="48.79467" lon="2.08186">
        <ele>169</ele>
        <time>2022-01-02T12:05:54+01:00</time>
      </trkpt>
      <trkpt lat="48.7947" lon="2.08171">
        <ele>171</ele>
        <time>2022-01-02T12:06:03+01:00</time>
      </trkpt>
      <trkpt lat="48.79474" lon="2.08156">
        <ele>170</ele>
        <time>2022-01-02T12:06:10+01:00</time>
      </trkpt>
      <trkpt lat="48.79477" lon="2.08143">
        <ele>172</ele>
        <time>2022-01-02T12:06:18+01:00</time>
      </trkpt>
      <trkpt lat="48.79479" lon="2.08129">
        <ele>174</ele>
        <time>2022-01-02T12:06:26+01:00</time>
      </trkpt>
      <trkpt lat="48.79483" lon="2.08116">
        <ele>175</ele>
        <time>2022-01-02T12:06:32+01:00</time>
      </trkpt>
      <trkpt lat="48.79487" lon="2.08103">
        <ele>175</ele>
        <time>2022-01-02T12:06:41+01:00</time>
      </trkpt>
      <trkpt lat="48.7949" lon="2.0809">
        <ele>175</ele>
        <time>2022-01-02T12:06:48+01:00</time>
      </trkpt>
      <trkpt lat="48.7949" lon="2.08073">
        <ele>173</ele>
        <time>2022-01-02T12:06:56+01:00</time>
      </trkpt>
      <trkpt lat="48.79494" lon="2.08059">
        <ele>172</ele>
        <time>2022-01-02T12:07:02+01:00</time>
      </trkpt>
      <trkpt lat="48.79497" lon="2.08045">
        <ele>173</ele>
        <time>2022-01-02T12:07:10+01:00</time>
      </trkpt>
      <trkpt lat="48.79497" lon="2.0803">
        <ele>175</ele>
        <time>2022-01-02T12:07:16+01:00</time>
      </trkpt>
      <trkpt lat="48.79499" lon="2.08015">
        <ele>178</ele>
        <time>2022-01-02T12:07:25+01:00</time>
      </trkpt>
      <trkpt lat="48.79504" lon="2.08003">
        <ele>177</ele>
        <time>2022-01-02T12:07:31+01:00</time>
      </trkpt>
      <trkpt lat="48.79505" lon="2.07988">
        <ele>175</ele>
        <time>2022-01-02T12:07:40+01:00</time>
      </trkpt>
      <trkpt lat="48.79507" lon="2.07974">
        <ele>173</ele>
        <time>2022-01-02T12:07:51+01:00</time>
      </trkpt>
      <trkpt lat="48.79509" lon="2.0796">
        <ele>173</ele>
        <time>2022-01-02T12:07:58+01:00</time>
      </trkpt>
      <trkpt lat="48.79513" lon="2.07948">
        <ele>172</ele>
        <time>2022-01-02T12:08:06+01:00</time>
      </trkpt>
      <trkpt lat="48.79517" lon="2.07935">
        <ele>171</ele>
        <time>2022-01-02T12:08:16+01:00</time>
      </trkpt>
      <trkpt lat="48.79519" lon="2.0792">
        <ele>171</ele>
        <time>2022-01-02T12:08:23+01:00</time>
      </trkpt>
      <trkpt lat="48.79519" lon="2.07906">
        <ele>171</ele>
        <time>2022-01-02T12:08:30+01:00</time>
      </trkpt>
      <trkpt lat="48.7952" lon="2.07891">
        <ele>170</ele>
        <time>2022-01-02T12:08:39+01:00</time>
      </trkpt>
      <trkpt lat="48.79524" lon="2.07877">
        <ele>168</ele>
        <time>2022-01-02T12:08:49+01:00</time>
      </trkpt>
      <trkpt lat="48.79528" lon="2.07865">
        <ele>169</ele>
        <time>2022-01-02T12:08:57+01:00</time>
      </trkpt>
      <trkpt lat="48.7953" lon="2.0785">
        <ele>170</ele>
        <time>2022-01-02T12:09:05+01:00</time>
      </trkpt>
      <trkpt lat="48.79531" lon="2.07837">
        <ele>171</ele>
        <time>2022-01-02T12:09:12+01:00</time>
      </trkpt>
      <trkpt lat="48.79534" lon="2.07822">
        <ele>171</ele>
        <time>2022-01-02T12:09:19+01:00</time>
      </trkpt>
      <trkpt lat="48.79538" lon="2.07808">
        <ele>172</ele>
        <time>2022-01-02T12:09:29+01:00</time>
      </trkpt>
      <trkpt lat="48.79539" lon="2.07793">
        <ele>173</ele>
        <time>2022-01-02T12:09:36+01:00</time>
      </trkpt>
      <trkpt lat="48.79542" lon="2.07779">
        <ele>174</ele>
        <time>2022-01-02T12:09:42+01:00</time>
      </trkpt>
      <trkpt lat="48.79543" lon="2.07764">
        <ele>176</ele>
        <time>2022-01-02T12:09:51+01:00</time>
      </trkpt>
      <trkpt lat="48.79547" lon="2.0775">
        <ele>177</ele>
        <time>2022-01-02T12:09:58+01:00</time>
      </trkpt>
      <trkpt lat="48.79549" lon="2.07736">
        <ele>176</ele>
        <time>2022-01-02T12:10:06+01:00</time>
      </trkpt>
      <trkpt lat="48.79552" lon="2.07722">
        <ele>176</ele>
        <time>2022-01-02T12:10:12+01:00</time>
      </trkpt>
      <trkpt lat="48.79553" lon="2.07707">
        <ele>174</ele>
        <time>2022-01-02T12:10:22+01:00</time>
      </trkpt>
      <trkpt lat="48.79554" lon="2.07693">
        <ele>173</ele>
        <time>2022-01-02T12:10:28+01:00</time>
      </trkpt>
      <trkpt lat="48.79556" lon="2.07679">
        <ele>172</ele>
        <time>2022-01-02T12:10:35+01:00</time>
      </trkpt>
      <trkpt lat="48.79557" lon="2.07665">
        <ele>172</ele>
        <time>2022-01-02T12:10:44+01:00</time>
      </trkpt>
      <trkpt lat="48.79559" lon="2.07651">
        <ele>173</ele>
        <time>2022-01-02T12:10:51+01:00</time>
      </trkpt>
      <trkpt lat="48.79562" lon="2.07637">
        <ele>173</ele>
        <time>2022-01-02T12:10:58+01:00</time>
      </trkpt>
      <trkpt lat="48.79565" lon="2.07623">
        <ele>172</ele>
        <time>2022-01-02T12:11:07+01:00</time>
      </trkpt>
      <trkpt lat="48.79569" lon="2.0761">
        <ele>171</ele>
        <time>2022-01-02T12:11:15+01:00</time>
      </trkpt>
      <trkpt lat="48.79572" lon="2.07597">
        <ele>171</ele>
        <time>2022-01-02T12:11:21+01:00</time>
      </trkpt>
      <trkpt lat="48.79573" lon="2.07583">
        <ele>172</ele>
        <time>2022-01-02T12:11:28+01:00</time>
      </trkpt>
      <trkpt lat="48.79573" lon="2.07567">
        <ele>175</ele>
        <time>2022-01-02T12:11:36+01:00</time>
      </trkpt>
      <trkpt lat="48.79577" lon="2.07553">
        <ele>177</ele>
        <time>2022-01-02T12:11:42+01:00</time>
      </trkpt>
      <trkpt lat="48.79579" lon="2.07538">
        <ele>179</ele>
        <time>2022-01-02T12:11:50+01:00</time>
      </trkpt>
      <trkpt lat="48.79583" lon="2.07526">
        <ele>181</ele>
        <time>2022-01-02T12:11:56+01:00</time>
      </trkpt>
      <trkpt lat="48.79586" lon="2.07512">
        <ele>182</ele>
        <time>2022-01-02T12:12:04+01:00</time>
      </trkpt>
      <trkpt lat="48.79589" lon="2.07498">
        <ele>182</ele>
        <time>2022-01-02T12:12:11+01:00</time>
      </trkpt>
      <trkpt lat="48.79591" lon="2.07484">
        <ele>181</ele>
        <time>2022-01-02T12:12:19+01:00</time>
      </trkpt>
      <trkpt lat="48.79594" lon="2.0747">
        <ele>180</ele>
        <time>2022-01-02T12:12:26+01:00</time>
      </trkpt>
      <trkpt lat="48.79596" lon="2.07455">
        <ele>178</ele>
        <time>2022-01-02T12:12:33+01:00</time>
      </trkpt>
      <trkpt lat="48.79592" lon="2.07441">
        <ele>176</ele>
        <time>2022-01-02T12:12:42+01:00</time>
      </trkpt>
      <trkpt lat="48.79583" lon="2.07434">
        <ele>176</ele>
        <time>2022-01-02T12:12:47+01:00</time>
      </trkpt>
      <trkpt lat="48.79574" lon="2.07426">
        <ele>175</ele>
        <time>2022-01-02T12:12:53+01:00</time>
      </trkpt>
      <trkpt lat="48.79565" lon="2.0742">
        <ele>172</ele>
        <time>2022-01-02T12:13:02+01:00</time>
      </trkpt>
      <trkpt lat="48.79555" lon="2.07414">
        <ele>171</ele>
        <time>2022-01-02T12:13:08+01:00</time>
      </trkpt>
      <trkpt lat="48.79548" lon="2.07406">
        <ele>169</ele>
        <time>2022-01-02T12:13:15+01:00</time>
      </trkpt>
      <trkpt lat="48.79539" lon="2.07401">
        <ele>167</ele>
        <time>2022-01-02T12:13:23+01:00</time>
      </trkpt>
      <trkpt lat="48.79531" lon="2.07396">
        <ele>166</ele>
        <time>2022-01-02T12:13:28+01:00</time>
      </trkpt>
      <trkpt lat="48.79523" lon="2.07388">
        <ele>165</ele>
        <time>2022-01-02T12:13:35+01:00</time>
      </trkpt>
      <trkpt lat="48.79514" lon="2.07382">
        <ele>162</ele>
        <time>2022-01-02T12:13:44+01:00</time>
      </trkpt>
      <trkpt lat="48.79504" lon="2.07375">
        <ele>160</ele>
        <time>2022-01-02T12:13:51+01:00</time>
      </trkpt>
      <trkpt lat="48.79496" lon="2.0737">
        <ele>159</ele>
        <time>2022-01-02T12:13:58+01:00</time>
      </trkpt>
      <trkpt lat="48.79486" lon="2.07365">
        <ele>157</ele>
        <time>2022-01-02T12:14:07+01:00</time>
      </trkpt>
      <trkpt lat="48.79477" lon="2.0736">
        <ele>156</ele>
        <time>2022-01-02T12:14:15+01:00</time>
      </trkpt>
      <trkpt lat="48.79467" lon="2.07353">
        <ele>156</ele>
        <time>2022-01-02T12:14:24+01:00</time>
      </trkpt>
      <trkpt lat="48.79459" lon="2.07344">
        <ele>156</ele>
        <time>2022-01-02T12:14:31+01:00</time>
      </trkpt>
      <trkpt lat="48.7945" lon="2.07338">
        <ele>155</ele>
        <time>2022-01-02T12:14:39+01:00</time>
      </trkpt>
      <trkpt lat="48.79441" lon="2.07332">
        <ele>155</ele>
        <time>2022-01-02T12:14:45+01:00</time>
      </trkpt>
      <trkpt lat="48.79433" lon="2.07325">
        <ele>156</ele>
        <time>2022-01-02T12:14:54+01:00</time>
      </trkpt>
      <trkpt lat="48.79425" lon="2.07317">
        <ele>159</ele>
        <time>2022-01-02T12:15:02+01:00</time>
      </trkpt>
      <trkpt lat="48.79418" lon="2.07309">
        <ele>160</ele>
        <time>2022-01-02T12:15:10+01:00</time>
      </trkpt>
      <trkpt lat="48.79417" lon="2.07294">
        <ele>163</ele>
        <time>2022-01-02T12:15:21+01:00</time>
      </trkpt>
      <trkpt lat="48.7942" lon="2.07279">
        <ele>165</ele>
        <time>2022-01-02T12:15:31+01:00</time>
      </trkpt>
      <trkpt lat="48.7942" lon="2.07266">
        <ele>166</ele>
        <time>2022-01-02T12:15:36+01:00</time>
      </trkpt>
      <trkpt lat="48.79421" lon="2.07251">
        <ele>168</ele>
        <time>2022-01-02T12:15:45+01:00</time>
      </trkpt>
      <trkpt lat="48.79419" lon="2.07237">
        <ele>170</ele>
        <time>2022-01-02T12:15:51+01:00</time>
      </trkpt>
      <trkpt lat="48.79424" lon="2.07223">
        <ele>169</ele>
        <time>2022-01-02T12:15:59+01:00</time>
      </trkpt>
      <trkpt lat="48.79414" lon="2.07214">
        <ele>168</ele>
        <time>2022-01-02T12:16:26+01:00</time>
      </trkpt>
      <trkpt lat="48.79407" lon="2.07207">
        <ele>168</ele>
        <time>2022-01-02T12:16:32+01:00</time>
      </trkpt>
      <trkpt lat="48.79402" lon="2.07195">
        <ele>168</ele>
        <time>2022-01-02T12:16:54+01:00</time>
      </trkpt>
      <trkpt lat="48.79397" lon="2.07182">
        <ele>170</ele>
        <time>2022-01-02T12:17:01+01:00</time>
      </trkpt>
      <trkpt lat="48.79393" lon="2.07169">
        <ele>171</ele>
        <time>2022-01-02T12:17:08+01:00</time>
      </trkpt>
      <trkpt lat="48.79385" lon="2.07162">
        <ele>172</ele>
        <time>2022-01-02T12:17:18+01:00</time>
      </trkpt>
      <trkpt lat="48.79376" lon="2.07156">
        <ele>172</ele>
        <time>2022-01-02T12:17:23+01:00</time>
      </trkpt>
      <trkpt lat="48.79366" lon="2.07155">
        <ele>169</ele>
        <time>2022-01-02T12:17:32+01:00</time>
      </trkpt>
      <trkpt lat="48.79357" lon="2.07154">
        <ele>165</ele>
        <time>2022-01-02T12:17:38+01:00</time>
      </trkpt>
      <trkpt lat="48.79349" lon="2.07146">
        <ele>162</ele>
        <time>2022-01-02T12:17:47+01:00</time>
      </trkpt>
      <trkpt lat="48.7934" lon="2.07142">
        <ele>159</ele>
        <time>2022-01-02T12:17:54+01:00</time>
      </trkpt>
      <trkpt lat="48.79331" lon="2.07143">
        <ele>159</ele>
        <time>2022-01-02T12:17:59+01:00</time>
      </trkpt>
      <trkpt lat="48.79321" lon="2.07144">
        <ele>156</ele>
        <time>2022-01-02T12:18:09+01:00</time>
      </trkpt>
      <trkpt lat="48.79312" lon="2.0714">
        <ele>156</ele>
        <time>2022-01-02T12:18:16+01:00</time>
      </trkpt>
      <trkpt lat="48.79302" lon="2.07135">
        <ele>154</ele>
        <time>2022-01-02T12:18:25+01:00</time>
      </trkpt>
      <trkpt lat="48.79293" lon="2.07131">
        <ele>154</ele>
        <time>2022-01-02T12:18:30+01:00</time>
      </trkpt>
      <trkpt lat="48.79283" lon="2.07127">
        <ele>156</ele>
        <time>2022-01-02T12:18:36+01:00</time>
      </trkpt>
      <trkpt lat="48.79275" lon="2.07122">
        <ele>158</ele>
        <time>2022-01-02T12:18:44+01:00</time>
      </trkpt>
      <trkpt lat="48.79265" lon="2.07117">
        <ele>158</ele>
        <time>2022-01-02T12:18:50+01:00</time>
      </trkpt>
      <trkpt lat="48.79256" lon="2.0711">
        <ele>159</ele>
        <time>2022-01-02T12:18:57+01:00</time>
      </trkpt>
      <trkpt lat="48.79247" lon="2.07108">
        <ele>159</ele>
        <time>2022-01-02T12:19:05+01:00</time>
      </trkpt>
      <trkpt lat="48.79238" lon="2.07108">
        <ele>159</ele>
        <time>2022-01-02T12:19:11+01:00</time>
      </trkpt>
      <trkpt lat="48.79229" lon="2.07102">
        <ele>159</ele>
        <time>2022-01-02T12:19:19+01:00</time>
      </trkpt>
      <trkpt lat="48.79219" lon="2.07097">
        <ele>159</ele>
        <time>2022-01-02T12:19:26+01:00</time>
      </trkpt>
      <trkpt lat="48.79211" lon="2.07093">
        <ele>159</ele>
        <time>2022-01-02T12:19:31+01:00</time>
      </trkpt>
      <trkpt lat="48.79201" lon="2.07094">
        <ele>161</ele>
        <time>2022-01-02T12:19:39+01:00</time>
      </trkpt>
      <trkpt lat="48.79192" lon="2.07088">
        <ele>161</ele>
        <time>2022-01-02T12:19:46+01:00</time>
      </trkpt>
      <trkpt lat="48.79183" lon="2.07086">
        <ele>161</ele>
        <time>2022-01-02T12:19:52+01:00</time>
      </trkpt>
      <trkpt lat="48.79173" lon="2.07084">
        <ele>160</ele>
        <time>2022-01-02T12:20:00+01:00</time>
      </trkpt>
      <trkpt lat="48.79164" lon="2.07081">
        <ele>160</ele>
        <time>2022-01-02T12:20:07+01:00</time>
      </trkpt>
      <trkpt lat="48.79155" lon="2.07079">
        <ele>159</ele>
        <time>2022-01-02T12:20:15+01:00</time>
      </trkpt>
      <trkpt lat="48.79146" lon="2.07076">
        <ele>159</ele>
        <time>2022-01-02T12:20:22+01:00</time>
      </trkpt>
      <trkpt lat="48.79136" lon="2.07072">
        <ele>160</ele>
        <time>2022-01-02T12:20:30+01:00</time>
      </trkpt>
      <trkpt lat="48.79126" lon="2.07072">
        <ele>160</ele>
        <time>2022-01-02T12:20:42+01:00</time>
      </trkpt>
      <trkpt lat="48.79117" lon="2.07068">
        <ele>161</ele>
        <time>2022-01-02T12:20:48+01:00</time>
      </trkpt>
      <trkpt lat="48.79109" lon="2.07074">
        <ele>161</ele>
        <time>2022-01-02T12:21:00+01:00</time>
      </trkpt>
      <trkpt lat="48.79103" lon="2.07086">
        <ele>161</ele>
        <time>2022-01-02T12:21:07+01:00</time>
      </trkpt>
      <trkpt lat="48.79099" lon="2.071">
        <ele>160</ele>
        <time>2022-01-02T12:21:16+01:00</time>
      </trkpt>
      <trkpt lat="48.79094" lon="2.07113">
        <ele>162</ele>
        <time>2022-01-02T12:21:22+01:00</time>
      </trkpt>
      <trkpt lat="48.79091" lon="2.07127">
        <ele>162</ele>
        <time>2022-01-02T12:21:29+01:00</time>
      </trkpt>
      <trkpt lat="48.79087" lon="2.07141">
        <ele>163</ele>
        <time>2022-01-02T12:21:37+01:00</time>
      </trkpt>
      <trkpt lat="48.7908" lon="2.07152">
        <ele>163</ele>
        <time>2022-01-02T12:21:44+01:00</time>
      </trkpt>
      <trkpt lat="48.7907" lon="2.07155">
        <ele>163</ele>
        <time>2022-01-02T12:21:55+01:00</time>
      </trkpt>
      <trkpt lat="48.79061" lon="2.07153">
        <ele>163</ele>
        <time>2022-01-02T12:22:01+01:00</time>
      </trkpt>
      <trkpt lat="48.79052" lon="2.07148">
        <ele>161</ele>
        <time>2022-01-02T12:22:11+01:00</time>
      </trkpt>
      <trkpt lat="48.79043" lon="2.07139">
        <ele>161</ele>
        <time>2022-01-02T12:22:17+01:00</time>
      </trkpt>
      <trkpt lat="48.79037" lon="2.07129">
        <ele>161</ele>
        <time>2022-01-02T12:22:23+01:00</time>
      </trkpt>
      <trkpt lat="48.79029" lon="2.07121">
        <ele>161</ele>
        <time>2022-01-02T12:22:33+01:00</time>
      </trkpt>
      <trkpt lat="48.79022" lon="2.0711">
        <ele>161</ele>
        <time>2022-01-02T12:22:39+01:00</time>
      </trkpt>
      <trkpt lat="48.79016" lon="2.071">
        <ele>159</ele>
        <time>2022-01-02T12:22:44+01:00</time>
      </trkpt>
      <trkpt lat="48.79007" lon="2.0709">
        <ele>158</ele>
        <time>2022-01-02T12:22:53+01:00</time>
      </trkpt>
      <trkpt lat="48.78999" lon="2.0708">
        <ele>156</ele>
        <time>2022-01-02T12:23:00+01:00</time>
      </trkpt>
      <trkpt lat="48.78993" lon="2.07071">
        <ele>153</ele>
        <time>2022-01-02T12:23:09+01:00</time>
      </trkpt>
      <trkpt lat="48.78986" lon="2.07059">
        <ele>152</ele>
        <time>2022-01-02T12:23:17+01:00</time>
      </trkpt>
      <trkpt lat="48.78979" lon="2.07048">
        <ele>152</ele>
        <time>2022-01-02T12:23:24+01:00</time>
      </trkpt>
      <trkpt lat="48.7897" lon="2.0704">
        <ele>151</ele>
        <time>2022-01-02T12:23:31+01:00</time>
      </trkpt>
      <trkpt lat="48.78962" lon="2.0703">
        <ele>150</ele>
        <time>2022-01-02T12:23:37+01:00</time>
      </trkpt>
      <trkpt lat="48.78954" lon="2.07022">
        <ele>149</ele>
        <time>2022-01-02T12:23:46+01:00</time>
      </trkpt>
      <trkpt lat="48.78947" lon="2.07012">
        <ele>149</ele>
        <time>2022-01-02T12:23:52+01:00</time>
      </trkpt>
      <trkpt lat="48.78941" lon="2.07001">
        <ele>148</ele>
        <time>2022-01-02T12:23:58+01:00</time>
      </trkpt>
      <trkpt lat="48.78931" lon="2.06998">
        <ele>148</ele>
        <time>2022-01-02T12:24:07+01:00</time>
      </trkpt>
      <trkpt lat="48.78922" lon="2.06994">
        <ele>148</ele>
        <time>2022-01-02T12:24:15+01:00</time>
      </trkpt>
      <trkpt lat="48.78912" lon="2.06989">
        <ele>148</ele>
        <time>2022-01-02T12:24:23+01:00</time>
      </trkpt>
      <trkpt lat="48.78905" lon="2.06982">
        <ele>148</ele>
        <time>2022-01-02T12:24:31+01:00</time>
      </trkpt>
      <trkpt lat="48.78896" lon="2.06976">
        <ele>148</ele>
        <time>2022-01-02T12:24:38+01:00</time>
      </trkpt>
      <trkpt lat="48.78886" lon="2.06973">
        <ele>148</ele>
        <time>2022-01-02T12:24:47+01:00</time>
      </trkpt>
      <trkpt lat="48.78876" lon="2.06975">
        <ele>146</ele>
        <time>2022-01-02T12:24:54+01:00</time>
      </trkpt>
      <trkpt lat="48.78867" lon="2.06978">
        <ele>145</ele>
        <time>2022-01-02T12:25:01+01:00</time>
      </trkpt>
      <trkpt lat="48.78858" lon="2.06976">
        <ele>144</ele>
        <time>2022-01-02T12:25:08+01:00</time>
      </trkpt>
      <trkpt lat="48.78849" lon="2.06972">
        <ele>145</ele>
        <time>2022-01-02T12:25:16+01:00</time>
      </trkpt>
      <trkpt lat="48.78839" lon="2.06971">
        <ele>145</ele>
        <time>2022-01-02T12:25:21+01:00</time>
      </trkpt>
      <trkpt lat="48.7883" lon="2.06971">
        <ele>147</ele>
        <time>2022-01-02T12:25:29+01:00</time>
      </trkpt>
      <trkpt lat="48.78821" lon="2.06971">
        <ele>148</ele>
        <time>2022-01-02T12:25:36+01:00</time>
      </trkpt>
      <trkpt lat="48.78812" lon="2.06976">
        <ele>149</ele>
        <time>2022-01-02T12:25:44+01:00</time>
      </trkpt>
      <trkpt lat="48.78806" lon="2.06987">
        <ele>150</ele>
        <time>2022-01-02T12:25:50+01:00</time>
      </trkpt>
      <trkpt lat="48.78802" lon="2.07001">
        <ele>152</ele>
        <time>2022-01-02T12:26:00+01:00</time>
      </trkpt>
      <trkpt lat="48.78798" lon="2.07014">
        <ele>153</ele>
        <time>2022-01-02T12:26:06+01:00</time>
      </trkpt>
      <trkpt lat="48.78795" lon="2.07027">
        <ele>155</ele>
        <time>2022-01-02T12:26:14+01:00</time>
      </trkpt>
      <trkpt lat="48.78792" lon="2.07042">
        <ele>157</ele>
        <time>2022-01-02T12:26:20+01:00</time>
      </trkpt>
      <trkpt lat="48.7879" lon="2.07057">
        <ele>157</ele>
        <time>2022-01-02T12:26:26+01:00</time>
      </trkpt>
      <trkpt lat="48.78789" lon="2.07072">
        <ele>157</ele>
        <time>2022-01-02T12:26:35+01:00</time>
      </trkpt>
      <trkpt lat="48.78789" lon="2.07088">
        <ele>157</ele>
        <time>2022-01-02T12:26:43+01:00</time>
      </trkpt>
      <trkpt lat="48.7879" lon="2.07102">
        <ele>156</ele>
        <time>2022-01-02T12:26:51+01:00</time>
      </trkpt>
      <trkpt lat="48.78789" lon="2.07117">
        <ele>156</ele>
        <time>2022-01-02T12:26:58+01:00</time>
      </trkpt>
      <trkpt lat="48.78789" lon="2.07131">
        <ele>154</ele>
        <time>2022-01-02T12:27:05+01:00</time>
      </trkpt>
      <trkpt lat="48.78787" lon="2.07146">
        <ele>154</ele>
        <time>2022-01-02T12:27:13+01:00</time>
      </trkpt>
      <trkpt lat="48.78784" lon="2.0716">
        <ele>154</ele>
        <time>2022-01-02T12:27:20+01:00</time>
      </trkpt>
      <trkpt lat="48.78781" lon="2.07174">
        <ele>154</ele>
        <time>2022-01-02T12:27:30+01:00</time>
      </trkpt>
      <trkpt lat="48.78777" lon="2.07186">
        <ele>154</ele>
        <time>2022-01-02T12:27:37+01:00</time>
      </trkpt>
      <trkpt lat="48.78775" lon="2.072">
        <ele>153</ele>
        <time>2022-01-02T12:27:43+01:00</time>
      </trkpt>
      <trkpt lat="48.78771" lon="2.07212">
        <ele>152</ele>
        <time>2022-01-02T12:27:52+01:00</time>
      </trkpt>
      <trkpt lat="48.78767" lon="2.07225">
        <ele>152</ele>
        <time>2022-01-02T12:28:00+01:00</time>
      </trkpt>
      <trkpt lat="48.78764" lon="2.07238">
        <ele>153</ele>
        <time>2022-01-02T12:28:07+01:00</time>
      </trkpt>
      <trkpt lat="48.78758" lon="2.0725">
        <ele>153</ele>
        <time>2022-01-02T12:28:12+01:00</time>
      </trkpt>
      <trkpt lat="48.78753" lon="2.07262">
        <ele>154</ele>
        <time>2022-01-02T12:28:18+01:00</time>
      </trkpt>
      <trkpt lat="48.78747" lon="2.07275">
        <ele>155</ele>
        <time>2022-01-02T12:28:26+01:00</time>
      </trkpt>
      <trkpt lat="48.78743" lon="2.07289">
        <ele>156</ele>
        <time>2022-01-02T12:28:32+01:00</time>
      </trkpt>
      <trkpt lat="48.7874" lon="2.07302">
        <ele>157</ele>
        <time>2022-01-02T12:28:42+01:00</time>
      </trkpt>
      <trkpt lat="48.78735" lon="2.07316">
        <ele>157</ele>
        <time>2022-01-02T12:28:49+01:00</time>
      </trkpt>
      <trkpt lat="48.78731" lon="2.07329">
        <ele>157</ele>
        <time>2022-01-02T12:28:57+01:00</time>
      </trkpt>
      <trkpt lat="48.78728" lon="2.07343">
        <ele>157</ele>
        <time>2022-01-02T12:29:04+01:00</time>
      </trkpt>
      <trkpt lat="48.78725" lon="2.07357">
        <ele>155</ele>
        <time>2022-01-02T12:29:10+01:00</time>
      </trkpt>
      <trkpt lat="48.78726" lon="2.07372">
        <ele>154</ele>
        <time>2022-01-02T12:29:20+01:00</time>
      </trkpt>
      <trkpt lat="48.78723" lon="2.07387">
        <ele>153</ele>
        <time>2022-01-02T12:29:27+01:00</time>
      </trkpt>
      <trkpt lat="48.7872" lon="2.074">
        <ele>153</ele>
        <time>2022-01-02T12:29:34+01:00</time>
      </trkpt>
      <trkpt lat="48.7872" lon="2.07415">
        <ele>152</ele>
        <time>2022-01-02T12:29:41+01:00</time>
      </trkpt>
      <trkpt lat="48.78717" lon="2.07429">
        <ele>153</ele>
        <time>2022-01-02T12:29:49+01:00</time>
      </trkpt>
      <trkpt lat="48.78716" lon="2.07442">
        <ele>152</ele>
        <time>2022-01-02T12:29:55+01:00</time>
      </trkpt>
      <trkpt lat="48.78714" lon="2.07456">
        <ele>153</ele>
        <time>2022-01-02T12:30:00+01:00</time>
      </trkpt>
      <trkpt lat="48.78713" lon="2.0747">
        <ele>154</ele>
        <time>2022-01-02T12:30:09+01:00</time>
      </trkpt>
      <trkpt lat="48.78713" lon="2.07486">
        <ele>152</ele>
        <time>2022-01-02T12:30:15+01:00</time>
      </trkpt>
      <trkpt lat="48.78713" lon="2.07501">
        <ele>152</ele>
        <time>2022-01-02T12:30:21+01:00</time>
      </trkpt>
      <trkpt lat="48.78713" lon="2.07516">
        <ele>152</ele>
        <time>2022-01-02T12:30:30+01:00</time>
      </trkpt>
      <trkpt lat="48.78713" lon="2.07532">
        <ele>153</ele>
        <time>2022-01-02T12:30:39+01:00</time>
      </trkpt>
      <trkpt lat="48.78711" lon="2.07547">
        <ele>155</ele>
        <time>2022-01-02T12:30:48+01:00</time>
      </trkpt>
      <trkpt lat="48.78712" lon="2.07562">
        <ele>155</ele>
        <time>2022-01-02T12:30:54+01:00</time>
      </trkpt>
      <trkpt lat="48.78709" lon="2.07575">
        <ele>156</ele>
        <time>2022-01-02T12:31:01+01:00</time>
      </trkpt>
      <trkpt lat="48.78711" lon="2.07591">
        <ele>156</ele>
        <time>2022-01-02T12:31:07+01:00</time>
      </trkpt>
      <trkpt lat="48.78711" lon="2.07606">
        <ele>156</ele>
        <time>2022-01-02T12:31:14+01:00</time>
      </trkpt>
      <trkpt lat="48.78714" lon="2.0762">
        <ele>152</ele>
        <time>2022-01-02T12:31:22+01:00</time>
      </trkpt>
      <trkpt lat="48.78714" lon="2.07634">
        <ele>146</ele>
        <time>2022-01-02T12:31:31+01:00</time>
      </trkpt>
      <trkpt lat="48.78718" lon="2.07646">
        <ele>145</ele>
        <time>2022-01-02T12:31:39+01:00</time>
      </trkpt>
      <trkpt lat="48.7872" lon="2.0766">
        <ele>146</ele>
        <time>2022-01-02T12:31:46+01:00</time>
      </trkpt>
      <trkpt lat="48.7872" lon="2.07674">
        <ele>148</ele>
        <time>2022-01-02T12:31:54+01:00</time>
      </trkpt>
      <trkpt lat="48.78718" lon="2.07689">
        <ele>153</ele>
        <time>2022-01-02T12:32:02+01:00</time>
      </trkpt>
      <trkpt lat="48.78711" lon="2.077">
        <ele>157</ele>
        <time>2022-01-02T12:32:07+01:00</time>
      </trkpt>
      <trkpt lat="48.7871" lon="2.07714">
        <ele>164</ele>
        <time>2022-01-02T12:32:14+01:00</time>
      </trkpt>
      <trkpt lat="48.7871" lon="2.07728">
        <ele>166</ele>
        <time>2022-01-02T12:32:21+01:00</time>
      </trkpt>
      <trkpt lat="48.78709" lon="2.07742">
        <ele>165</ele>
        <time>2022-01-02T12:32:28+01:00</time>
      </trkpt>
      <trkpt lat="48.78711" lon="2.07756">
        <ele>165</ele>
        <time>2022-01-02T12:32:37+01:00</time>
      </trkpt>
      <trkpt lat="48.78708" lon="2.07771">
        <ele>164</ele>
        <time>2022-01-02T12:32:45+01:00</time>
      </trkpt>
      <trkpt lat="48.78708" lon="2.07786">
        <ele>164</ele>
        <time>2022-01-02T12:32:53+01:00</time>
      </trkpt>
      <trkpt lat="48.78709" lon="2.07801">
        <ele>164</ele>
        <time>2022-01-02T12:33:00+01:00</time>
      </trkpt>
      <trkpt lat="48.78708" lon="2.07815">
        <ele>163</ele>
        <time>2022-01-02T12:33:06+01:00</time>
      </trkpt>
      <trkpt lat="48.78709" lon="2.07829">
        <ele>162</ele>
        <time>2022-01-02T12:33:16+01:00</time>
      </trkpt>
      <trkpt lat="48.78706" lon="2.07842">
        <ele>161</ele>
        <time>2022-01-02T12:33:23+01:00</time>
      </trkpt>
      <trkpt lat="48.78704" lon="2.07856">
        <ele>160</ele>
        <time>2022-01-02T12:33:29+01:00</time>
      </trkpt>
      <trkpt lat="48.78702" lon="2.0787">
        <ele>159</ele>
        <time>2022-01-02T12:33:36+01:00</time>
      </trkpt>
      <trkpt lat="48.78702" lon="2.07884">
        <ele>159</ele>
        <time>2022-01-02T12:33:42+01:00</time>
      </trkpt>
      <trkpt lat="48.78701" lon="2.07897">
        <ele>158</ele>
        <time>2022-01-02T12:33:47+01:00</time>
      </trkpt>
      <trkpt lat="48.787" lon="2.07911">
        <ele>157</ele>
        <time>2022-01-02T12:33:55+01:00</time>
      </trkpt>
      <trkpt lat="48.78699" lon="2.07925">
        <ele>157</ele>
        <time>2022-01-02T12:34:01+01:00</time>
      </trkpt>
      <trkpt lat="48.78699" lon="2.0794">
        <ele>156</ele>
        <time>2022-01-02T12:34:08+01:00</time>
      </trkpt>
      <trkpt lat="48.78699" lon="2.07955">
        <ele>156</ele>
        <time>2022-01-02T12:34:17+01:00</time>
      </trkpt>
      <trkpt lat="48.78698" lon="2.07969">
        <ele>155</ele>
        <time>2022-01-02T12:34:26+01:00</time>
      </trkpt>
      <trkpt lat="48.78703" lon="2.07981">
        <ele>154</ele>
        <time>2022-01-02T12:34:31+01:00</time>
      </trkpt>
      <trkpt lat="48.78711" lon="2.0799">
        <ele>153</ele>
        <time>2022-01-02T12:34:39+01:00</time>
      </trkpt>
      <trkpt lat="48.7872" lon="2.07998">
        <ele>151</ele>
        <time>2022-01-02T12:34:48+01:00</time>
      </trkpt>
      <trkpt lat="48.78725" lon="2.08011">
        <ele>152</ele>
        <time>2022-01-02T12:34:57+01:00</time>
      </trkpt>
      <trkpt lat="48.78732" lon="2.08021">
        <ele>152</ele>
        <time>2022-01-02T12:35:05+01:00</time>
      </trkpt>
      <trkpt lat="48.7874" lon="2.08029">
        <ele>151</ele>
        <time>2022-01-02T12:35:11+01:00</time>
      </trkpt>
      <trkpt lat="48.78749" lon="2.08037">
        <ele>152</ele>
        <time>2022-01-02T12:35:17+01:00</time>
      </trkpt>
      <trkpt lat="48.78755" lon="2.08048">
        <ele>151</ele>
        <time>2022-01-02T12:35:23+01:00</time>
      </trkpt>
      <trkpt lat="48.78758" lon="2.08061">
        <ele>152</ele>
        <time>2022-01-02T12:35:31+01:00</time>
      </trkpt>
      <trkpt lat="48.78764" lon="2.08071">
        <ele>150</ele>
        <time>2022-01-02T12:35:38+01:00</time>
      </trkpt>
      <trkpt lat="48.78771" lon="2.08082">
        <ele>149</ele>
        <time>2022-01-02T12:35:46+01:00</time>
      </trkpt>
      <trkpt lat="48.78776" lon="2.08094">
        <ele>147</ele>
        <time>2022-01-02T12:35:53+01:00</time>
      </trkpt>
      <trkpt lat="48.78782" lon="2.08106">
        <ele>145</ele>
        <time>2022-01-02T12:36:01+01:00</time>
      </trkpt>
      <trkpt lat="48.78785" lon="2.0812">
        <ele>141</ele>
        <time>2022-01-02T12:36:10+01:00</time>
      </trkpt>
      <trkpt lat="48.78788" lon="2.08133">
        <ele>139</ele>
        <time>2022-01-02T12:36:17+01:00</time>
      </trkpt>
      <trkpt lat="48.78791" lon="2.08148">
        <ele>136</ele>
        <time>2022-01-02T12:36:24+01:00</time>
      </trkpt>
      <trkpt lat="48.78793" lon="2.08162">
        <ele>134</ele>
        <time>2022-01-02T12:36:32+01:00</time>
      </trkpt>
      <trkpt lat="48.78796" lon="2.08177">
        <ele>133</ele>
        <time>2022-01-02T12:36:39+01:00</time>
      </trkpt>
      <trkpt lat="48.78793" lon="2.08191">
        <ele>130</ele>
        <time>2022-01-02T12:36:53+01:00</time>
      </trkpt>
      <trkpt lat="48.78787" lon="2.08201">
        <ele>131</ele>
        <time>2022-01-02T12:37:01+01:00</time>
      </trkpt>
      <trkpt lat="48.78778" lon="2.08206">
        <ele>132</ele>
        <time>2022-01-02T12:37:10+01:00</time>
      </trkpt>
      <trkpt lat="48.78769" lon="2.08206">
        <ele>134</ele>
        <time>2022-01-02T12:37:20+01:00</time>
      </trkpt>
      <trkpt lat="48.78777" lon="2.08202">
        <ele>134</ele>
        <time>2022-01-02T12:39:07+01:00</time>
      </trkpt>
      <trkpt lat="48.78771" lon="2.08192">
        <ele>126</ele>
        <time>2022-01-02T12:41:05+01:00</time>
      </trkpt>
      <trkpt lat="48.78768" lon="2.08205">
        <ele>129</ele>
        <time>2022-01-02T12:41:40+01:00</time>
      </trkpt>
      <trkpt lat="48.7876" lon="2.08215">
        <ele>130</ele>
        <time>2022-01-02T12:43:09+01:00</time>
      </trkpt>
      <trkpt lat="48.78765" lon="2.08202">
        <ele>131</ele>
        <time>2022-01-02T12:43:31+01:00</time>
      </trkpt>
      <trkpt lat="48.78769" lon="2.0819">
        <ele>131</ele>
        <time>2022-01-02T12:43:57+01:00</time>
      </trkpt>
      <trkpt lat="48.78777" lon="2.08197">
        <ele>129</ele>
        <time>2022-01-02T12:45:25+01:00</time>
      </trkpt>
      <trkpt lat="48.78779" lon="2.08211">
        <ele>124</ele>
        <time>2022-01-02T12:47:41+01:00</time>
      </trkpt>
      <trkpt lat="48.78774" lon="2.08223">
        <ele>125</ele>
        <time>2022-01-02T12:47:52+01:00</time>
      </trkpt>
      <trkpt lat="48.7879" lon="2.08224">
        <ele>146</ele>
        <time>2022-01-02T12:50:07+01:00</time>
      </trkpt>
      <trkpt lat="48.78797" lon="2.08214">
        <ele>157</ele>
        <time>2022-01-02T12:51:27+01:00</time>
      </trkpt>
      <trkpt lat="48.78788" lon="2.08211">
        <ele>152</ele>
        <time>2022-01-02T12:51:41+01:00</time>
      </trkpt>
      <trkpt lat="48.78785" lon="2.08198">
        <ele>147</ele>
        <time>2022-01-02T12:51:53+01:00</time>
      </trkpt>
      <trkpt lat="48.78777" lon="2.08192">
        <ele>138</ele>
        <time>2022-01-02T12:52:06+01:00</time>
      </trkpt>
      <trkpt lat="48.78776" lon="2.08207">
        <ele>129</ele>
        <time>2022-01-02T12:52:22+01:00</time>
      </trkpt>
      <trkpt lat="48.78772" lon="2.08219">
        <ele>127</ele>
        <time>2022-01-02T12:52:33+01:00</time>
      </trkpt>
      <trkpt lat="48.7878" lon="2.08227">
        <ele>127</ele>
        <time>2022-01-02T12:53:04+01:00</time>
      </trkpt>
      <trkpt lat="48.78774" lon="2.08236">
        <ele>132</ele>
        <time>2022-01-02T12:55:10+01:00</time>
      </trkpt>
      <trkpt lat="48.78778" lon="2.08223">
        <ele>124</ele>
        <time>2022-01-02T12:58:21+01:00</time>
      </trkpt>
      <trkpt lat="48.78768" lon="2.08224">
        <ele>123</ele>
        <time>2022-01-02T12:58:41+01:00</time>
      </trkpt>
      <trkpt lat="48.78781" lon="2.08218">
        <ele>136</ele>
        <time>2022-01-02T13:00:43+01:00</time>
      </trkpt>
      <trkpt lat="48.78772" lon="2.08216">
        <ele>134</ele>
        <time>2022-01-02T13:01:45+01:00</time>
      </trkpt>
      <trkpt lat="48.78772" lon="2.08203">
        <ele>133</ele>
        <time>2022-01-02T13:01:57+01:00</time>
      </trkpt>
      <trkpt lat="48.78773" lon="2.08188">
        <ele>129</ele>
        <time>2022-01-02T13:02:13+01:00</time>
      </trkpt>
      <trkpt lat="48.7877" lon="2.08202">
        <ele>122</ele>
        <time>2022-01-02T13:02:51+01:00</time>
      </trkpt>
      <trkpt lat="48.7877" lon="2.08232">
        <ele>125</ele>
        <time>2022-01-02T13:03:22+01:00</time>
      </trkpt>
      <trkpt lat="48.78778" lon="2.08224">
        <ele>129</ele>
        <time>2022-01-02T13:04:38+01:00</time>
      </trkpt>
      <trkpt lat="48.78769" lon="2.08225">
        <ele>130</ele>
        <time>2022-01-02T13:04:55+01:00</time>
      </trkpt>
      <trkpt lat="48.78784" lon="2.08222">
        <ele>137</ele>
        <time>2022-01-02T13:06:09+01:00</time>
      </trkpt>
      <trkpt lat="48.7877" lon="2.08217">
        <ele>139</ele>
        <time>2022-01-02T13:07:04+01:00</time>
      </trkpt>
      <trkpt lat="48.78772" lon="2.08199">
        <ele>136</ele>
        <time>2022-01-02T13:07:56+01:00</time>
      </trkpt>
      <trkpt lat="48.78778" lon="2.08211">
        <ele>141</ele>
        <time>2022-01-02T13:08:15+01:00</time>
      </trkpt>
      <trkpt lat="48.78769" lon="2.08213">
        <ele>131</ele>
        <time>2022-01-02T13:09:12+01:00</time>
      </trkpt>
      <trkpt lat="48.7877" lon="2.08229">
        <ele>135</ele>
        <time>2022-01-02T13:11:14+01:00</time>
      </trkpt>
      <trkpt lat="48.78766" lon="2.08211">
        <ele>132</ele>
        <time>2022-01-02T13:12:51+01:00</time>
      </trkpt>
      <trkpt lat="48.78774" lon="2.08217">
        <ele>138</ele>
        <time>2022-01-02T13:14:06+01:00</time>
      </trkpt>
      <trkpt lat="48.78776" lon="2.08233">
        <ele>138</ele>
        <time>2022-01-02T13:14:47+01:00</time>
      </trkpt>
      <trkpt lat="48.78773" lon="2.0822">
        <ele>134</ele>
        <time>2022-01-02T13:15:23+01:00</time>
      </trkpt>
      <trkpt lat="48.78764" lon="2.08225">
        <ele>129</ele>
        <time>2022-01-02T13:15:50+01:00</time>
      </trkpt>
      <trkpt lat="48.78756" lon="2.08217">
        <ele>130</ele>
        <time>2022-01-02T13:15:59+01:00</time>
      </trkpt>
      <trkpt lat="48.78749" lon="2.08209">
        <ele>130</ele>
        <time>2022-01-02T13:16:07+01:00</time>
      </trkpt>
      <trkpt lat="48.78739" lon="2.08205">
        <ele>128</ele>
        <time>2022-01-02T13:16:16+01:00</time>
      </trkpt>
      <trkpt lat="48.7873" lon="2.08202">
        <ele>127</ele>
        <time>2022-01-02T13:16:23+01:00</time>
      </trkpt>
      <trkpt lat="48.7872" lon="2.08203">
        <ele>125</ele>
        <time>2022-01-02T13:16:31+01:00</time>
      </trkpt>
      <trkpt lat="48.78711" lon="2.08203">
        <ele>125</ele>
        <time>2022-01-02T13:16:38+01:00</time>
      </trkpt>
      <trkpt lat="48.78701" lon="2.08209">
        <ele>126</ele>
        <time>2022-01-02T13:16:48+01:00</time>
      </trkpt>
      <trkpt lat="48.78693" lon="2.08214">
        <ele>126</ele>
        <time>2022-01-02T13:16:55+01:00</time>
      </trkpt>
      <trkpt lat="48.78683" lon="2.08219">
        <ele>126</ele>
        <time>2022-01-02T13:17:03+01:00</time>
      </trkpt>
      <trkpt lat="48.78673" lon="2.08225">
        <ele>127</ele>
        <time>2022-01-02T13:17:11+01:00</time>
      </trkpt>
      <trkpt lat="48.78664" lon="2.08234">
        <ele>128</ele>
        <time>2022-01-02T13:17:19+01:00</time>
      </trkpt>
      <trkpt lat="48.78658" lon="2.08243">
        <ele>128</ele>
        <time>2022-01-02T13:17:25+01:00</time>
      </trkpt>
      <trkpt lat="48.7865" lon="2.08252">
        <ele>128</ele>
        <time>2022-01-02T13:17:33+01:00</time>
      </trkpt>
      <trkpt lat="48.78641" lon="2.08258">
        <ele>130</ele>
        <time>2022-01-02T13:17:41+01:00</time>
      </trkpt>
      <trkpt lat="48.78634" lon="2.08267">
        <ele>128</ele>
        <time>2022-01-02T13:17:48+01:00</time>
      </trkpt>
      <trkpt lat="48.78624" lon="2.08272">
        <ele>129</ele>
        <time>2022-01-02T13:17:59+01:00</time>
      </trkpt>
      <trkpt lat="48.78614" lon="2.08272">
        <ele>129</ele>
        <time>2022-01-02T13:18:06+01:00</time>
      </trkpt>
      <trkpt lat="48.78605" lon="2.08277">
        <ele>129</ele>
        <time>2022-01-02T13:18:14+01:00</time>
      </trkpt>
      <trkpt lat="48.78595" lon="2.08279">
        <ele>130</ele>
        <time>2022-01-02T13:18:22+01:00</time>
      </trkpt>
      <trkpt lat="48.78586" lon="2.08281">
        <ele>132</ele>
        <time>2022-01-02T13:18:30+01:00</time>
      </trkpt>
      <trkpt lat="48.78576" lon="2.08285">
        <ele>133</ele>
        <time>2022-01-02T13:18:37+01:00</time>
      </trkpt>
      <trkpt lat="48.78567" lon="2.08289">
        <ele>133</ele>
        <time>2022-01-02T13:18:45+01:00</time>
      </trkpt>
      <trkpt lat="48.78558" lon="2.08296">
        <ele>132</ele>
        <time>2022-01-02T13:18:52+01:00</time>
      </trkpt>
      <trkpt lat="48.78548" lon="2.08301">
        <ele>132</ele>
        <time>2022-01-02T13:19:00+01:00</time>
      </trkpt>
      <trkpt lat="48.78538" lon="2.08305">
        <ele>133</ele>
        <time>2022-01-02T13:19:08+01:00</time>
      </trkpt>
      <trkpt lat="48.7853" lon="2.08311">
        <ele>132</ele>
        <time>2022-01-02T13:19:19+01:00</time>
      </trkpt>
      <trkpt lat="48.7852" lon="2.08314">
        <ele>133</ele>
        <time>2022-01-02T13:19:26+01:00</time>
      </trkpt>
      <trkpt lat="48.7851" lon="2.08315">
        <ele>133</ele>
        <time>2022-01-02T13:19:33+01:00</time>
      </trkpt>
      <trkpt lat="48.78501" lon="2.08317">
        <ele>134</ele>
        <time>2022-01-02T13:19:39+01:00</time>
      </trkpt>
      <trkpt lat="48.78492" lon="2.08323">
        <ele>133</ele>
        <time>2022-01-02T13:19:47+01:00</time>
      </trkpt>
      <trkpt lat="48.78484" lon="2.08327">
        <ele>132</ele>
        <time>2022-01-02T13:19:54+01:00</time>
      </trkpt>
      <trkpt lat="48.78475" lon="2.08333">
        <ele>130</ele>
        <time>2022-01-02T13:20:02+01:00</time>
      </trkpt>
      <trkpt lat="48.78466" lon="2.08337">
        <ele>129</ele>
        <time>2022-01-02T13:20:08+01:00</time>
      </trkpt>
      <trkpt lat="48.78457" lon="2.08345">
        <ele>127</ele>
        <time>2022-01-02T13:20:19+01:00</time>
      </trkpt>
      <trkpt lat="48.78448" lon="2.08348">
        <ele>127</ele>
        <time>2022-01-02T13:20:25+01:00</time>
      </trkpt>
      <trkpt lat="48.78438" lon="2.0835">
        <ele>126</ele>
        <time>2022-01-02T13:20:31+01:00</time>
      </trkpt>
      <trkpt lat="48.7843" lon="2.08358">
        <ele>125</ele>
        <time>2022-01-02T13:20:38+01:00</time>
      </trkpt>
      <trkpt lat="48.78421" lon="2.08366">
        <ele>125</ele>
        <time>2022-01-02T13:20:46+01:00</time>
      </trkpt>
      <trkpt lat="48.78413" lon="2.08375">
        <ele>126</ele>
        <time>2022-01-02T13:20:55+01:00</time>
      </trkpt>
      <trkpt lat="48.78407" lon="2.08387">
        <ele>126</ele>
        <time>2022-01-02T13:21:02+01:00</time>
      </trkpt>
      <trkpt lat="48.78403" lon="2.08402">
        <ele>125</ele>
        <time>2022-01-02T13:21:10+01:00</time>
      </trkpt>
      <trkpt lat="48.78397" lon="2.08415">
        <ele>126</ele>
        <time>2022-01-02T13:21:16+01:00</time>
      </trkpt>
      <trkpt lat="48.78391" lon="2.08425">
        <ele>126</ele>
        <time>2022-01-02T13:21:26+01:00</time>
      </trkpt>
      <trkpt lat="48.78387" lon="2.08438">
        <ele>126</ele>
        <time>2022-01-02T13:21:35+01:00</time>
      </trkpt>
      <trkpt lat="48.78379" lon="2.08448">
        <ele>126</ele>
        <time>2022-01-02T13:21:43+01:00</time>
      </trkpt>
      <trkpt lat="48.78373" lon="2.08461">
        <ele>126</ele>
        <time>2022-01-02T13:21:51+01:00</time>
      </trkpt>
      <trkpt lat="48.78367" lon="2.08474">
        <ele>127</ele>
        <time>2022-01-02T13:21:59+01:00</time>
      </trkpt>
      <trkpt lat="48.7836" lon="2.08485">
        <ele>127</ele>
        <time>2022-01-02T13:22:05+01:00</time>
      </trkpt>
      <trkpt lat="48.78352" lon="2.08491">
        <ele>129</ele>
        <time>2022-01-02T13:22:14+01:00</time>
      </trkpt>
      <trkpt lat="48.78343" lon="2.08483">
        <ele>130</ele>
        <time>2022-01-02T13:22:23+01:00</time>
      </trkpt>
      <trkpt lat="48.78335" lon="2.08477">
        <ele>132</ele>
        <time>2022-01-02T13:22:31+01:00</time>
      </trkpt>
      <trkpt lat="48.78327" lon="2.08469">
        <ele>134</ele>
        <time>2022-01-02T13:22:40+01:00</time>
      </trkpt>
      <trkpt lat="48.7832" lon="2.0846">
        <ele>132</ele>
        <time>2022-01-02T13:22:48+01:00</time>
      </trkpt>
      <trkpt lat="48.78312" lon="2.08451">
        <ele>133</ele>
        <time>2022-01-02T13:22:55+01:00</time>
      </trkpt>
      <trkpt lat="48.78303" lon="2.08443">
        <ele>133</ele>
        <time>2022-01-02T13:23:04+01:00</time>
      </trkpt>
      <trkpt lat="48.78298" lon="2.08431">
        <ele>135</ele>
        <time>2022-01-02T13:23:12+01:00</time>
      </trkpt>
      <trkpt lat="48.78292" lon="2.08419">
        <ele>135</ele>
        <time>2022-01-02T13:23:20+01:00</time>
      </trkpt>
      <trkpt lat="48.78284" lon="2.08412">
        <ele>134</ele>
        <time>2022-01-02T13:23:27+01:00</time>
      </trkpt>
      <trkpt lat="48.78278" lon="2.08401">
        <ele>134</ele>
        <time>2022-01-02T13:23:34+01:00</time>
      </trkpt>
      <trkpt lat="48.78271" lon="2.08393">
        <ele>132</ele>
        <time>2022-01-02T13:23:41+01:00</time>
      </trkpt>
      <trkpt lat="48.78263" lon="2.08384">
        <ele>131</ele>
        <time>2022-01-02T13:23:49+01:00</time>
      </trkpt>
      <trkpt lat="48.78257" lon="2.08374">
        <ele>134</ele>
        <time>2022-01-02T13:23:59+01:00</time>
      </trkpt>
      <trkpt lat="48.78246" lon="2.08373">
        <ele>138</ele>
        <time>2022-01-02T13:24:06+01:00</time>
      </trkpt>
      <trkpt lat="48.78238" lon="2.0838">
        <ele>140</ele>
        <time>2022-01-02T13:24:12+01:00</time>
      </trkpt>
      <trkpt lat="48.78229" lon="2.08388">
        <ele>142</ele>
        <time>2022-01-02T13:24:22+01:00</time>
      </trkpt>
      <trkpt lat="48.78222" lon="2.08399">
        <ele>142</ele>
        <time>2022-01-02T13:24:29+01:00</time>
      </trkpt>
      <trkpt lat="48.78213" lon="2.08406">
        <ele>140</ele>
        <time>2022-01-02T13:24:37+01:00</time>
      </trkpt>
      <trkpt lat="48.78207" lon="2.08415">
        <ele>137</ele>
        <time>2022-01-02T13:24:46+01:00</time>
      </trkpt>
      <trkpt lat="48.78203" lon="2.08428">
        <ele>137</ele>
        <time>2022-01-02T13:24:53+01:00</time>
      </trkpt>
      <trkpt lat="48.78211" lon="2.08421">
        <ele>132</ele>
        <time>2022-01-02T13:25:22+01:00</time>
      </trkpt>
      <trkpt lat="48.7821" lon="2.08407">
        <ele>134</ele>
        <time>2022-01-02T13:25:31+01:00</time>
      </trkpt>
      <trkpt lat="48.78204" lon="2.08396">
        <ele>137</ele>
        <time>2022-01-02T13:25:42+01:00</time>
      </trkpt>
      <trkpt lat="48.78195" lon="2.08392">
        <ele>140</ele>
        <time>2022-01-02T13:25:50+01:00</time>
      </trkpt>
      <trkpt lat="48.78185" lon="2.08391">
        <ele>142</ele>
        <time>2022-01-02T13:25:58+01:00</time>
      </trkpt>
      <trkpt lat="48.78175" lon="2.08392">
        <ele>143</ele>
        <time>2022-01-02T13:26:06+01:00</time>
      </trkpt>
      <trkpt lat="48.78166" lon="2.08391">
        <ele>145</ele>
        <time>2022-01-02T13:26:14+01:00</time>
      </trkpt>
      <trkpt lat="48.78155" lon="2.08388">
        <ele>147</ele>
        <time>2022-01-02T13:26:23+01:00</time>
      </trkpt>
      <trkpt lat="48.78146" lon="2.08383">
        <ele>149</ele>
        <time>2022-01-02T13:26:35+01:00</time>
      </trkpt>
      <trkpt lat="48.78138" lon="2.0838">
        <ele>151</ele>
        <time>2022-01-02T13:26:48+01:00</time>
      </trkpt>
      <trkpt lat="48.78128" lon="2.08378">
        <ele>154</ele>
        <time>2022-01-02T13:26:58+01:00</time>
      </trkpt>
      <trkpt lat="48.78119" lon="2.08376">
        <ele>155</ele>
        <time>2022-01-02T13:27:06+01:00</time>
      </trkpt>
      <trkpt lat="48.78109" lon="2.08376">
        <ele>157</ele>
        <time>2022-01-02T13:27:15+01:00</time>
      </trkpt>
      <trkpt lat="48.78102" lon="2.08386">
        <ele>156</ele>
        <time>2022-01-02T13:27:23+01:00</time>
      </trkpt>
      <trkpt lat="48.78095" lon="2.08394">
        <ele>156</ele>
        <time>2022-01-02T13:27:34+01:00</time>
      </trkpt>
      <trkpt lat="48.78089" lon="2.08406">
        <ele>157</ele>
        <time>2022-01-02T13:27:42+01:00</time>
      </trkpt>
      <trkpt lat="48.78086" lon="2.08421">
        <ele>155</ele>
        <time>2022-01-02T13:27:53+01:00</time>
      </trkpt>
      <trkpt lat="48.78083" lon="2.08435">
        <ele>153</ele>
        <time>2022-01-02T13:28:01+01:00</time>
      </trkpt>
      <trkpt lat="48.78079" lon="2.08447">
        <ele>153</ele>
        <time>2022-01-02T13:28:10+01:00</time>
      </trkpt>
      <trkpt lat="48.78073" lon="2.08459">
        <ele>153</ele>
        <time>2022-01-02T13:28:18+01:00</time>
      </trkpt>
      <trkpt lat="48.78068" lon="2.08471">
        <ele>154</ele>
        <time>2022-01-02T13:28:30+01:00</time>
      </trkpt>
      <trkpt lat="48.78064" lon="2.08484">
        <ele>155</ele>
        <time>2022-01-02T13:28:39+01:00</time>
      </trkpt>
      <trkpt lat="48.78058" lon="2.08494">
        <ele>158</ele>
        <time>2022-01-02T13:28:48+01:00</time>
      </trkpt>
      <trkpt lat="48.78052" lon="2.08506">
        <ele>159</ele>
        <time>2022-01-02T13:28:57+01:00</time>
      </trkpt>
      <trkpt lat="48.78043" lon="2.08513">
        <ele>157</ele>
        <time>2022-01-02T13:29:06+01:00</time>
      </trkpt>
      <trkpt lat="48.78037" lon="2.08525">
        <ele>156</ele>
        <time>2022-01-02T13:29:15+01:00</time>
      </trkpt>
      <trkpt lat="48.78029" lon="2.08533">
        <ele>155</ele>
        <time>2022-01-02T13:29:22+01:00</time>
      </trkpt>
      <trkpt lat="48.78022" lon="2.08545">
        <ele>156</ele>
        <time>2022-01-02T13:29:30+01:00</time>
      </trkpt>
      <trkpt lat="48.78016" lon="2.08555">
        <ele>157</ele>
        <time>2022-01-02T13:29:40+01:00</time>
      </trkpt>
      <trkpt lat="48.78009" lon="2.08566">
        <ele>157</ele>
        <time>2022-01-02T13:29:48+01:00</time>
      </trkpt>
      <trkpt lat="48.78002" lon="2.08574">
        <ele>157</ele>
        <time>2022-01-02T13:29:55+01:00</time>
      </trkpt>
      <trkpt lat="48.77993" lon="2.08582">
        <ele>157</ele>
        <time>2022-01-02T13:30:06+01:00</time>
      </trkpt>
      <trkpt lat="48.77986" lon="2.08591">
        <ele>158</ele>
        <time>2022-01-02T13:30:14+01:00</time>
      </trkpt>
      <trkpt lat="48.77979" lon="2.08601">
        <ele>157</ele>
        <time>2022-01-02T13:30:21+01:00</time>
      </trkpt>
      <trkpt lat="48.77971" lon="2.08611">
        <ele>157</ele>
        <time>2022-01-02T13:30:30+01:00</time>
      </trkpt>
      <trkpt lat="48.77964" lon="2.0862">
        <ele>159</ele>
        <time>2022-01-02T13:30:38+01:00</time>
      </trkpt>
      <trkpt lat="48.77957" lon="2.08629">
        <ele>162</ele>
        <time>2022-01-02T13:30:49+01:00</time>
      </trkpt>
      <trkpt lat="48.77951" lon="2.08641">
        <ele>163</ele>
        <time>2022-01-02T13:30:57+01:00</time>
      </trkpt>
      <trkpt lat="48.77948" lon="2.08654">
        <ele>163</ele>
        <time>2022-01-02T13:31:06+01:00</time>
      </trkpt>
      <trkpt lat="48.77941" lon="2.08663">
        <ele>165</ele>
        <time>2022-01-02T13:31:16+01:00</time>
      </trkpt>
      <trkpt lat="48.77933" lon="2.08671">
        <ele>165</ele>
        <time>2022-01-02T13:31:27+01:00</time>
      </trkpt>
      <trkpt lat="48.77924" lon="2.08677">
        <ele>164</ele>
        <time>2022-01-02T13:31:37+01:00</time>
      </trkpt>
      <trkpt lat="48.77917" lon="2.08685">
        <ele>165</ele>
        <time>2022-01-02T13:31:45+01:00</time>
      </trkpt>
      <trkpt lat="48.7791" lon="2.08697">
        <ele>166</ele>
        <time>2022-01-02T13:31:54+01:00</time>
      </trkpt>
      <trkpt lat="48.77905" lon="2.08708">
        <ele>165</ele>
        <time>2022-01-02T13:32:02+01:00</time>
      </trkpt>
      <trkpt lat="48.77898" lon="2.08719">
        <ele>164</ele>
        <time>2022-01-02T13:32:13+01:00</time>
      </trkpt>
      <trkpt lat="48.7789" lon="2.08727">
        <ele>165</ele>
        <time>2022-01-02T13:32:23+01:00</time>
      </trkpt>
      <trkpt lat="48.77881" lon="2.08731">
        <ele>165</ele>
        <time>2022-01-02T13:32:35+01:00</time>
      </trkpt>
      <trkpt lat="48.77874" lon="2.08723">
        <ele>166</ele>
        <time>2022-01-02T13:32:51+01:00</time>
      </trkpt>
      <trkpt lat="48.77865" lon="2.08717">
        <ele>168</ele>
        <time>2022-01-02T13:33:01+01:00</time>
      </trkpt>
      <trkpt lat="48.77856" lon="2.08714">
        <ele>167</ele>
        <time>2022-01-02T13:33:08+01:00</time>
      </trkpt>
      <trkpt lat="48.77846" lon="2.08719">
        <ele>164</ele>
        <time>2022-01-02T13:33:15+01:00</time>
      </trkpt>
      <trkpt lat="48.77837" lon="2.08725">
        <ele>163</ele>
        <time>2022-01-02T13:33:23+01:00</time>
      </trkpt>
      <trkpt lat="48.77829" lon="2.08729">
        <ele>165</ele>
        <time>2022-01-02T13:33:33+01:00</time>
      </trkpt>
      <trkpt lat="48.77819" lon="2.08728">
        <ele>167</ele>
        <time>2022-01-02T13:33:45+01:00</time>
      </trkpt>
      <trkpt lat="48.7781" lon="2.08729">
        <ele>168</ele>
        <time>2022-01-02T13:33:53+01:00</time>
      </trkpt>
      <trkpt lat="48.778" lon="2.08734">
        <ele>166</ele>
        <time>2022-01-02T13:33:59+01:00</time>
      </trkpt>
      <trkpt lat="48.77796" lon="2.08747">
        <ele>166</ele>
        <time>2022-01-02T13:34:07+01:00</time>
      </trkpt>
      <trkpt lat="48.77795" lon="2.0876">
        <ele>163</ele>
        <time>2022-01-02T13:34:17+01:00</time>
      </trkpt>
      <trkpt lat="48.77789" lon="2.08771">
        <ele>163</ele>
        <time>2022-01-02T13:34:26+01:00</time>
      </trkpt>
      <trkpt lat="48.77783" lon="2.08781">
        <ele>165</ele>
        <time>2022-01-02T13:34:36+01:00</time>
      </trkpt>
      <trkpt lat="48.7778" lon="2.08795">
        <ele>166</ele>
        <time>2022-01-02T13:34:45+01:00</time>
      </trkpt>
      <trkpt lat="48.77776" lon="2.08808">
        <ele>164</ele>
        <time>2022-01-02T13:34:56+01:00</time>
      </trkpt>
      <trkpt lat="48.77773" lon="2.08822">
        <ele>164</ele>
        <time>2022-01-02T13:35:08+01:00</time>
      </trkpt>
      <trkpt lat="48.77769" lon="2.08836">
        <ele>165</ele>
        <time>2022-01-02T13:35:16+01:00</time>
      </trkpt>
      <trkpt lat="48.77766" lon="2.0885">
        <ele>163</ele>
        <time>2022-01-02T13:35:25+01:00</time>
      </trkpt>
      <trkpt lat="48.77766" lon="2.08865">
        <ele>161</ele>
        <time>2022-01-02T13:35:33+01:00</time>
      </trkpt>
      <trkpt lat="48.77763" lon="2.08878">
        <ele>159</ele>
        <time>2022-01-02T13:35:45+01:00</time>
      </trkpt>
      <trkpt lat="48.77761" lon="2.08892">
        <ele>159</ele>
        <time>2022-01-02T13:35:56+01:00</time>
      </trkpt>
      <trkpt lat="48.7776" lon="2.08908">
        <ele>158</ele>
        <time>2022-01-02T13:36:05+01:00</time>
      </trkpt>
      <trkpt lat="48.77754" lon="2.0892">
        <ele>157</ele>
        <time>2022-01-02T13:36:12+01:00</time>
      </trkpt>
      <trkpt lat="48.7775" lon="2.08932">
        <ele>156</ele>
        <time>2022-01-02T13:36:18+01:00</time>
      </trkpt>
      <trkpt lat="48.77749" lon="2.08946">
        <ele>156</ele>
        <time>2022-01-02T13:36:25+01:00</time>
      </trkpt>
      <trkpt lat="48.77748" lon="2.0896">
        <ele>157</ele>
        <time>2022-01-02T13:36:32+01:00</time>
      </trkpt>
      <trkpt lat="48.77743" lon="2.08974">
        <ele>157</ele>
        <time>2022-01-02T13:36:39+01:00</time>
      </trkpt>
      <trkpt lat="48.7774" lon="2.08989">
        <ele>159</ele>
        <time>2022-01-02T13:36:45+01:00</time>
      </trkpt>
      <trkpt lat="48.77735" lon="2.09001">
        <ele>166</ele>
        <time>2022-01-02T13:36:53+01:00</time>
      </trkpt>
      <trkpt lat="48.77739" lon="2.09014">
        <ele>169</ele>
        <time>2022-01-02T13:37:00+01:00</time>
      </trkpt>
      <trkpt lat="48.77742" lon="2.09027">
        <ele>169</ele>
        <time>2022-01-02T13:37:07+01:00</time>
      </trkpt>
      <trkpt lat="48.77745" lon="2.0904">
        <ele>171</ele>
        <time>2022-01-02T13:37:15+01:00</time>
      </trkpt>
      <trkpt lat="48.77742" lon="2.09054">
        <ele>169</ele>
        <time>2022-01-02T13:37:24+01:00</time>
      </trkpt>
      <trkpt lat="48.77735" lon="2.09065">
        <ele>166</ele>
        <time>2022-01-02T13:37:33+01:00</time>
      </trkpt>
      <trkpt lat="48.77731" lon="2.09078">
        <ele>166</ele>
        <time>2022-01-02T13:37:41+01:00</time>
      </trkpt>
      <trkpt lat="48.77726" lon="2.0909">
        <ele>167</ele>
        <time>2022-01-02T13:37:50+01:00</time>
      </trkpt>
      <trkpt lat="48.7772" lon="2.09104">
        <ele>166</ele>
        <time>2022-01-02T13:37:58+01:00</time>
      </trkpt>
      <trkpt lat="48.77718" lon="2.09117">
        <ele>159</ele>
        <time>2022-01-02T13:38:13+01:00</time>
      </trkpt>
      <trkpt lat="48.77727" lon="2.09123">
        <ele>149</ele>
        <time>2022-01-02T13:39:15+01:00</time>
      </trkpt>
      <trkpt lat="48.77733" lon="2.09134">
        <ele>153</ele>
        <time>2022-01-02T13:39:23+01:00</time>
      </trkpt>
      <trkpt lat="48.77737" lon="2.09146">
        <ele>150</ele>
        <time>2022-01-02T13:39:32+01:00</time>
      </trkpt>
      <trkpt lat="48.77743" lon="2.09158">
        <ele>152</ele>
        <time>2022-01-02T13:39:39+01:00</time>
      </trkpt>
      <trkpt lat="48.77748" lon="2.0917">
        <ele>154</ele>
        <time>2022-01-02T13:39:47+01:00</time>
      </trkpt>
      <trkpt lat="48.7775" lon="2.09184">
        <ele>153</ele>
        <time>2022-01-02T13:39:56+01:00</time>
      </trkpt>
      <trkpt lat="48.77749" lon="2.09197">
        <ele>156</ele>
        <time>2022-01-02T13:40:02+01:00</time>
      </trkpt>
      <trkpt lat="48.77749" lon="2.09211">
        <ele>160</ele>
        <time>2022-01-02T13:40:07+01:00</time>
      </trkpt>
      <trkpt lat="48.77749" lon="2.09227">
        <ele>165</ele>
        <time>2022-01-02T13:40:14+01:00</time>
      </trkpt>
      <trkpt lat="48.77753" lon="2.09241">
        <ele>169</ele>
        <time>2022-01-02T13:40:23+01:00</time>
      </trkpt>
      <trkpt lat="48.77756" lon="2.09254">
        <ele>170</ele>
        <time>2022-01-02T13:40:30+01:00</time>
      </trkpt>
      <trkpt lat="48.7776" lon="2.09266">
        <ele>168</ele>
        <time>2022-01-02T13:40:35+01:00</time>
      </trkpt>
      <trkpt lat="48.77768" lon="2.09275">
        <ele>165</ele>
        <time>2022-01-02T13:40:41+01:00</time>
      </trkpt>
      <trkpt lat="48.77772" lon="2.09287">
        <ele>162</ele>
        <time>2022-01-02T13:40:47+01:00</time>
      </trkpt>
      <trkpt lat="48.7778" lon="2.09296">
        <ele>160</ele>
        <time>2022-01-02T13:40:55+01:00</time>
      </trkpt>
      <trkpt lat="48.77787" lon="2.09307">
        <ele>159</ele>
        <time>2022-01-02T13:41:02+01:00</time>
      </trkpt>
      <trkpt lat="48.77792" lon="2.09318">
        <ele>159</ele>
        <time>2022-01-02T13:41:12+01:00</time>
      </trkpt>
      <trkpt lat="48.77801" lon="2.09327">
        <ele>159</ele>
        <time>2022-01-02T13:41:19+01:00</time>
      </trkpt>
      <trkpt lat="48.77807" lon="2.09336">
        <ele>158</ele>
        <time>2022-01-02T13:41:26+01:00</time>
      </trkpt>
      <trkpt lat="48.77815" lon="2.09347">
        <ele>155</ele>
        <time>2022-01-02T13:41:35+01:00</time>
      </trkpt>
      <trkpt lat="48.77822" lon="2.09359">
        <ele>153</ele>
        <time>2022-01-02T13:41:43+01:00</time>
      </trkpt>
      <trkpt lat="48.77829" lon="2.09369">
        <ele>151</ele>
        <time>2022-01-02T13:41:49+01:00</time>
      </trkpt>
      <trkpt lat="48.77836" lon="2.09378">
        <ele>149</ele>
        <time>2022-01-02T13:41:59+01:00</time>
      </trkpt>
      <trkpt lat="48.77842" lon="2.09391">
        <ele>147</ele>
        <time>2022-01-02T13:42:06+01:00</time>
      </trkpt>
      <trkpt lat="48.77851" lon="2.09399">
        <ele>143</ele>
        <time>2022-01-02T13:42:13+01:00</time>
      </trkpt>
      <trkpt lat="48.7786" lon="2.09404">
        <ele>141</ele>
        <time>2022-01-02T13:42:22+01:00</time>
      </trkpt>
      <trkpt lat="48.77868" lon="2.0941">
        <ele>140</ele>
        <time>2022-01-02T13:42:35+01:00</time>
      </trkpt>
      <trkpt lat="48.77875" lon="2.0942">
        <ele>138</ele>
        <time>2022-01-02T13:42:43+01:00</time>
      </trkpt>
      <trkpt lat="48.77879" lon="2.09432">
        <ele>137</ele>
        <time>2022-01-02T13:42:54+01:00</time>
      </trkpt>
      <trkpt lat="48.7788" lon="2.09447">
        <ele>136</ele>
        <time>2022-01-02T13:43:03+01:00</time>
      </trkpt>
      <trkpt lat="48.77883" lon="2.09461">
        <ele>135</ele>
        <time>2022-01-02T13:43:10+01:00</time>
      </trkpt>
      <trkpt lat="48.77888" lon="2.09475">
        <ele>137</ele>
        <time>2022-01-02T13:43:22+01:00</time>
      </trkpt>
      <trkpt lat="48.77893" lon="2.09486">
        <ele>137</ele>
        <time>2022-01-02T13:43:35+01:00</time>
      </trkpt>
      <trkpt lat="48.77891" lon="2.09501">
        <ele>134</ele>
        <time>2022-01-02T13:43:47+01:00</time>
      </trkpt>
      <trkpt lat="48.779" lon="2.09511">
        <ele>133</ele>
        <time>2022-01-02T13:43:55+01:00</time>
      </trkpt>
      <trkpt lat="48.77908" lon="2.09517">
        <ele>130</ele>
        <time>2022-01-02T13:44:00+01:00</time>
      </trkpt>
      <trkpt lat="48.77916" lon="2.09528">
        <ele>127</ele>
        <time>2022-01-02T13:44:09+01:00</time>
      </trkpt>
      <trkpt lat="48.77919" lon="2.09541">
        <ele>126</ele>
        <time>2022-01-02T13:44:20+01:00</time>
      </trkpt>
      <trkpt lat="48.7791" lon="2.09544">
        <ele>127</ele>
        <time>2022-01-02T13:44:32+01:00</time>
      </trkpt>
      <trkpt lat="48.77914" lon="2.09557">
        <ele>133</ele>
        <time>2022-01-02T13:45:16+01:00</time>
      </trkpt>
      <trkpt lat="48.77908" lon="2.09571">
        <ele>127</ele>
        <time>2022-01-02T13:46:34+01:00</time>
      </trkpt>
      <trkpt lat="48.77912" lon="2.09556">
        <ele>128</ele>
        <time>2022-01-02T13:48:35+01:00</time>
      </trkpt>
      <trkpt lat="48.77903" lon="2.09551">
        <ele>132</ele>
        <time>2022-01-02T13:48:47+01:00</time>
      </trkpt>
      <trkpt lat="48.77894" lon="2.0955">
        <ele>134</ele>
        <time>2022-01-02T13:48:53+01:00</time>
      </trkpt>
      <trkpt lat="48.77884" lon="2.09548">
        <ele>138</ele>
        <time>2022-01-02T13:49:02+01:00</time>
      </trkpt>
      <trkpt lat="48.77874" lon="2.09547">
        <ele>139</ele>
        <time>2022-01-02T13:49:10+01:00</time>
      </trkpt>
      <trkpt lat="48.77865" lon="2.09546">
        <ele>138</ele>
        <time>2022-01-02T13:49:16+01:00</time>
      </trkpt>
      <trkpt lat="48.77855" lon="2.09544">
        <ele>138</ele>
        <time>2022-01-02T13:49:26+01:00</time>
      </trkpt>
      <trkpt lat="48.77846" lon="2.09542">
        <ele>138</ele>
        <time>2022-01-02T13:49:35+01:00</time>
      </trkpt>
      <trkpt lat="48.77837" lon="2.09543">
        <ele>138</ele>
        <time>2022-01-02T13:49:44+01:00</time>
      </trkpt>
      <trkpt lat="48.77827" lon="2.09546">
        <ele>140</ele>
        <time>2022-01-02T13:49:52+01:00</time>
      </trkpt>
      <trkpt lat="48.77818" lon="2.09551">
        <ele>142</ele>
        <time>2022-01-02T13:49:58+01:00</time>
      </trkpt>
      <trkpt lat="48.7781" lon="2.0956">
        <ele>141</ele>
        <time>2022-01-02T13:50:03+01:00</time>
      </trkpt>
      <trkpt lat="48.77802" lon="2.09568">
        <ele>138</ele>
        <time>2022-01-02T13:50:14+01:00</time>
      </trkpt>
      <trkpt lat="48.77806" lon="2.09581">
        <ele>138</ele>
        <time>2022-01-02T13:50:20+01:00</time>
      </trkpt>
      <trkpt lat="48.77812" lon="2.09593">
        <ele>137</ele>
        <time>2022-01-02T13:50:24+01:00</time>
      </trkpt>
      <trkpt lat="48.77801" lon="2.09595">
        <ele>137</ele>
        <time>2022-01-02T13:50:29+01:00</time>
      </trkpt>
      <trkpt lat="48.77792" lon="2.09607">
        <ele>135</ele>
        <time>2022-01-02T13:50:33+01:00</time>
      </trkpt>
      <trkpt lat="48.77788" lon="2.09621">
        <ele>133</ele>
        <time>2022-01-02T13:50:39+01:00</time>
      </trkpt>
      <trkpt lat="48.77786" lon="2.09635">
        <ele>125</ele>
        <time>2022-01-02T13:50:48+01:00</time>
      </trkpt>
      <trkpt lat="48.77782" lon="2.09649">
        <ele>117</ele>
        <time>2022-01-02T13:50:56+01:00</time>
      </trkpt>
      <trkpt lat="48.77779" lon="2.09662">
        <ele>115</ele>
        <time>2022-01-02T13:51:03+01:00</time>
      </trkpt>
      <trkpt lat="48.77774" lon="2.09676">
        <ele>115</ele>
        <time>2022-01-02T13:51:11+01:00</time>
      </trkpt>
      <trkpt lat="48.77765" lon="2.09682">
        <ele>118</ele>
        <time>2022-01-02T13:51:21+01:00</time>
      </trkpt>
      <trkpt lat="48.77756" lon="2.09689">
        <ele>120</ele>
        <time>2022-01-02T13:51:30+01:00</time>
      </trkpt>
      <trkpt lat="48.77746" lon="2.09689">
        <ele>122</ele>
        <time>2022-01-02T13:51:39+01:00</time>
      </trkpt>
      <trkpt lat="48.77737" lon="2.09694">
        <ele>127</ele>
        <time>2022-01-02T13:51:49+01:00</time>
      </trkpt>
      <trkpt lat="48.7773" lon="2.09703">
        <ele>126</ele>
        <time>2022-01-02T13:51:57+01:00</time>
      </trkpt>
      <trkpt lat="48.77722" lon="2.09711">
        <ele>127</ele>
        <time>2022-01-02T13:52:06+01:00</time>
      </trkpt>
      <trkpt lat="48.77713" lon="2.09714">
        <ele>128</ele>
        <time>2022-01-02T13:52:14+01:00</time>
      </trkpt>
      <trkpt lat="48.77704" lon="2.0972">
        <ele>131</ele>
        <time>2022-01-02T13:52:25+01:00</time>
      </trkpt>
      <trkpt lat="48.77695" lon="2.09721">
        <ele>132</ele>
        <time>2022-01-02T13:52:33+01:00</time>
      </trkpt>
      <trkpt lat="48.77686" lon="2.09721">
        <ele>131</ele>
        <time>2022-01-02T13:52:42+01:00</time>
      </trkpt>
      <trkpt lat="48.77676" lon="2.09721">
        <ele>131</ele>
        <time>2022-01-02T13:52:49+01:00</time>
      </trkpt>
      <trkpt lat="48.77667" lon="2.09716">
        <ele>133</ele>
        <time>2022-01-02T13:53:02+01:00</time>
      </trkpt>
      <trkpt lat="48.77658" lon="2.09715">
        <ele>136</ele>
        <time>2022-01-02T13:53:16+01:00</time>
      </trkpt>
      <trkpt lat="48.77648" lon="2.09717">
        <ele>138</ele>
        <time>2022-01-02T13:53:26+01:00</time>
      </trkpt>
      <trkpt lat="48.7764" lon="2.09723">
        <ele>140</ele>
        <time>2022-01-02T13:53:34+01:00</time>
      </trkpt>
      <trkpt lat="48.77632" lon="2.09729">
        <ele>138</ele>
        <time>2022-01-02T13:53:40+01:00</time>
      </trkpt>
      <trkpt lat="48.77623" lon="2.09736">
        <ele>138</ele>
        <time>2022-01-02T13:53:48+01:00</time>
      </trkpt>
      <trkpt lat="48.77613" lon="2.09741">
        <ele>138</ele>
        <time>2022-01-02T13:53:57+01:00</time>
      </trkpt>
      <trkpt lat="48.77604" lon="2.09742">
        <ele>139</ele>
        <time>2022-01-02T13:54:05+01:00</time>
      </trkpt>
      <trkpt lat="48.77595" lon="2.0974">
        <ele>140</ele>
        <time>2022-01-02T13:54:15+01:00</time>
      </trkpt>
      <trkpt lat="48.77586" lon="2.09736">
        <ele>139</ele>
        <time>2022-01-02T13:54:24+01:00</time>
      </trkpt>
      <trkpt lat="48.77577" lon="2.09734">
        <ele>140</ele>
        <time>2022-01-02T13:54:32+01:00</time>
      </trkpt>
      <trkpt lat="48.77568" lon="2.09733">
        <ele>141</ele>
        <time>2022-01-02T13:54:39+01:00</time>
      </trkpt>
      <trkpt lat="48.77558" lon="2.09736">
        <ele>144</ele>
        <time>2022-01-02T13:54:47+01:00</time>
      </trkpt>
      <trkpt lat="48.77549" lon="2.09741">
        <ele>145</ele>
        <time>2022-01-02T13:54:54+01:00</time>
      </trkpt>
      <trkpt lat="48.7754" lon="2.09746">
        <ele>146</ele>
        <time>2022-01-02T13:55:02+01:00</time>
      </trkpt>
      <trkpt lat="48.77532" lon="2.09754">
        <ele>149</ele>
        <time>2022-01-02T13:55:11+01:00</time>
      </trkpt>
      <trkpt lat="48.77524" lon="2.09763">
        <ele>149</ele>
        <time>2022-01-02T13:55:18+01:00</time>
      </trkpt>
      <trkpt lat="48.77516" lon="2.09769">
        <ele>148</ele>
        <time>2022-01-02T13:55:26+01:00</time>
      </trkpt>
      <trkpt lat="48.77506" lon="2.09774">
        <ele>146</ele>
        <time>2022-01-02T13:55:33+01:00</time>
      </trkpt>
      <trkpt lat="48.77496" lon="2.09779">
        <ele>143</ele>
        <time>2022-01-02T13:55:42+01:00</time>
      </trkpt>
      <trkpt lat="48.77487" lon="2.09785">
        <ele>143</ele>
        <time>2022-01-02T13:55:48+01:00</time>
      </trkpt>
      <trkpt lat="48.77478" lon="2.09788">
        <ele>144</ele>
        <time>2022-01-02T13:55:57+01:00</time>
      </trkpt>
      <trkpt lat="48.77469" lon="2.09793">
        <ele>142</ele>
        <time>2022-01-02T13:56:05+01:00</time>
      </trkpt>
      <trkpt lat="48.77461" lon="2.09801">
        <ele>145</ele>
        <time>2022-01-02T13:56:12+01:00</time>
      </trkpt>
      <trkpt lat="48.77453" lon="2.09811">
        <ele>146</ele>
        <time>2022-01-02T13:56:19+01:00</time>
      </trkpt>
      <trkpt lat="48.77446" lon="2.0982">
        <ele>144</ele>
        <time>2022-01-02T13:56:28+01:00</time>
      </trkpt>
      <trkpt lat="48.77438" lon="2.09828">
        <ele>144</ele>
        <time>2022-01-02T13:56:35+01:00</time>
      </trkpt>
      <trkpt lat="48.77429" lon="2.09834">
        <ele>145</ele>
        <time>2022-01-02T13:56:45+01:00</time>
      </trkpt>
      <trkpt lat="48.77421" lon="2.09838">
        <ele>145</ele>
        <time>2022-01-02T13:56:52+01:00</time>
      </trkpt>
      <trkpt lat="48.77412" lon="2.09845">
        <ele>146</ele>
        <time>2022-01-02T13:57:00+01:00</time>
      </trkpt>
      <trkpt lat="48.77404" lon="2.09854">
        <ele>146</ele>
        <time>2022-01-02T13:57:08+01:00</time>
      </trkpt>
      <trkpt lat="48.77397" lon="2.09863">
        <ele>146</ele>
        <time>2022-01-02T13:57:17+01:00</time>
      </trkpt>
      <trkpt lat="48.7739" lon="2.09872">
        <ele>146</ele>
        <time>2022-01-02T13:57:25+01:00</time>
      </trkpt>
      <trkpt lat="48.77385" lon="2.09886">
        <ele>147</ele>
        <time>2022-01-02T13:57:31+01:00</time>
      </trkpt>
      <trkpt lat="48.77384" lon="2.09902">
        <ele>147</ele>
        <time>2022-01-02T13:57:38+01:00</time>
      </trkpt>
      <trkpt lat="48.77385" lon="2.09917">
        <ele>147</ele>
        <time>2022-01-02T13:57:45+01:00</time>
      </trkpt>
      <trkpt lat="48.77387" lon="2.0993">
        <ele>147</ele>
        <time>2022-01-02T13:57:50+01:00</time>
      </trkpt>
      <trkpt lat="48.77392" lon="2.09942">
        <ele>149</ele>
        <time>2022-01-02T13:57:57+01:00</time>
      </trkpt>
      <trkpt lat="48.77395" lon="2.09955">
        <ele>150</ele>
        <time>2022-01-02T13:58:08+01:00</time>
      </trkpt>
      <trkpt lat="48.77392" lon="2.09969">
        <ele>147</ele>
        <time>2022-01-02T13:58:22+01:00</time>
      </trkpt>
      <trkpt lat="48.77384" lon="2.09977">
        <ele>144</ele>
        <time>2022-01-02T13:58:29+01:00</time>
      </trkpt>
      <trkpt lat="48.77377" lon="2.09986">
        <ele>143</ele>
        <time>2022-01-02T13:58:38+01:00</time>
      </trkpt>
      <trkpt lat="48.77371" lon="2.09998">
        <ele>142</ele>
        <time>2022-01-02T13:58:46+01:00</time>
      </trkpt>
      <trkpt lat="48.77367" lon="2.10011">
        <ele>138</ele>
        <time>2022-01-02T13:58:55+01:00</time>
      </trkpt>
      <trkpt lat="48.77366" lon="2.10025">
        <ele>139</ele>
        <time>2022-01-02T14:02:56+01:00</time>
      </trkpt>
      <trkpt lat="48.77361" lon="2.10038">
        <ele>140</ele>
        <time>2022-01-02T14:03:21+01:00</time>
      </trkpt>
      <trkpt lat="48.77354" lon="2.10048">
        <ele>143</ele>
        <time>2022-01-02T14:03:30+01:00</time>
      </trkpt>
      <trkpt lat="48.77346" lon="2.10058">
        <ele>146</ele>
        <time>2022-01-02T14:03:44+01:00</time>
      </trkpt>
      <trkpt lat="48.77336" lon="2.10062">
        <ele>146</ele>
        <time>2022-01-02T14:03:51+01:00</time>
      </trkpt>
      <trkpt lat="48.77327" lon="2.10065">
        <ele>149</ele>
        <time>2022-01-02T14:03:58+01:00</time>
      </trkpt>
      <trkpt lat="48.77319" lon="2.10072">
        <ele>152</ele>
        <time>2022-01-02T14:04:05+01:00</time>
      </trkpt>
      <trkpt lat="48.77311" lon="2.10082">
        <ele>152</ele>
        <time>2022-01-02T14:04:13+01:00</time>
      </trkpt>
      <trkpt lat="48.77307" lon="2.10095">
        <ele>152</ele>
        <time>2022-01-02T14:04:18+01:00</time>
      </trkpt>
      <trkpt lat="48.77302" lon="2.10108">
        <ele>152</ele>
        <time>2022-01-02T14:04:28+01:00</time>
      </trkpt>
      <trkpt lat="48.77294" lon="2.10116">
        <ele>154</ele>
        <time>2022-01-02T14:04:38+01:00</time>
      </trkpt>
      <trkpt lat="48.77285" lon="2.10122">
        <ele>153</ele>
        <time>2022-01-02T14:04:46+01:00</time>
      </trkpt>
      <trkpt lat="48.77276" lon="2.10121">
        <ele>152</ele>
        <time>2022-01-02T14:04:54+01:00</time>
      </trkpt>
      <trkpt lat="48.77266" lon="2.10124">
        <ele>151</ele>
        <time>2022-01-02T14:05:02+01:00</time>
      </trkpt>
      <trkpt lat="48.77259" lon="2.10132">
        <ele>151</ele>
        <time>2022-01-02T14:05:08+01:00</time>
      </trkpt>
      <trkpt lat="48.77252" lon="2.10142">
        <ele>151</ele>
        <time>2022-01-02T14:05:15+01:00</time>
      </trkpt>
      <trkpt lat="48.77248" lon="2.10154">
        <ele>150</ele>
        <time>2022-01-02T14:05:22+01:00</time>
      </trkpt>
      <trkpt lat="48.77243" lon="2.10167">
        <ele>147</ele>
        <time>2022-01-02T14:05:28+01:00</time>
      </trkpt>
      <trkpt lat="48.77239" lon="2.1018">
        <ele>147</ele>
        <time>2022-01-02T14:05:36+01:00</time>
      </trkpt>
      <trkpt lat="48.77235" lon="2.10194">
        <ele>144</ele>
        <time>2022-01-02T14:05:46+01:00</time>
      </trkpt>
      <trkpt lat="48.77231" lon="2.10207">
        <ele>146</ele>
        <time>2022-01-02T14:05:53+01:00</time>
      </trkpt>
      <trkpt lat="48.77227" lon="2.10219">
        <ele>146</ele>
        <time>2022-01-02T14:05:59+01:00</time>
      </trkpt>
      <trkpt lat="48.77226" lon="2.10234">
        <ele>148</ele>
        <time>2022-01-02T14:06:08+01:00</time>
      </trkpt>
      <trkpt lat="48.77224" lon="2.10249">
        <ele>149</ele>
        <time>2022-01-02T14:06:15+01:00</time>
      </trkpt>
      <trkpt lat="48.77221" lon="2.10263">
        <ele>150</ele>
        <time>2022-01-02T14:06:23+01:00</time>
      </trkpt>
      <trkpt lat="48.77217" lon="2.10276">
        <ele>150</ele>
        <time>2022-01-02T14:06:30+01:00</time>
      </trkpt>
      <trkpt lat="48.77212" lon="2.10289">
        <ele>149</ele>
        <time>2022-01-02T14:06:40+01:00</time>
      </trkpt>
      <trkpt lat="48.77207" lon="2.10302">
        <ele>150</ele>
        <time>2022-01-02T14:06:48+01:00</time>
      </trkpt>
      <trkpt lat="48.77203" lon="2.10315">
        <ele>148</ele>
        <time>2022-01-02T14:06:57+01:00</time>
      </trkpt>
      <trkpt lat="48.772" lon="2.1033">
        <ele>149</ele>
        <time>2022-01-02T14:07:05+01:00</time>
      </trkpt>
      <trkpt lat="48.77201" lon="2.10343">
        <ele>150</ele>
        <time>2022-01-02T14:07:11+01:00</time>
      </trkpt>
      <trkpt lat="48.77199" lon="2.10358">
        <ele>150</ele>
        <time>2022-01-02T14:07:18+01:00</time>
      </trkpt>
      <trkpt lat="48.77199" lon="2.10373">
        <ele>151</ele>
        <time>2022-01-02T14:07:25+01:00</time>
      </trkpt>
      <trkpt lat="48.77199" lon="2.10387">
        <ele>154</ele>
        <time>2022-01-02T14:07:33+01:00</time>
      </trkpt>
      <trkpt lat="48.772" lon="2.10402">
        <ele>154</ele>
        <time>2022-01-02T14:07:41+01:00</time>
      </trkpt>
      <trkpt lat="48.77201" lon="2.10416">
        <ele>154</ele>
        <time>2022-01-02T14:07:48+01:00</time>
      </trkpt>
      <trkpt lat="48.77198" lon="2.1043">
        <ele>155</ele>
        <time>2022-01-02T14:07:57+01:00</time>
      </trkpt>
      <trkpt lat="48.77197" lon="2.10444">
        <ele>154</ele>
        <time>2022-01-02T14:08:06+01:00</time>
      </trkpt>
      <trkpt lat="48.77198" lon="2.10458">
        <ele>153</ele>
        <time>2022-01-02T14:08:13+01:00</time>
      </trkpt>
      <trkpt lat="48.77202" lon="2.10472">
        <ele>153</ele>
        <time>2022-01-02T14:08:20+01:00</time>
      </trkpt>
      <trkpt lat="48.77206" lon="2.10484">
        <ele>154</ele>
        <time>2022-01-02T14:08:27+01:00</time>
      </trkpt>
      <trkpt lat="48.77209" lon="2.10499">
        <ele>152</ele>
        <time>2022-01-02T14:08:33+01:00</time>
      </trkpt>
      <trkpt lat="48.77205" lon="2.10513">
        <ele>150</ele>
        <time>2022-01-02T14:08:43+01:00</time>
      </trkpt>
      <trkpt lat="48.77202" lon="2.10527">
        <ele>151</ele>
        <time>2022-01-02T14:08:58+01:00</time>
      </trkpt>
      <trkpt lat="48.77204" lon="2.10541">
        <ele>152</ele>
        <time>2022-01-02T14:09:07+01:00</time>
      </trkpt>
      <trkpt lat="48.77208" lon="2.10555">
        <ele>153</ele>
        <time>2022-01-02T14:09:14+01:00</time>
      </trkpt>
      <trkpt lat="48.77212" lon="2.10568">
        <ele>156</ele>
        <time>2022-01-02T14:09:21+01:00</time>
      </trkpt>
      <trkpt lat="48.77215" lon="2.10581">
        <ele>158</ele>
        <time>2022-01-02T14:09:30+01:00</time>
      </trkpt>
      <trkpt lat="48.77216" lon="2.10595">
        <ele>159</ele>
        <time>2022-01-02T14:09:37+01:00</time>
      </trkpt>
      <trkpt lat="48.77219" lon="2.10608">
        <ele>161</ele>
        <time>2022-01-02T14:09:44+01:00</time>
      </trkpt>
      <trkpt lat="48.77223" lon="2.10622">
        <ele>162</ele>
        <time>2022-01-02T14:09:52+01:00</time>
      </trkpt>
      <trkpt lat="48.77227" lon="2.10635">
        <ele>155</ele>
        <time>2022-01-02T14:10:02+01:00</time>
      </trkpt>
      <trkpt lat="48.77222" lon="2.10649">
        <ele>151</ele>
        <time>2022-01-02T14:10:15+01:00</time>
      </trkpt>
      <trkpt lat="48.77214" lon="2.10656">
        <ele>151</ele>
        <time>2022-01-02T14:10:22+01:00</time>
      </trkpt>
      <trkpt lat="48.77208" lon="2.10669">
        <ele>154</ele>
        <time>2022-01-02T14:10:29+01:00</time>
      </trkpt>
      <trkpt lat="48.77201" lon="2.10678">
        <ele>160</ele>
        <time>2022-01-02T14:10:37+01:00</time>
      </trkpt>
      <trkpt lat="48.77192" lon="2.10681">
        <ele>161</ele>
        <time>2022-01-02T14:10:46+01:00</time>
      </trkpt>
      <trkpt lat="48.77182" lon="2.10677">
        <ele>160</ele>
        <time>2022-01-02T14:10:56+01:00</time>
      </trkpt>
      <trkpt lat="48.77174" lon="2.1067">
        <ele>157</ele>
        <time>2022-01-02T14:11:11+01:00</time>
      </trkpt>
      <trkpt lat="48.77164" lon="2.10668">
        <ele>158</ele>
        <time>2022-01-02T14:11:18+01:00</time>
      </trkpt>
      <trkpt lat="48.77154" lon="2.10665">
        <ele>157</ele>
        <time>2022-01-02T14:11:26+01:00</time>
      </trkpt>
      <trkpt lat="48.77145" lon="2.10661">
        <ele>156</ele>
        <time>2022-01-02T14:11:31+01:00</time>
      </trkpt>
      <trkpt lat="48.77135" lon="2.10659">
        <ele>155</ele>
        <time>2022-01-02T14:11:41+01:00</time>
      </trkpt>
      <trkpt lat="48.77126" lon="2.10658">
        <ele>155</ele>
        <time>2022-01-02T14:11:47+01:00</time>
      </trkpt>
      <trkpt lat="48.77118" lon="2.10654">
        <ele>153</ele>
        <time>2022-01-02T14:11:55+01:00</time>
      </trkpt>
      <trkpt lat="48.77109" lon="2.10655">
        <ele>155</ele>
        <time>2022-01-02T14:12:04+01:00</time>
      </trkpt>
      <trkpt lat="48.77109" lon="2.10669">
        <ele>156</ele>
        <time>2022-01-02T14:13:03+01:00</time>
      </trkpt>
      <trkpt lat="48.77108" lon="2.10683">
        <ele>155</ele>
        <time>2022-01-02T14:13:10+01:00</time>
      </trkpt>
      <trkpt lat="48.77108" lon="2.10698">
        <ele>157</ele>
        <time>2022-01-02T14:13:17+01:00</time>
      </trkpt>
      <trkpt lat="48.7711" lon="2.10713">
        <ele>158</ele>
        <time>2022-01-02T14:13:25+01:00</time>
      </trkpt>
      <trkpt lat="48.77112" lon="2.10727">
        <ele>157</ele>
        <time>2022-01-02T14:13:33+01:00</time>
      </trkpt>
      <trkpt lat="48.77114" lon="2.10741">
        <ele>155</ele>
        <time>2022-01-02T14:13:43+01:00</time>
      </trkpt>
      <trkpt lat="48.77114" lon="2.10755">
        <ele>155</ele>
        <time>2022-01-02T14:13:54+01:00</time>
      </trkpt>
      <trkpt lat="48.77116" lon="2.10769">
        <ele>154</ele>
        <time>2022-01-02T14:14:03+01:00</time>
      </trkpt>
      <trkpt lat="48.77114" lon="2.10784">
        <ele>152</ele>
        <time>2022-01-02T14:14:11+01:00</time>
      </trkpt>
      <trkpt lat="48.77112" lon="2.10797">
        <ele>151</ele>
        <time>2022-01-02T14:14:18+01:00</time>
      </trkpt>
      <trkpt lat="48.77114" lon="2.10812">
        <ele>151</ele>
        <time>2022-01-02T14:14:25+01:00</time>
      </trkpt>
      <trkpt lat="48.77116" lon="2.10828">
        <ele>151</ele>
        <time>2022-01-02T14:14:34+01:00</time>
      </trkpt>
      <trkpt lat="48.77114" lon="2.10842">
        <ele>153</ele>
        <time>2022-01-02T14:14:41+01:00</time>
      </trkpt>
      <trkpt lat="48.77115" lon="2.10856">
        <ele>153</ele>
        <time>2022-01-02T14:14:48+01:00</time>
      </trkpt>
      <trkpt lat="48.77114" lon="2.1087">
        <ele>150</ele>
        <time>2022-01-02T14:14:55+01:00</time>
      </trkpt>
      <trkpt lat="48.77113" lon="2.10884">
        <ele>150</ele>
        <time>2022-01-02T14:15:01+01:00</time>
      </trkpt>
      <trkpt lat="48.77112" lon="2.109">
        <ele>153</ele>
        <time>2022-01-02T14:15:08+01:00</time>
      </trkpt>
      <trkpt lat="48.77112" lon="2.10913">
        <ele>154</ele>
        <time>2022-01-02T14:15:15+01:00</time>
      </trkpt>
      <trkpt lat="48.77112" lon="2.10928">
        <ele>153</ele>
        <time>2022-01-02T14:15:23+01:00</time>
      </trkpt>
      <trkpt lat="48.77111" lon="2.10942">
        <ele>152</ele>
        <time>2022-01-02T14:15:31+01:00</time>
      </trkpt>
      <trkpt lat="48.77112" lon="2.10956">
        <ele>151</ele>
        <time>2022-01-02T14:15:39+01:00</time>
      </trkpt>
      <trkpt lat="48.77113" lon="2.10971">
        <ele>153</ele>
        <time>2022-01-02T14:15:47+01:00</time>
      </trkpt>
      <trkpt lat="48.77113" lon="2.10985">
        <ele>154</ele>
        <time>2022-01-02T14:15:54+01:00</time>
      </trkpt>
      <trkpt lat="48.77114" lon="2.10999">
        <ele>155</ele>
        <time>2022-01-02T14:16:02+01:00</time>
      </trkpt>
      <trkpt lat="48.77116" lon="2.11014">
        <ele>154</ele>
        <time>2022-01-02T14:16:10+01:00</time>
      </trkpt>
      <trkpt lat="48.77122" lon="2.11026">
        <ele>153</ele>
        <time>2022-01-02T14:16:20+01:00</time>
      </trkpt>
      <trkpt lat="48.77125" lon="2.1104">
        <ele>152</ele>
        <time>2022-01-02T14:16:27+01:00</time>
      </trkpt>
      <trkpt lat="48.77131" lon="2.11053">
        <ele>151</ele>
        <time>2022-01-02T14:16:37+01:00</time>
      </trkpt>
      <trkpt lat="48.77134" lon="2.11066">
        <ele>150</ele>
        <time>2022-01-02T14:16:45+01:00</time>
      </trkpt>
      <trkpt lat="48.77134" lon="2.11081">
        <ele>147</ele>
        <time>2022-01-02T14:16:54+01:00</time>
      </trkpt>
      <trkpt lat="48.77134" lon="2.11096">
        <ele>148</ele>
        <time>2022-01-02T14:17:01+01:00</time>
      </trkpt>
      <trkpt lat="48.77137" lon="2.11109">
        <ele>148</ele>
        <time>2022-01-02T14:17:08+01:00</time>
      </trkpt>
      <trkpt lat="48.77146" lon="2.11115">
        <ele>149</ele>
        <time>2022-01-02T14:17:15+01:00</time>
      </trkpt>
      <trkpt lat="48.77154" lon="2.11123">
        <ele>148</ele>
        <time>2022-01-02T14:17:25+01:00</time>
      </trkpt>
      <trkpt lat="48.77163" lon="2.11127">
        <ele>150</ele>
        <time>2022-01-02T14:17:33+01:00</time>
      </trkpt>
      <trkpt lat="48.77172" lon="2.11133">
        <ele>152</ele>
        <time>2022-01-02T14:17:40+01:00</time>
      </trkpt>
      <trkpt lat="48.7718" lon="2.11142">
        <ele>154</ele>
        <time>2022-01-02T14:17:48+01:00</time>
      </trkpt>
      <trkpt lat="48.77185" lon="2.11153">
        <ele>156</ele>
        <time>2022-01-02T14:17:56+01:00</time>
      </trkpt>
      <trkpt lat="48.7719" lon="2.11165">
        <ele>157</ele>
        <time>2022-01-02T14:18:02+01:00</time>
      </trkpt>
      <trkpt lat="48.77189" lon="2.11181">
        <ele>156</ele>
        <time>2022-01-02T14:18:10+01:00</time>
      </trkpt>
      <trkpt lat="48.77191" lon="2.11194">
        <ele>156</ele>
        <time>2022-01-02T14:18:18+01:00</time>
      </trkpt>
      <trkpt lat="48.77189" lon="2.11209">
        <ele>154</ele>
        <time>2022-01-02T14:18:28+01:00</time>
      </trkpt>
      <trkpt lat="48.77184" lon="2.11222">
        <ele>154</ele>
        <time>2022-01-02T14:18:34+01:00</time>
      </trkpt>
      <trkpt lat="48.77178" lon="2.11232">
        <ele>154</ele>
        <time>2022-01-02T14:18:40+01:00</time>
      </trkpt>
      <trkpt lat="48.77171" lon="2.11242">
        <ele>155</ele>
        <time>2022-01-02T14:18:47+01:00</time>
      </trkpt>
      <trkpt lat="48.77167" lon="2.11255">
        <ele>155</ele>
        <time>2022-01-02T14:18:54+01:00</time>
      </trkpt>
      <trkpt lat="48.77161" lon="2.11266">
        <ele>155</ele>
        <time>2022-01-02T14:19:03+01:00</time>
      </trkpt>
      <trkpt lat="48.77152" lon="2.11273">
        <ele>155</ele>
        <time>2022-01-02T14:19:13+01:00</time>
      </trkpt>
      <trkpt lat="48.77148" lon="2.11284">
        <ele>151</ele>
        <time>2022-01-02T14:19:22+01:00</time>
      </trkpt>
      <trkpt lat="48.77145" lon="2.113">
        <ele>149</ele>
        <time>2022-01-02T14:19:29+01:00</time>
      </trkpt>
      <trkpt lat="48.77144" lon="2.11314">
        <ele>149</ele>
        <time>2022-01-02T14:19:36+01:00</time>
      </trkpt>
      <trkpt lat="48.77146" lon="2.11328">
        <ele>149</ele>
        <time>2022-01-02T14:19:43+01:00</time>
      </trkpt>
      <trkpt lat="48.77148" lon="2.11342">
        <ele>148</ele>
        <time>2022-01-02T14:19:51+01:00</time>
      </trkpt>
      <trkpt lat="48.77149" lon="2.11357">
        <ele>147</ele>
        <time>2022-01-02T14:20:01+01:00</time>
      </trkpt>
      <trkpt lat="48.77149" lon="2.11371">
        <ele>147</ele>
        <time>2022-01-02T14:20:08+01:00</time>
      </trkpt>
      <trkpt lat="48.77148" lon="2.11386">
        <ele>148</ele>
        <time>2022-01-02T14:20:15+01:00</time>
      </trkpt>
      <trkpt lat="48.77145" lon="2.114">
        <ele>147</ele>
        <time>2022-01-02T14:20:22+01:00</time>
      </trkpt>
      <trkpt lat="48.77144" lon="2.11413">
        <ele>146</ele>
        <time>2022-01-02T14:20:30+01:00</time>
      </trkpt>
      <trkpt lat="48.77143" lon="2.11428">
        <ele>146</ele>
        <time>2022-01-02T14:20:37+01:00</time>
      </trkpt>
      <trkpt lat="48.77142" lon="2.11442">
        <ele>146</ele>
        <time>2022-01-02T14:20:43+01:00</time>
      </trkpt>
      <trkpt lat="48.77142" lon="2.11457">
        <ele>148</ele>
        <time>2022-01-02T14:20:50+01:00</time>
      </trkpt>
      <trkpt lat="48.77142" lon="2.11471">
        <ele>151</ele>
        <time>2022-01-02T14:20:57+01:00</time>
      </trkpt>
      <trkpt lat="48.77142" lon="2.11486">
        <ele>150</ele>
        <time>2022-01-02T14:21:04+01:00</time>
      </trkpt>
      <trkpt lat="48.77144" lon="2.11499">
        <ele>150</ele>
        <time>2022-01-02T14:21:10+01:00</time>
      </trkpt>
      <trkpt lat="48.77143" lon="2.11514">
        <ele>151</ele>
        <time>2022-01-02T14:21:17+01:00</time>
      </trkpt>
      <trkpt lat="48.77139" lon="2.11527">
        <ele>153</ele>
        <time>2022-01-02T14:21:24+01:00</time>
      </trkpt>
      <trkpt lat="48.77135" lon="2.1154">
        <ele>154</ele>
        <time>2022-01-02T14:21:31+01:00</time>
      </trkpt>
      <trkpt lat="48.77131" lon="2.11553">
        <ele>154</ele>
        <time>2022-01-02T14:21:40+01:00</time>
      </trkpt>
      <trkpt lat="48.77129" lon="2.11567">
        <ele>152</ele>
        <time>2022-01-02T14:21:47+01:00</time>
      </trkpt>
      <trkpt lat="48.77129" lon="2.11582">
        <ele>154</ele>
        <time>2022-01-02T14:21:53+01:00</time>
      </trkpt>
      <trkpt lat="48.77129" lon="2.11595">
        <ele>155</ele>
        <time>2022-01-02T14:22:00+01:00</time>
      </trkpt>
      <trkpt lat="48.7713" lon="2.11611">
        <ele>153</ele>
        <time>2022-01-02T14:22:08+01:00</time>
      </trkpt>
      <trkpt lat="48.77129" lon="2.11626">
        <ele>154</ele>
        <time>2022-01-02T14:22:16+01:00</time>
      </trkpt>
      <trkpt lat="48.7713" lon="2.11641">
        <ele>152</ele>
        <time>2022-01-02T14:22:25+01:00</time>
      </trkpt>
      <trkpt lat="48.77125" lon="2.11654">
        <ele>151</ele>
        <time>2022-01-02T14:22:32+01:00</time>
      </trkpt>
      <trkpt lat="48.7712" lon="2.11667">
        <ele>150</ele>
        <time>2022-01-02T14:22:40+01:00</time>
      </trkpt>
      <trkpt lat="48.77114" lon="2.11679">
        <ele>150</ele>
        <time>2022-01-02T14:22:48+01:00</time>
      </trkpt>
      <trkpt lat="48.77111" lon="2.11693">
        <ele>150</ele>
        <time>2022-01-02T14:22:56+01:00</time>
      </trkpt>
      <trkpt lat="48.7711" lon="2.11707">
        <ele>149</ele>
        <time>2022-01-02T14:23:04+01:00</time>
      </trkpt>
      <trkpt lat="48.77109" lon="2.11721">
        <ele>148</ele>
        <time>2022-01-02T14:23:11+01:00</time>
      </trkpt>
      <trkpt lat="48.77111" lon="2.11736">
        <ele>147</ele>
        <time>2022-01-02T14:23:19+01:00</time>
      </trkpt>
      <trkpt lat="48.77114" lon="2.1175">
        <ele>145</ele>
        <time>2022-01-02T14:23:28+01:00</time>
      </trkpt>
      <trkpt lat="48.77113" lon="2.11766">
        <ele>145</ele>
        <time>2022-01-02T14:23:35+01:00</time>
      </trkpt>
      <trkpt lat="48.77113" lon="2.1178">
        <ele>147</ele>
        <time>2022-01-02T14:23:43+01:00</time>
      </trkpt>
      <trkpt lat="48.7711" lon="2.11793">
        <ele>145</ele>
        <time>2022-01-02T14:23:50+01:00</time>
      </trkpt>
      <trkpt lat="48.7711" lon="2.11809">
        <ele>143</ele>
        <time>2022-01-02T14:23:58+01:00</time>
      </trkpt>
      <trkpt lat="48.77111" lon="2.11823">
        <ele>142</ele>
        <time>2022-01-02T14:24:05+01:00</time>
      </trkpt>
      <trkpt lat="48.77111" lon="2.11837">
        <ele>142</ele>
        <time>2022-01-02T14:24:11+01:00</time>
      </trkpt>
      <trkpt lat="48.77107" lon="2.1185">
        <ele>147</ele>
        <time>2022-01-02T14:24:25+01:00</time>
      </trkpt>
      <trkpt lat="48.77099" lon="2.11856">
        <ele>150</ele>
        <time>2022-01-02T14:24:35+01:00</time>
      </trkpt>
      <trkpt lat="48.7709" lon="2.1186">
        <ele>149</ele>
        <time>2022-01-02T14:24:45+01:00</time>
      </trkpt>
      <trkpt lat="48.77081" lon="2.11866">
        <ele>148</ele>
        <time>2022-01-02T14:24:53+01:00</time>
      </trkpt>
      <trkpt lat="48.77072" lon="2.11871">
        <ele>150</ele>
        <time>2022-01-02T14:25:01+01:00</time>
      </trkpt>
      <trkpt lat="48.77063" lon="2.11878">
        <ele>152</ele>
        <time>2022-01-02T14:25:09+01:00</time>
      </trkpt>
      <trkpt lat="48.77054" lon="2.11885">
        <ele>149</ele>
        <time>2022-01-02T14:25:20+01:00</time>
      </trkpt>
      <trkpt lat="48.77047" lon="2.11892">
        <ele>153</ele>
        <time>2022-01-02T14:25:29+01:00</time>
      </trkpt>
      <trkpt lat="48.77038" lon="2.11897">
        <ele>154</ele>
        <time>2022-01-02T14:25:39+01:00</time>
      </trkpt>
      <trkpt lat="48.77028" lon="2.11902">
        <ele>153</ele>
        <time>2022-01-02T14:25:46+01:00</time>
      </trkpt>
      <trkpt lat="48.7702" lon="2.11908">
        <ele>153</ele>
        <time>2022-01-02T14:25:55+01:00</time>
      </trkpt>
      <trkpt lat="48.77011" lon="2.11913">
        <ele>151</ele>
        <time>2022-01-02T14:26:03+01:00</time>
      </trkpt>
      <trkpt lat="48.77009" lon="2.11929">
        <ele>148</ele>
        <time>2022-01-02T14:26:10+01:00</time>
      </trkpt>
      <trkpt lat="48.7701" lon="2.11943">
        <ele>147</ele>
        <time>2022-01-02T14:26:17+01:00</time>
      </trkpt>
      <trkpt lat="48.77009" lon="2.11959">
        <ele>145</ele>
        <time>2022-01-02T14:26:24+01:00</time>
      </trkpt>
      <trkpt lat="48.7701" lon="2.11973">
        <ele>148</ele>
        <time>2022-01-02T14:26:31+01:00</time>
      </trkpt>
      <trkpt lat="48.77014" lon="2.11987">
        <ele>149</ele>
        <time>2022-01-02T14:26:40+01:00</time>
      </trkpt>
      <trkpt lat="48.77021" lon="2.11996">
        <ele>149</ele>
        <time>2022-01-02T14:26:48+01:00</time>
      </trkpt>
      <trkpt lat="48.7703" lon="2.12001">
        <ele>148</ele>
        <time>2022-01-02T14:26:54+01:00</time>
      </trkpt>
      <trkpt lat="48.77038" lon="2.12009">
        <ele>148</ele>
        <time>2022-01-02T14:27:01+01:00</time>
      </trkpt>
      <trkpt lat="48.77043" lon="2.12021">
        <ele>151</ele>
        <time>2022-01-02T14:27:09+01:00</time>
      </trkpt>
      <trkpt lat="48.7704" lon="2.12035">
        <ele>151</ele>
        <time>2022-01-02T14:27:18+01:00</time>
      </trkpt>
      <trkpt lat="48.77036" lon="2.1205">
        <ele>151</ele>
        <time>2022-01-02T14:27:27+01:00</time>
      </trkpt>
      <trkpt lat="48.77034" lon="2.12064">
        <ele>151</ele>
        <time>2022-01-02T14:27:38+01:00</time>
      </trkpt>
      <trkpt lat="48.77028" lon="2.12076">
        <ele>147</ele>
        <time>2022-01-02T14:27:46+01:00</time>
      </trkpt>
      <trkpt lat="48.77019" lon="2.12076">
        <ele>149</ele>
        <time>2022-01-02T14:27:59+01:00</time>
      </trkpt>
      <trkpt lat="48.7701" lon="2.1207">
        <ele>147</ele>
        <time>2022-01-02T14:28:11+01:00</time>
      </trkpt>
      <trkpt lat="48.77001" lon="2.12069">
        <ele>145</ele>
        <time>2022-01-02T14:28:23+01:00</time>
      </trkpt>
      <trkpt lat="48.76993" lon="2.12059">
        <ele>143</ele>
        <time>2022-01-02T14:28:30+01:00</time>
      </trkpt>
      <trkpt lat="48.76986" lon="2.12048">
        <ele>143</ele>
        <time>2022-01-02T14:28:34+01:00</time>
      </trkpt>
      <trkpt lat="48.76977" lon="2.12039">
        <ele>143</ele>
        <time>2022-01-02T14:28:39+01:00</time>
      </trkpt>
      <trkpt lat="48.76969" lon="2.12032">
        <ele>145</ele>
        <time>2022-01-02T14:28:46+01:00</time>
      </trkpt>
      <trkpt lat="48.7696" lon="2.12028">
        <ele>145</ele>
        <time>2022-01-02T14:28:54+01:00</time>
      </trkpt>
      <trkpt lat="48.76951" lon="2.1202">
        <ele>147</ele>
        <time>2022-01-02T14:29:00+01:00</time>
      </trkpt>
      <trkpt lat="48.76942" lon="2.12016">
        <ele>148</ele>
        <time>2022-01-02T14:29:07+01:00</time>
      </trkpt>
      <trkpt lat="48.76934" lon="2.12009">
        <ele>147</ele>
        <time>2022-01-02T14:29:14+01:00</time>
      </trkpt>
      <trkpt lat="48.76926" lon="2.12001">
        <ele>148</ele>
        <time>2022-01-02T14:29:22+01:00</time>
      </trkpt>
      <trkpt lat="48.76917" lon="2.12">
        <ele>148</ele>
        <time>2022-01-02T14:29:29+01:00</time>
      </trkpt>
      <trkpt lat="48.76908" lon="2.12007">
        <ele>147</ele>
        <time>2022-01-02T14:29:41+01:00</time>
      </trkpt>
      <trkpt lat="48.76899" lon="2.1201">
        <ele>148</ele>
        <time>2022-01-02T14:29:49+01:00</time>
      </trkpt>
      <trkpt lat="48.76896" lon="2.12023">
        <ele>146</ele>
        <time>2022-01-02T14:29:57+01:00</time>
      </trkpt>
      <trkpt lat="48.76898" lon="2.12037">
        <ele>144</ele>
        <time>2022-01-02T14:30:04+01:00</time>
      </trkpt>
      <trkpt lat="48.76896" lon="2.12051">
        <ele>145</ele>
        <time>2022-01-02T14:30:12+01:00</time>
      </trkpt>
      <trkpt lat="48.76896" lon="2.12066">
        <ele>143</ele>
        <time>2022-01-02T14:30:19+01:00</time>
      </trkpt>
      <trkpt lat="48.76896" lon="2.12079">
        <ele>142</ele>
        <time>2022-01-02T14:30:27+01:00</time>
      </trkpt>
      <trkpt lat="48.76896" lon="2.12093">
        <ele>142</ele>
        <time>2022-01-02T14:30:33+01:00</time>
      </trkpt>
      <trkpt lat="48.76896" lon="2.12108">
        <ele>144</ele>
        <time>2022-01-02T14:30:40+01:00</time>
      </trkpt>
      <trkpt lat="48.76896" lon="2.12122">
        <ele>145</ele>
        <time>2022-01-02T14:30:47+01:00</time>
      </trkpt>
      <trkpt lat="48.76896" lon="2.12137">
        <ele>143</ele>
        <time>2022-01-02T14:30:55+01:00</time>
      </trkpt>
      <trkpt lat="48.76894" lon="2.12152">
        <ele>142</ele>
        <time>2022-01-02T14:31:03+01:00</time>
      </trkpt>
      <trkpt lat="48.76895" lon="2.12166">
        <ele>141</ele>
        <time>2022-01-02T14:31:09+01:00</time>
      </trkpt>
      <trkpt lat="48.76897" lon="2.12179">
        <ele>141</ele>
        <time>2022-01-02T14:31:15+01:00</time>
      </trkpt>
      <trkpt lat="48.76895" lon="2.12193">
        <ele>147</ele>
        <time>2022-01-02T14:31:26+01:00</time>
      </trkpt>
      <trkpt lat="48.76893" lon="2.12207">
        <ele>150</ele>
        <time>2022-01-02T14:31:39+01:00</time>
      </trkpt>
      <trkpt lat="48.76891" lon="2.12222">
        <ele>148</ele>
        <time>2022-01-02T14:32:00+01:00</time>
      </trkpt>
      <trkpt lat="48.7689" lon="2.12236">
        <ele>146</ele>
        <time>2022-01-02T14:32:07+01:00</time>
      </trkpt>
      <trkpt lat="48.76891" lon="2.12251">
        <ele>146</ele>
        <time>2022-01-02T14:32:13+01:00</time>
      </trkpt>
      <trkpt lat="48.7689" lon="2.12267">
        <ele>146</ele>
        <time>2022-01-02T14:32:20+01:00</time>
      </trkpt>
      <trkpt lat="48.76888" lon="2.1228">
        <ele>145</ele>
        <time>2022-01-02T14:32:27+01:00</time>
      </trkpt>
      <trkpt lat="48.76888" lon="2.12294">
        <ele>143</ele>
        <time>2022-01-02T14:32:35+01:00</time>
      </trkpt>
      <trkpt lat="48.76887" lon="2.12308">
        <ele>144</ele>
        <time>2022-01-02T14:32:41+01:00</time>
      </trkpt>
      <trkpt lat="48.76889" lon="2.12322">
        <ele>142</ele>
        <time>2022-01-02T14:32:48+01:00</time>
      </trkpt>
      <trkpt lat="48.7689" lon="2.12337">
        <ele>142</ele>
        <time>2022-01-02T14:32:54+01:00</time>
      </trkpt>
      <trkpt lat="48.76886" lon="2.1235">
        <ele>144</ele>
        <time>2022-01-02T14:33:03+01:00</time>
      </trkpt>
      <trkpt lat="48.76885" lon="2.12364">
        <ele>144</ele>
        <time>2022-01-02T14:33:10+01:00</time>
      </trkpt>
      <trkpt lat="48.76886" lon="2.12378">
        <ele>146</ele>
        <time>2022-01-02T14:33:18+01:00</time>
      </trkpt>
      <trkpt lat="48.76884" lon="2.12392">
        <ele>146</ele>
        <time>2022-01-02T14:33:24+01:00</time>
      </trkpt>
      <trkpt lat="48.76884" lon="2.12407">
        <ele>146</ele>
        <time>2022-01-02T14:33:30+01:00</time>
      </trkpt>
      <trkpt lat="48.76883" lon="2.12423">
        <ele>145</ele>
        <time>2022-01-02T14:33:39+01:00</time>
      </trkpt>
      <trkpt lat="48.76882" lon="2.12437">
        <ele>146</ele>
        <time>2022-01-02T14:33:46+01:00</time>
      </trkpt>
      <trkpt lat="48.7688" lon="2.12452">
        <ele>145</ele>
        <time>2022-01-02T14:33:53+01:00</time>
      </trkpt>
      <trkpt lat="48.76881" lon="2.12467">
        <ele>144</ele>
        <time>2022-01-02T14:34:01+01:00</time>
      </trkpt>
      <trkpt lat="48.7688" lon="2.12482">
        <ele>142</ele>
        <time>2022-01-02T14:34:08+01:00</time>
      </trkpt>
      <trkpt lat="48.76883" lon="2.12496">
        <ele>142</ele>
        <time>2022-01-02T14:34:16+01:00</time>
      </trkpt>
      <trkpt lat="48.76887" lon="2.12509">
        <ele>140</ele>
        <time>2022-01-02T14:34:24+01:00</time>
      </trkpt>
      <trkpt lat="48.76888" lon="2.12523">
        <ele>141</ele>
        <time>2022-01-02T14:34:35+01:00</time>
      </trkpt>
      <trkpt lat="48.76888" lon="2.12537">
        <ele>141</ele>
        <time>2022-01-02T14:34:42+01:00</time>
      </trkpt>
      <trkpt lat="48.76886" lon="2.12552">
        <ele>140</ele>
        <time>2022-01-02T14:34:49+01:00</time>
      </trkpt>
      <trkpt lat="48.76886" lon="2.12566">
        <ele>141</ele>
        <time>2022-01-02T14:34:56+01:00</time>
      </trkpt>
      <trkpt lat="48.76888" lon="2.1258">
        <ele>142</ele>
        <time>2022-01-02T14:35:03+01:00</time>
      </trkpt>
      <trkpt lat="48.76889" lon="2.12594">
        <ele>142</ele>
        <time>2022-01-02T14:35:10+01:00</time>
      </trkpt>
      <trkpt lat="48.76887" lon="2.12608">
        <ele>142</ele>
        <time>2022-01-02T14:35:16+01:00</time>
      </trkpt>
      <trkpt lat="48.76885" lon="2.12622">
        <ele>144</ele>
        <time>2022-01-02T14:35:23+01:00</time>
      </trkpt>
      <trkpt lat="48.76886" lon="2.12636">
        <ele>142</ele>
        <time>2022-01-02T14:35:31+01:00</time>
      </trkpt>
      <trkpt lat="48.76885" lon="2.1265">
        <ele>141</ele>
        <time>2022-01-02T14:35:38+01:00</time>
      </trkpt>
      <trkpt lat="48.76884" lon="2.12664">
        <ele>144</ele>
        <time>2022-01-02T14:35:48+01:00</time>
      </trkpt>
      <trkpt lat="48.76884" lon="2.12679">
        <ele>149</ele>
        <time>2022-01-02T14:35:56+01:00</time>
      </trkpt>
      <trkpt lat="48.76884" lon="2.12694">
        <ele>148</ele>
        <time>2022-01-02T14:36:05+01:00</time>
      </trkpt>
      <trkpt lat="48.76885" lon="2.12708">
        <ele>147</ele>
        <time>2022-01-02T14:36:13+01:00</time>
      </trkpt>
      <trkpt lat="48.76884" lon="2.12724">
        <ele>143</ele>
        <time>2022-01-02T14:36:21+01:00</time>
      </trkpt>
      <trkpt lat="48.76884" lon="2.12738">
        <ele>140</ele>
        <time>2022-01-02T14:36:29+01:00</time>
      </trkpt>
      <trkpt lat="48.76884" lon="2.12752">
        <ele>138</ele>
        <time>2022-01-02T14:36:38+01:00</time>
      </trkpt>
      <trkpt lat="48.76883" lon="2.12766">
        <ele>137</ele>
        <time>2022-01-02T14:36:44+01:00</time>
      </trkpt>
      <trkpt lat="48.7688" lon="2.1278">
        <ele>136</ele>
        <time>2022-01-02T14:36:50+01:00</time>
      </trkpt>
      <trkpt lat="48.76878" lon="2.12795">
        <ele>137</ele>
        <time>2022-01-02T14:36:58+01:00</time>
      </trkpt>
      <trkpt lat="48.76875" lon="2.12808">
        <ele>138</ele>
        <time>2022-01-02T14:37:05+01:00</time>
      </trkpt>
      <trkpt lat="48.76876" lon="2.12823">
        <ele>138</ele>
        <time>2022-01-02T14:37:12+01:00</time>
      </trkpt>
      <trkpt lat="48.76878" lon="2.12837">
        <ele>138</ele>
        <time>2022-01-02T14:37:18+01:00</time>
      </trkpt>
      <trkpt lat="48.76873" lon="2.12849">
        <ele>141</ele>
        <time>2022-01-02T14:37:28+01:00</time>
      </trkpt>
      <trkpt lat="48.76874" lon="2.12864">
        <ele>142</ele>
        <time>2022-01-02T14:37:40+01:00</time>
      </trkpt>
      <trkpt lat="48.76878" lon="2.12877">
        <ele>140</ele>
        <time>2022-01-02T14:37:47+01:00</time>
      </trkpt>
      <trkpt lat="48.76882" lon="2.1289">
        <ele>141</ele>
        <time>2022-01-02T14:37:55+01:00</time>
      </trkpt>
      <trkpt lat="48.76873" lon="2.12894">
        <ele>143</ele>
        <time>2022-01-02T14:38:03+01:00</time>
      </trkpt>
      <trkpt lat="48.76864" lon="2.12897">
        <ele>144</ele>
        <time>2022-01-02T14:38:10+01:00</time>
      </trkpt>
      <trkpt lat="48.76856" lon="2.12904">
        <ele>144</ele>
        <time>2022-01-02T14:38:21+01:00</time>
      </trkpt>
      <trkpt lat="48.76857" lon="2.12917">
        <ele>153</ele>
        <time>2022-01-02T14:38:42+01:00</time>
      </trkpt>
      <trkpt lat="48.76849" lon="2.12923">
        <ele>154</ele>
        <time>2022-01-02T14:38:51+01:00</time>
      </trkpt>
      <trkpt lat="48.7684" lon="2.12926">
        <ele>152</ele>
        <time>2022-01-02T14:39:04+01:00</time>
      </trkpt>
      <trkpt lat="48.76833" lon="2.12937">
        <ele>146</ele>
        <time>2022-01-02T14:39:14+01:00</time>
      </trkpt>
      <trkpt lat="48.76824" lon="2.12942">
        <ele>142</ele>
        <time>2022-01-02T14:39:21+01:00</time>
      </trkpt>
      <trkpt lat="48.76815" lon="2.12948">
        <ele>137</ele>
        <time>2022-01-02T14:39:30+01:00</time>
      </trkpt>
      <trkpt lat="48.76807" lon="2.12953">
        <ele>145</ele>
        <time>2022-01-02T14:39:41+01:00</time>
      </trkpt>
      <trkpt lat="48.76799" lon="2.12962">
        <ele>149</ele>
        <time>2022-01-02T14:39:49+01:00</time>
      </trkpt>
      <trkpt lat="48.76798" lon="2.12976">
        <ele>145</ele>
        <time>2022-01-02T14:41:25+01:00</time>
      </trkpt>
      <trkpt lat="48.76797" lon="2.12989">
        <ele>144</ele>
        <time>2022-01-02T14:41:56+01:00</time>
      </trkpt>
      <trkpt lat="48.768" lon="2.13002">
        <ele>139</ele>
        <time>2022-01-02T14:42:05+01:00</time>
      </trkpt>
      <trkpt lat="48.76799" lon="2.13017">
        <ele>136</ele>
        <time>2022-01-02T14:42:14+01:00</time>
      </trkpt>
      <trkpt lat="48.768" lon="2.13032">
        <ele>134</ele>
        <time>2022-01-02T14:42:20+01:00</time>
      </trkpt>
      <trkpt lat="48.76801" lon="2.13046">
        <ele>133</ele>
        <time>2022-01-02T14:42:28+01:00</time>
      </trkpt>
      <trkpt lat="48.768" lon="2.1306">
        <ele>131</ele>
        <time>2022-01-02T14:42:40+01:00</time>
      </trkpt>
      <trkpt lat="48.76796" lon="2.13073">
        <ele>133</ele>
        <time>2022-01-02T14:42:51+01:00</time>
      </trkpt>
      <trkpt lat="48.76792" lon="2.13086">
        <ele>131</ele>
        <time>2022-01-02T14:43:03+01:00</time>
      </trkpt>
      <trkpt lat="48.76789" lon="2.131">
        <ele>128</ele>
        <time>2022-01-02T14:43:14+01:00</time>
      </trkpt>
      <trkpt lat="48.76785" lon="2.13114">
        <ele>126</ele>
        <time>2022-01-02T14:43:21+01:00</time>
      </trkpt>
      <trkpt lat="48.76779" lon="2.13126">
        <ele>124</ele>
        <time>2022-01-02T14:43:28+01:00</time>
      </trkpt>
      <trkpt lat="48.76774" lon="2.13136">
        <ele>121</ele>
        <time>2022-01-02T14:43:37+01:00</time>
      </trkpt>
      <trkpt lat="48.76771" lon="2.1315">
        <ele>124</ele>
        <time>2022-01-02T14:43:44+01:00</time>
      </trkpt>
      <trkpt lat="48.76769" lon="2.13164">
        <ele>129</ele>
        <time>2022-01-02T14:43:53+01:00</time>
      </trkpt>
      <trkpt lat="48.76767" lon="2.13178">
        <ele>134</ele>
        <time>2022-01-02T14:44:03+01:00</time>
      </trkpt>
      <trkpt lat="48.76763" lon="2.13191">
        <ele>138</ele>
        <time>2022-01-02T14:44:15+01:00</time>
      </trkpt>
      <trkpt lat="48.76758" lon="2.13203">
        <ele>138</ele>
        <time>2022-01-02T14:44:28+01:00</time>
      </trkpt>
      <trkpt lat="48.76756" lon="2.13217">
        <ele>137</ele>
        <time>2022-01-02T14:44:39+01:00</time>
      </trkpt>
      <trkpt lat="48.76753" lon="2.1323">
        <ele>136</ele>
        <time>2022-01-02T14:44:47+01:00</time>
      </trkpt>
      <trkpt lat="48.76751" lon="2.13244">
        <ele>136</ele>
        <time>2022-01-02T14:44:58+01:00</time>
      </trkpt>
      <trkpt lat="48.76748" lon="2.13257">
        <ele>135</ele>
        <time>2022-01-02T14:45:07+01:00</time>
      </trkpt>
      <trkpt lat="48.76746" lon="2.13272">
        <ele>135</ele>
        <time>2022-01-02T14:45:17+01:00</time>
      </trkpt>
      <trkpt lat="48.76747" lon="2.13287">
        <ele>137</ele>
        <time>2022-01-02T14:45:27+01:00</time>
      </trkpt>
      <trkpt lat="48.76755" lon="2.13297">
        <ele>138</ele>
        <time>2022-01-02T14:45:36+01:00</time>
      </trkpt>
      <trkpt lat="48.7676" lon="2.13307">
        <ele>139</ele>
        <time>2022-01-02T14:45:44+01:00</time>
      </trkpt>
      <trkpt lat="48.76768" lon="2.13316">
        <ele>136</ele>
        <time>2022-01-02T14:45:52+01:00</time>
      </trkpt>
      <trkpt lat="48.76777" lon="2.13325">
        <ele>134</ele>
        <time>2022-01-02T14:46:01+01:00</time>
      </trkpt>
      <trkpt lat="48.76784" lon="2.13336">
        <ele>132</ele>
        <time>2022-01-02T14:46:09+01:00</time>
      </trkpt>
      <trkpt lat="48.76792" lon="2.13344">
        <ele>132</ele>
        <time>2022-01-02T14:46:18+01:00</time>
      </trkpt>
      <trkpt lat="48.76799" lon="2.13353">
        <ele>129</ele>
        <time>2022-01-02T14:46:26+01:00</time>
      </trkpt>
      <trkpt lat="48.76807" lon="2.13362">
        <ele>128</ele>
        <time>2022-01-02T14:46:34+01:00</time>
      </trkpt>
      <trkpt lat="48.76815" lon="2.13371">
        <ele>128</ele>
        <time>2022-01-02T14:46:41+01:00</time>
      </trkpt>
      <trkpt lat="48.76823" lon="2.13379">
        <ele>130</ele>
        <time>2022-01-02T14:46:47+01:00</time>
      </trkpt>
      <trkpt lat="48.76831" lon="2.13388">
        <ele>132</ele>
        <time>2022-01-02T14:46:55+01:00</time>
      </trkpt>
      <trkpt lat="48.76836" lon="2.13399">
        <ele>132</ele>
        <time>2022-01-02T14:47:04+01:00</time>
      </trkpt>
      <trkpt lat="48.76844" lon="2.13406">
        <ele>133</ele>
        <time>2022-01-02T14:47:11+01:00</time>
      </trkpt>
      <trkpt lat="48.76852" lon="2.13414">
        <ele>132</ele>
        <time>2022-01-02T14:47:18+01:00</time>
      </trkpt>
      <trkpt lat="48.76857" lon="2.13425">
        <ele>132</ele>
        <time>2022-01-02T14:47:27+01:00</time>
      </trkpt>
      <trkpt lat="48.76859" lon="2.1344">
        <ele>133</ele>
        <time>2022-01-02T14:47:35+01:00</time>
      </trkpt>
      <trkpt lat="48.76865" lon="2.13451">
        <ele>131</ele>
        <time>2022-01-02T14:47:42+01:00</time>
      </trkpt>
      <trkpt lat="48.76871" lon="2.13461">
        <ele>129</ele>
        <time>2022-01-02T14:47:48+01:00</time>
      </trkpt>
      <trkpt lat="48.76874" lon="2.13474">
        <ele>127</ele>
        <time>2022-01-02T14:47:57+01:00</time>
      </trkpt>
      <trkpt lat="48.76878" lon="2.13488">
        <ele>125</ele>
        <time>2022-01-02T14:48:06+01:00</time>
      </trkpt>
      <trkpt lat="48.76878" lon="2.13502">
        <ele>123</ele>
        <time>2022-01-02T14:48:14+01:00</time>
      </trkpt>
      <trkpt lat="48.76881" lon="2.13515">
        <ele>122</ele>
        <time>2022-01-02T14:48:20+01:00</time>
      </trkpt>
      <trkpt lat="48.76881" lon="2.1353">
        <ele>125</ele>
        <time>2022-01-02T14:48:29+01:00</time>
      </trkpt>
      <trkpt lat="48.7688" lon="2.13545">
        <ele>127</ele>
        <time>2022-01-02T14:48:35+01:00</time>
      </trkpt>
      <trkpt lat="48.76878" lon="2.13559">
        <ele>128</ele>
        <time>2022-01-02T14:48:47+01:00</time>
      </trkpt>
      <trkpt lat="48.76873" lon="2.13572">
        <ele>128</ele>
        <time>2022-01-02T14:48:54+01:00</time>
      </trkpt>
      <trkpt lat="48.76868" lon="2.13585">
        <ele>124</ele>
        <time>2022-01-02T14:49:03+01:00</time>
      </trkpt>
      <trkpt lat="48.7686" lon="2.13591">
        <ele>122</ele>
        <time>2022-01-02T14:49:11+01:00</time>
      </trkpt>
      <trkpt lat="48.76852" lon="2.13601">
        <ele>120</ele>
        <time>2022-01-02T14:49:18+01:00</time>
      </trkpt>
      <trkpt lat="48.76846" lon="2.13612">
        <ele>120</ele>
        <time>2022-01-02T14:49:25+01:00</time>
      </trkpt>
      <trkpt lat="48.76843" lon="2.13625">
        <ele>120</ele>
        <time>2022-01-02T14:49:34+01:00</time>
      </trkpt>
      <trkpt lat="48.76834" lon="2.13634">
        <ele>121</ele>
        <time>2022-01-02T14:49:40+01:00</time>
      </trkpt>
      <trkpt lat="48.76825" lon="2.13636">
        <ele>119</ele>
        <time>2022-01-02T14:49:48+01:00</time>
      </trkpt>
      <trkpt lat="48.76821" lon="2.13651">
        <ele>118</ele>
        <time>2022-01-02T14:49:57+01:00</time>
      </trkpt>
      <trkpt lat="48.76817" lon="2.13663">
        <ele>119</ele>
        <time>2022-01-02T14:50:02+01:00</time>
      </trkpt>
      <trkpt lat="48.76809" lon="2.13672">
        <ele>122</ele>
        <time>2022-01-02T14:50:09+01:00</time>
      </trkpt>
      <trkpt lat="48.76801" lon="2.13681">
        <ele>122</ele>
        <time>2022-01-02T14:50:18+01:00</time>
      </trkpt>
      <trkpt lat="48.76796" lon="2.13692">
        <ele>124</ele>
        <time>2022-01-02T14:50:29+01:00</time>
      </trkpt>
      <trkpt lat="48.76791" lon="2.13703">
        <ele>124</ele>
        <time>2022-01-02T14:50:36+01:00</time>
      </trkpt>
      <trkpt lat="48.76785" lon="2.13715">
        <ele>123</ele>
        <time>2022-01-02T14:50:48+01:00</time>
      </trkpt>
      <trkpt lat="48.7678" lon="2.13727">
        <ele>125</ele>
        <time>2022-01-02T14:50:58+01:00</time>
      </trkpt>
      <trkpt lat="48.76772" lon="2.13739">
        <ele>124</ele>
        <time>2022-01-02T14:51:07+01:00</time>
      </trkpt>
      <trkpt lat="48.76765" lon="2.13749">
        <ele>126</ele>
        <time>2022-01-02T14:51:12+01:00</time>
      </trkpt>
      <trkpt lat="48.76759" lon="2.13761">
        <ele>129</ele>
        <time>2022-01-02T14:51:21+01:00</time>
      </trkpt>
      <trkpt lat="48.76753" lon="2.13771">
        <ele>130</ele>
        <time>2022-01-02T14:51:30+01:00</time>
      </trkpt>
      <trkpt lat="48.76747" lon="2.13784">
        <ele>134</ele>
        <time>2022-01-02T14:51:44+01:00</time>
      </trkpt>
      <trkpt lat="48.76741" lon="2.13796">
        <ele>136</ele>
        <time>2022-01-02T14:51:53+01:00</time>
      </trkpt>
      <trkpt lat="48.76736" lon="2.13807">
        <ele>138</ele>
        <time>2022-01-02T14:51:59+01:00</time>
      </trkpt>
      <trkpt lat="48.76728" lon="2.13814">
        <ele>142</ele>
        <time>2022-01-02T14:52:05+01:00</time>
      </trkpt>
      <trkpt lat="48.76724" lon="2.13827">
        <ele>148</ele>
        <time>2022-01-02T14:52:14+01:00</time>
      </trkpt>
      <trkpt lat="48.76716" lon="2.13837">
        <ele>149</ele>
        <time>2022-01-02T14:52:22+01:00</time>
      </trkpt>
      <trkpt lat="48.76709" lon="2.13848">
        <ele>150</ele>
        <time>2022-01-02T14:52:29+01:00</time>
      </trkpt>
      <trkpt lat="48.76702" lon="2.13858">
        <ele>150</ele>
        <time>2022-01-02T14:52:35+01:00</time>
      </trkpt>
      <trkpt lat="48.76697" lon="2.1387">
        <ele>151</ele>
        <time>2022-01-02T14:52:45+01:00</time>
      </trkpt>
      <trkpt lat="48.7669" lon="2.13881">
        <ele>153</ele>
        <time>2022-01-02T14:52:54+01:00</time>
      </trkpt>
      <trkpt lat="48.76683" lon="2.13893">
        <ele>152</ele>
        <time>2022-01-02T14:53:03+01:00</time>
      </trkpt>
      <trkpt lat="48.76677" lon="2.13904">
        <ele>151</ele>
        <time>2022-01-02T14:53:10+01:00</time>
      </trkpt>
      <trkpt lat="48.76669" lon="2.13912">
        <ele>148</ele>
        <time>2022-01-02T14:53:15+01:00</time>
      </trkpt>
      <trkpt lat="48.76661" lon="2.13921">
        <ele>147</ele>
        <time>2022-01-02T14:53:21+01:00</time>
      </trkpt>
      <trkpt lat="48.76656" lon="2.13932">
        <ele>146</ele>
        <time>2022-01-02T14:53:29+01:00</time>
      </trkpt>
      <trkpt lat="48.7665" lon="2.13943">
        <ele>143</ele>
        <time>2022-01-02T14:53:37+01:00</time>
      </trkpt>
      <trkpt lat="48.76643" lon="2.13951">
        <ele>139</ele>
        <time>2022-01-02T14:53:44+01:00</time>
      </trkpt>
      <trkpt lat="48.76633" lon="2.13954">
        <ele>137</ele>
        <time>2022-01-02T14:53:53+01:00</time>
      </trkpt>
      <trkpt lat="48.76625" lon="2.13959">
        <ele>134</ele>
        <time>2022-01-02T14:53:59+01:00</time>
      </trkpt>
      <trkpt lat="48.76616" lon="2.13966">
        <ele>132</ele>
        <time>2022-01-02T14:54:06+01:00</time>
      </trkpt>
      <trkpt lat="48.76607" lon="2.13971">
        <ele>131</ele>
        <time>2022-01-02T14:54:14+01:00</time>
      </trkpt>
      <trkpt lat="48.76598" lon="2.13976">
        <ele>131</ele>
        <time>2022-01-02T14:54:21+01:00</time>
      </trkpt>
      <trkpt lat="48.76588" lon="2.13979">
        <ele>130</ele>
        <time>2022-01-02T14:54:28+01:00</time>
      </trkpt>
      <trkpt lat="48.76579" lon="2.1398">
        <ele>130</ele>
        <time>2022-01-02T14:54:37+01:00</time>
      </trkpt>
      <trkpt lat="48.76571" lon="2.13972">
        <ele>131</ele>
        <time>2022-01-02T14:54:47+01:00</time>
      </trkpt>
      <trkpt lat="48.76563" lon="2.13963">
        <ele>133</ele>
        <time>2022-01-02T14:54:56+01:00</time>
      </trkpt>
      <trkpt lat="48.76556" lon="2.13955">
        <ele>136</ele>
        <time>2022-01-02T14:55:06+01:00</time>
      </trkpt>
      <trkpt lat="48.76546" lon="2.13948">
        <ele>138</ele>
        <time>2022-01-02T14:55:14+01:00</time>
      </trkpt>
      <trkpt lat="48.76539" lon="2.13939">
        <ele>139</ele>
        <time>2022-01-02T14:55:21+01:00</time>
      </trkpt>
      <trkpt lat="48.76531" lon="2.13931">
        <ele>140</ele>
        <time>2022-01-02T14:55:29+01:00</time>
      </trkpt>
      <trkpt lat="48.76521" lon="2.13931">
        <ele>143</ele>
        <time>2022-01-02T14:55:38+01:00</time>
      </trkpt>
      <trkpt lat="48.76515" lon="2.1392">
        <ele>141</ele>
        <time>2022-01-02T14:55:53+01:00</time>
      </trkpt>
      <trkpt lat="48.76511" lon="2.13932">
        <ele>135</ele>
        <time>2022-01-02T14:58:00+01:00</time>
      </trkpt>
      <trkpt lat="48.76506" lon="2.13945">
        <ele>135</ele>
        <time>2022-01-02T14:58:09+01:00</time>
      </trkpt>
      <trkpt lat="48.76499" lon="2.13958">
        <ele>135</ele>
        <time>2022-01-02T14:58:16+01:00</time>
      </trkpt>
      <trkpt lat="48.76496" lon="2.13972">
        <ele>135</ele>
        <time>2022-01-02T14:58:24+01:00</time>
      </trkpt>
      <trkpt lat="48.76494" lon="2.13985">
        <ele>138</ele>
        <time>2022-01-02T14:58:31+01:00</time>
      </trkpt>
      <trkpt lat="48.76488" lon="2.13996">
        <ele>140</ele>
        <time>2022-01-02T14:58:36+01:00</time>
      </trkpt>
      <trkpt lat="48.76484" lon="2.14008">
        <ele>138</ele>
        <time>2022-01-02T14:58:43+01:00</time>
      </trkpt>
      <trkpt lat="48.76483" lon="2.14022">
        <ele>137</ele>
        <time>2022-01-02T14:58:51+01:00</time>
      </trkpt>
      <trkpt lat="48.76479" lon="2.14035">
        <ele>139</ele>
        <time>2022-01-02T14:58:59+01:00</time>
      </trkpt>
      <trkpt lat="48.76475" lon="2.14049">
        <ele>141</ele>
        <time>2022-01-02T14:59:23+01:00</time>
      </trkpt>
      <trkpt lat="48.76468" lon="2.14058">
        <ele>141</ele>
        <time>2022-01-02T14:59:30+01:00</time>
      </trkpt>
      <trkpt lat="48.7646" lon="2.14066">
        <ele>137</ele>
        <time>2022-01-02T14:59:38+01:00</time>
      </trkpt>
      <trkpt lat="48.76453" lon="2.14076">
        <ele>136</ele>
        <time>2022-01-02T14:59:46+01:00</time>
      </trkpt>
      <trkpt lat="48.76445" lon="2.14086">
        <ele>133</ele>
        <time>2022-01-02T14:59:53+01:00</time>
      </trkpt>
      <trkpt lat="48.76443" lon="2.141">
        <ele>130</ele>
        <time>2022-01-02T15:00:06+01:00</time>
      </trkpt>
      <trkpt lat="48.76445" lon="2.14114">
        <ele>133</ele>
        <time>2022-01-02T15:00:17+01:00</time>
      </trkpt>
      <trkpt lat="48.76447" lon="2.14128">
        <ele>135</ele>
        <time>2022-01-02T15:00:26+01:00</time>
      </trkpt>
      <trkpt lat="48.7645" lon="2.14144">
        <ele>135</ele>
        <time>2022-01-02T15:00:33+01:00</time>
      </trkpt>
      <trkpt lat="48.76452" lon="2.14157">
        <ele>135</ele>
        <time>2022-01-02T15:00:39+01:00</time>
      </trkpt>
      <trkpt lat="48.76454" lon="2.14172">
        <ele>134</ele>
        <time>2022-01-02T15:00:46+01:00</time>
      </trkpt>
      <trkpt lat="48.76453" lon="2.14186">
        <ele>136</ele>
        <time>2022-01-02T15:00:53+01:00</time>
      </trkpt>
      <trkpt lat="48.7645" lon="2.14201">
        <ele>137</ele>
        <time>2022-01-02T15:01:01+01:00</time>
      </trkpt>
      <trkpt lat="48.76448" lon="2.14215">
        <ele>134</ele>
        <time>2022-01-02T15:01:08+01:00</time>
      </trkpt>
      <trkpt lat="48.76452" lon="2.14229">
        <ele>130</ele>
        <time>2022-01-02T15:01:18+01:00</time>
      </trkpt>
      <trkpt lat="48.76451" lon="2.14243">
        <ele>127</ele>
        <time>2022-01-02T15:01:27+01:00</time>
      </trkpt>
      <trkpt lat="48.76447" lon="2.14256">
        <ele>126</ele>
        <time>2022-01-02T15:01:33+01:00</time>
      </trkpt>
      <trkpt lat="48.76445" lon="2.14269">
        <ele>126</ele>
        <time>2022-01-02T15:01:39+01:00</time>
      </trkpt>
      <trkpt lat="48.76443" lon="2.14283">
        <ele>129</ele>
        <time>2022-01-02T15:01:45+01:00</time>
      </trkpt>
      <trkpt lat="48.76444" lon="2.14298">
        <ele>132</ele>
        <time>2022-01-02T15:01:52+01:00</time>
      </trkpt>
      <trkpt lat="48.76444" lon="2.14313">
        <ele>135</ele>
        <time>2022-01-02T15:02:02+01:00</time>
      </trkpt>
      <trkpt lat="48.76446" lon="2.14326">
        <ele>135</ele>
        <time>2022-01-02T15:02:09+01:00</time>
      </trkpt>
      <trkpt lat="48.76445" lon="2.14341">
        <ele>134</ele>
        <time>2022-01-02T15:02:15+01:00</time>
      </trkpt>
      <trkpt lat="48.76448" lon="2.14354">
        <ele>133</ele>
        <time>2022-01-02T15:02:23+01:00</time>
      </trkpt>
      <trkpt lat="48.7645" lon="2.14368">
        <ele>129</ele>
        <time>2022-01-02T15:02:30+01:00</time>
      </trkpt>
      <trkpt lat="48.76452" lon="2.14382">
        <ele>124</ele>
        <time>2022-01-02T15:02:38+01:00</time>
      </trkpt>
      <trkpt lat="48.76448" lon="2.14396">
        <ele>126</ele>
        <time>2022-01-02T15:02:43+01:00</time>
      </trkpt>
      <trkpt lat="48.76456" lon="2.14406">
        <ele>129</ele>
        <time>2022-01-02T15:02:54+01:00</time>
      </trkpt>
      <trkpt lat="48.76465" lon="2.14409">
        <ele>130</ele>
        <time>2022-01-02T15:03:02+01:00</time>
      </trkpt>
      <trkpt lat="48.76475" lon="2.1441">
        <ele>133</ele>
        <time>2022-01-02T15:03:09+01:00</time>
      </trkpt>
      <trkpt lat="48.76484" lon="2.14409">
        <ele>137</ele>
        <time>2022-01-02T15:03:19+01:00</time>
      </trkpt>
      <trkpt lat="48.76492" lon="2.14401">
        <ele>139</ele>
        <time>2022-01-02T15:03:28+01:00</time>
      </trkpt>
      <trkpt lat="48.765" lon="2.14394">
        <ele>140</ele>
        <time>2022-01-02T15:03:35+01:00</time>
      </trkpt>
      <trkpt lat="48.76511" lon="2.14392">
        <ele>140</ele>
        <time>2022-01-02T15:03:43+01:00</time>
      </trkpt>
      <trkpt lat="48.7652" lon="2.14396">
        <ele>137</ele>
        <time>2022-01-02T15:03:53+01:00</time>
      </trkpt>
      <trkpt lat="48.76528" lon="2.14401">
        <ele>137</ele>
        <time>2022-01-02T15:04:02+01:00</time>
      </trkpt>
      <trkpt lat="48.76537" lon="2.14406">
        <ele>138</ele>
        <time>2022-01-02T15:04:09+01:00</time>
      </trkpt>
      <trkpt lat="48.76547" lon="2.14411">
        <ele>137</ele>
        <time>2022-01-02T15:04:16+01:00</time>
      </trkpt>
      <trkpt lat="48.76556" lon="2.14415">
        <ele>135</ele>
        <time>2022-01-02T15:04:23+01:00</time>
      </trkpt>
      <trkpt lat="48.76565" lon="2.14419">
        <ele>133</ele>
        <time>2022-01-02T15:04:32+01:00</time>
      </trkpt>
      <trkpt lat="48.76574" lon="2.14423">
        <ele>132</ele>
        <time>2022-01-02T15:04:39+01:00</time>
      </trkpt>
      <trkpt lat="48.76584" lon="2.14428">
        <ele>130</ele>
        <time>2022-01-02T15:04:47+01:00</time>
      </trkpt>
      <trkpt lat="48.76593" lon="2.14431">
        <ele>128</ele>
        <time>2022-01-02T15:04:56+01:00</time>
      </trkpt>
      <trkpt lat="48.76603" lon="2.14435">
        <ele>124</ele>
        <time>2022-01-02T15:05:05+01:00</time>
      </trkpt>
      <trkpt lat="48.76612" lon="2.1444">
        <ele>120</ele>
        <time>2022-01-02T15:05:14+01:00</time>
      </trkpt>
      <trkpt lat="48.76621" lon="2.14448">
        <ele>120</ele>
        <time>2022-01-02T15:05:24+01:00</time>
      </trkpt>
      <trkpt lat="48.76629" lon="2.14455">
        <ele>118</ele>
        <time>2022-01-02T15:05:37+01:00</time>
      </trkpt>
      <trkpt lat="48.76636" lon="2.14465">
        <ele>116</ele>
        <time>2022-01-02T15:05:49+01:00</time>
      </trkpt>
      <trkpt lat="48.76642" lon="2.14476">
        <ele>115</ele>
        <time>2022-01-02T15:05:59+01:00</time>
      </trkpt>
      <trkpt lat="48.76647" lon="2.14487">
        <ele>114</ele>
        <time>2022-01-02T15:06:05+01:00</time>
      </trkpt>
      <trkpt lat="48.76654" lon="2.14497">
        <ele>113</ele>
        <time>2022-01-02T15:06:11+01:00</time>
      </trkpt>
      <trkpt lat="48.7666" lon="2.14508">
        <ele>115</ele>
        <time>2022-01-02T15:06:21+01:00</time>
      </trkpt>
      <trkpt lat="48.76669" lon="2.14513">
        <ele>115</ele>
        <time>2022-01-02T15:06:41+01:00</time>
      </trkpt>
      <trkpt lat="48.76677" lon="2.14522">
        <ele>112</ele>
        <time>2022-01-02T15:06:50+01:00</time>
      </trkpt>
      <trkpt lat="48.76685" lon="2.14529">
        <ele>109</ele>
        <time>2022-01-02T15:07:00+01:00</time>
      </trkpt>
      <trkpt lat="48.76691" lon="2.14539">
        <ele>105</ele>
        <time>2022-01-02T15:07:09+01:00</time>
      </trkpt>
      <trkpt lat="48.76683" lon="2.14531">
        <ele>99</ele>
        <time>2022-01-02T15:08:44+01:00</time>
      </trkpt>
      <trkpt lat="48.76691" lon="2.14539">
        <ele>102</ele>
        <time>2022-01-02T15:08:59+01:00</time>
      </trkpt>
      <trkpt lat="48.767" lon="2.14545">
        <ele>102</ele>
        <time>2022-01-02T15:09:05+01:00</time>
      </trkpt>
      <trkpt lat="48.76708" lon="2.14554">
        <ele>101</ele>
        <time>2022-01-02T15:09:10+01:00</time>
      </trkpt>
      <trkpt lat="48.76717" lon="2.14562">
        <ele>101</ele>
        <time>2022-01-02T15:09:19+01:00</time>
      </trkpt>
      <trkpt lat="48.76726" lon="2.14567">
        <ele>101</ele>
        <time>2022-01-02T15:09:27+01:00</time>
      </trkpt>
      <trkpt lat="48.76734" lon="2.14573">
        <ele>101</ele>
        <time>2022-01-02T15:09:34+01:00</time>
      </trkpt>
      <trkpt lat="48.76743" lon="2.14579">
        <ele>100</ele>
        <time>2022-01-02T15:09:40+01:00</time>
      </trkpt>
      <trkpt lat="48.76751" lon="2.14588">
        <ele>99</ele>
        <time>2022-01-02T15:09:48+01:00</time>
      </trkpt>
      <trkpt lat="48.76759" lon="2.14595">
        <ele>96</ele>
        <time>2022-01-02T15:09:56+01:00</time>
      </trkpt>
      <trkpt lat="48.76768" lon="2.14602">
        <ele>96</ele>
        <time>2022-01-02T15:10:02+01:00</time>
      </trkpt>
      <trkpt lat="48.76776" lon="2.1461">
        <ele>95</ele>
        <time>2022-01-02T15:10:09+01:00</time>
      </trkpt>
      <trkpt lat="48.76782" lon="2.14621">
        <ele>94</ele>
        <time>2022-01-02T15:10:18+01:00</time>
      </trkpt>
      <trkpt lat="48.76786" lon="2.14634">
        <ele>92</ele>
        <time>2022-01-02T15:10:27+01:00</time>
      </trkpt>
      <trkpt lat="48.76787" lon="2.14649">
        <ele>94</ele>
        <time>2022-01-02T15:11:16+01:00</time>
      </trkpt>
      <trkpt lat="48.76785" lon="2.14662">
        <ele>93</ele>
        <time>2022-01-02T15:11:24+01:00</time>
      </trkpt>
      <trkpt lat="48.76781" lon="2.14675">
        <ele>94</ele>
        <time>2022-01-02T15:11:31+01:00</time>
      </trkpt>
      <trkpt lat="48.76777" lon="2.14688">
        <ele>93</ele>
        <time>2022-01-02T15:11:38+01:00</time>
      </trkpt>
      <trkpt lat="48.76773" lon="2.14701">
        <ele>91</ele>
        <time>2022-01-02T15:11:46+01:00</time>
      </trkpt>
      <trkpt lat="48.76767" lon="2.14715">
        <ele>91</ele>
        <time>2022-01-02T15:11:53+01:00</time>
      </trkpt>
      <trkpt lat="48.76761" lon="2.14727">
        <ele>93</ele>
        <time>2022-01-02T15:12:00+01:00</time>
      </trkpt>
      <trkpt lat="48.76758" lon="2.14739">
        <ele>93</ele>
        <time>2022-01-02T15:12:08+01:00</time>
      </trkpt>
      <trkpt lat="48.76752" lon="2.1475">
        <ele>91</ele>
        <time>2022-01-02T15:12:13+01:00</time>
      </trkpt>
      <trkpt lat="48.76745" lon="2.14761">
        <ele>88</ele>
        <time>2022-01-02T15:12:21+01:00</time>
      </trkpt>
      <trkpt lat="48.76739" lon="2.14772">
        <ele>87</ele>
        <time>2022-01-02T15:12:28+01:00</time>
      </trkpt>
      <trkpt lat="48.76732" lon="2.14782">
        <ele>87</ele>
        <time>2022-01-02T15:12:35+01:00</time>
      </trkpt>
      <trkpt lat="48.76726" lon="2.14793">
        <ele>91</ele>
        <time>2022-01-02T15:12:42+01:00</time>
      </trkpt>
      <trkpt lat="48.76721" lon="2.14804">
        <ele>92</ele>
        <time>2022-01-02T15:12:49+01:00</time>
      </trkpt>
      <trkpt lat="48.76713" lon="2.14814">
        <ele>94</ele>
        <time>2022-01-02T15:12:56+01:00</time>
      </trkpt>
      <trkpt lat="48.76705" lon="2.14822">
        <ele>97</ele>
        <time>2022-01-02T15:13:04+01:00</time>
      </trkpt>
      <trkpt lat="48.76698" lon="2.14832">
        <ele>99</ele>
        <time>2022-01-02T15:13:12+01:00</time>
      </trkpt>
      <trkpt lat="48.76691" lon="2.14842">
        <ele>100</ele>
        <time>2022-01-02T15:13:20+01:00</time>
      </trkpt>
      <trkpt lat="48.76683" lon="2.1485">
        <ele>100</ele>
        <time>2022-01-02T15:13:29+01:00</time>
      </trkpt>
      <trkpt lat="48.76676" lon="2.14859">
        <ele>100</ele>
        <time>2022-01-02T15:13:36+01:00</time>
      </trkpt>
      <trkpt lat="48.76669" lon="2.14869">
        <ele>101</ele>
        <time>2022-01-02T15:13:45+01:00</time>
      </trkpt>
      <trkpt lat="48.76661" lon="2.14877">
        <ele>100</ele>
        <time>2022-01-02T15:13:51+01:00</time>
      </trkpt>
      <trkpt lat="48.76654" lon="2.14884">
        <ele>99</ele>
        <time>2022-01-02T15:13:58+01:00</time>
      </trkpt>
      <trkpt lat="48.76645" lon="2.14892">
        <ele>98</ele>
        <time>2022-01-02T15:14:03+01:00</time>
      </trkpt>
      <trkpt lat="48.76637" lon="2.149">
        <ele>96</ele>
        <time>2022-01-02T15:14:10+01:00</time>
      </trkpt>
      <trkpt lat="48.76628" lon="2.14907">
        <ele>99</ele>
        <time>2022-01-02T15:14:21+01:00</time>
      </trkpt>
      <trkpt lat="48.76622" lon="2.14919">
        <ele>102</ele>
        <time>2022-01-02T15:14:35+01:00</time>
      </trkpt>
      <trkpt lat="48.76618" lon="2.14931">
        <ele>104</ele>
        <time>2022-01-02T15:14:45+01:00</time>
      </trkpt>
      <trkpt lat="48.76614" lon="2.14945">
        <ele>106</ele>
        <time>2022-01-02T15:14:56+01:00</time>
      </trkpt>
      <trkpt lat="48.76612" lon="2.14959">
        <ele>107</ele>
        <time>2022-01-02T15:15:04+01:00</time>
      </trkpt>
      <trkpt lat="48.76606" lon="2.14971">
        <ele>108</ele>
        <time>2022-01-02T15:15:11+01:00</time>
      </trkpt>
      <trkpt lat="48.76611" lon="2.14982">
        <ele>109</ele>
        <time>2022-01-02T15:15:20+01:00</time>
      </trkpt>
      <trkpt lat="48.76619" lon="2.14989">
        <ele>107</ele>
        <time>2022-01-02T15:15:29+01:00</time>
      </trkpt>
      <trkpt lat="48.7663" lon="2.14993">
        <ele>106</ele>
        <time>2022-01-02T15:15:36+01:00</time>
      </trkpt>
      <trkpt lat="48.76639" lon="2.14996">
        <ele>105</ele>
        <time>2022-01-02T15:15:43+01:00</time>
      </trkpt>
      <trkpt lat="48.76647" lon="2.15001">
        <ele>104</ele>
        <time>2022-01-02T15:15:52+01:00</time>
      </trkpt>
      <trkpt lat="48.76656" lon="2.15004">
        <ele>102</ele>
        <time>2022-01-02T15:16:04+01:00</time>
      </trkpt>
      <trkpt lat="48.76665" lon="2.15011">
        <ele>102</ele>
        <time>2022-01-02T15:16:11+01:00</time>
      </trkpt>
      <trkpt lat="48.76674" lon="2.15015">
        <ele>103</ele>
        <time>2022-01-02T15:16:17+01:00</time>
      </trkpt>
      <trkpt lat="48.76684" lon="2.15016">
        <ele>99</ele>
        <time>2022-01-02T15:17:18+01:00</time>
      </trkpt>
      <trkpt lat="48.76691" lon="2.15025">
        <ele>101</ele>
        <time>2022-01-02T15:17:55+01:00</time>
      </trkpt>
      <trkpt lat="48.76699" lon="2.15032">
        <ele>96</ele>
        <time>2022-01-02T15:18:05+01:00</time>
      </trkpt>
      <trkpt lat="48.76708" lon="2.15037">
        <ele>93</ele>
        <time>2022-01-02T15:18:13+01:00</time>
      </trkpt>
      <trkpt lat="48.76717" lon="2.15042">
        <ele>91</ele>
        <time>2022-01-02T15:18:21+01:00</time>
      </trkpt>
      <trkpt lat="48.76726" lon="2.15046">
        <ele>91</ele>
        <time>2022-01-02T15:18:26+01:00</time>
      </trkpt>
      <trkpt lat="48.76735" lon="2.1505">
        <ele>89</ele>
        <time>2022-01-02T15:18:33+01:00</time>
      </trkpt>
      <trkpt lat="48.76743" lon="2.15056">
        <ele>89</ele>
        <time>2022-01-02T15:18:44+01:00</time>
      </trkpt>
      <trkpt lat="48.7675" lon="2.15067">
        <ele>88</ele>
        <time>2022-01-02T15:18:51+01:00</time>
      </trkpt>
      <trkpt lat="48.76757" lon="2.15077">
        <ele>87</ele>
        <time>2022-01-02T15:19:00+01:00</time>
      </trkpt>
      <trkpt lat="48.76759" lon="2.15091">
        <ele>88</ele>
        <time>2022-01-02T15:19:11+01:00</time>
      </trkpt>
      <trkpt lat="48.76761" lon="2.15105">
        <ele>86</ele>
        <time>2022-01-02T15:19:19+01:00</time>
      </trkpt>
      <trkpt lat="48.76761" lon="2.15119">
        <ele>85</ele>
        <time>2022-01-02T15:19:26+01:00</time>
      </trkpt>
      <trkpt lat="48.76757" lon="2.15132">
        <ele>82</ele>
        <time>2022-01-02T15:19:32+01:00</time>
      </trkpt>
      <trkpt lat="48.76752" lon="2.15145">
        <ele>81</ele>
        <time>2022-01-02T15:19:39+01:00</time>
      </trkpt>
      <trkpt lat="48.76749" lon="2.15159">
        <ele>81</ele>
        <time>2022-01-02T15:19:45+01:00</time>
      </trkpt>
      <trkpt lat="48.76748" lon="2.15173">
        <ele>82</ele>
        <time>2022-01-02T15:19:53+01:00</time>
      </trkpt>
      <trkpt lat="48.76754" lon="2.15186">
        <ele>82</ele>
        <time>2022-01-02T15:20:01+01:00</time>
      </trkpt>
      <trkpt lat="48.76751" lon="2.152">
        <ele>80</ele>
        <time>2022-01-02T15:20:10+01:00</time>
      </trkpt>
      <trkpt lat="48.76743" lon="2.15209">
        <ele>79</ele>
        <time>2022-01-02T15:20:18+01:00</time>
      </trkpt>
      <trkpt lat="48.76737" lon="2.1522">
        <ele>79</ele>
        <time>2022-01-02T15:20:23+01:00</time>
      </trkpt>
      <trkpt lat="48.76729" lon="2.15227">
        <ele>80</ele>
        <time>2022-01-02T15:20:29+01:00</time>
      </trkpt>
      <trkpt lat="48.76724" lon="2.15242">
        <ele>84</ele>
        <time>2022-01-02T15:20:35+01:00</time>
      </trkpt>
      <trkpt lat="48.76721" lon="2.15255">
        <ele>86</ele>
        <time>2022-01-02T15:20:41+01:00</time>
      </trkpt>
      <trkpt lat="48.76721" lon="2.1527">
        <ele>88</ele>
        <time>2022-01-02T15:20:49+01:00</time>
      </trkpt>
      <trkpt lat="48.7672" lon="2.15286">
        <ele>89</ele>
        <time>2022-01-02T15:20:57+01:00</time>
      </trkpt>
      <trkpt lat="48.76718" lon="2.15301">
        <ele>89</ele>
        <time>2022-01-02T15:21:04+01:00</time>
      </trkpt>
      <trkpt lat="48.76715" lon="2.15315">
        <ele>88</ele>
        <time>2022-01-02T15:21:11+01:00</time>
      </trkpt>
      <trkpt lat="48.76711" lon="2.15328">
        <ele>86</ele>
        <time>2022-01-02T15:21:20+01:00</time>
      </trkpt>
      <trkpt lat="48.76707" lon="2.1534">
        <ele>86</ele>
        <time>2022-01-02T15:21:27+01:00</time>
      </trkpt>
      <trkpt lat="48.76703" lon="2.15354">
        <ele>86</ele>
        <time>2022-01-02T15:21:35+01:00</time>
      </trkpt>
      <trkpt lat="48.76698" lon="2.15367">
        <ele>87</ele>
        <time>2022-01-02T15:21:40+01:00</time>
      </trkpt>
      <trkpt lat="48.76692" lon="2.15379">
        <ele>85</ele>
        <time>2022-01-02T15:21:47+01:00</time>
      </trkpt>
      <trkpt lat="48.76685" lon="2.1539">
        <ele>87</ele>
        <time>2022-01-02T15:21:54+01:00</time>
      </trkpt>
      <trkpt lat="48.76679" lon="2.154">
        <ele>89</ele>
        <time>2022-01-02T15:22:00+01:00</time>
      </trkpt>
      <trkpt lat="48.76673" lon="2.15411">
        <ele>90</ele>
        <time>2022-01-02T15:22:07+01:00</time>
      </trkpt>
      <trkpt lat="48.76666" lon="2.15419">
        <ele>91</ele>
        <time>2022-01-02T15:22:15+01:00</time>
      </trkpt>
      <trkpt lat="48.76659" lon="2.15431">
        <ele>95</ele>
        <time>2022-01-02T15:22:25+01:00</time>
      </trkpt>
      <trkpt lat="48.76653" lon="2.15442">
        <ele>96</ele>
        <time>2022-01-02T15:22:31+01:00</time>
      </trkpt>
      <trkpt lat="48.76648" lon="2.15454">
        <ele>97</ele>
        <time>2022-01-02T15:22:38+01:00</time>
      </trkpt>
      <trkpt lat="48.76645" lon="2.15468">
        <ele>97</ele>
        <time>2022-01-02T15:22:45+01:00</time>
      </trkpt>
      <trkpt lat="48.76644" lon="2.15483">
        <ele>98</ele>
        <time>2022-01-02T15:22:53+01:00</time>
      </trkpt>
      <trkpt lat="48.76647" lon="2.15497">
        <ele>98</ele>
        <time>2022-01-02T15:23:01+01:00</time>
      </trkpt>
      <trkpt lat="48.7665" lon="2.1551">
        <ele>97</ele>
        <time>2022-01-02T15:23:08+01:00</time>
      </trkpt>
      <trkpt lat="48.76655" lon="2.15523">
        <ele>97</ele>
        <time>2022-01-02T15:23:15+01:00</time>
      </trkpt>
      <trkpt lat="48.76661" lon="2.15534">
        <ele>97</ele>
        <time>2022-01-02T15:23:23+01:00</time>
      </trkpt>
      <trkpt lat="48.76669" lon="2.15543">
        <ele>95</ele>
        <time>2022-01-02T15:23:31+01:00</time>
      </trkpt>
      <trkpt lat="48.76678" lon="2.15546">
        <ele>93</ele>
        <time>2022-01-02T15:23:39+01:00</time>
      </trkpt>
      <trkpt lat="48.76688" lon="2.15551">
        <ele>91</ele>
        <time>2022-01-02T15:23:47+01:00</time>
      </trkpt>
      <trkpt lat="48.76691" lon="2.15565">
        <ele>88</ele>
        <time>2022-01-02T15:23:56+01:00</time>
      </trkpt>
      <trkpt lat="48.76701" lon="2.15567">
        <ele>87</ele>
        <time>2022-01-02T15:24:19+01:00</time>
      </trkpt>
      <trkpt lat="48.76708" lon="2.15557">
        <ele>88</ele>
        <time>2022-01-02T15:24:35+01:00</time>
      </trkpt>
      <trkpt lat="48.7671" lon="2.15571">
        <ele>91</ele>
        <time>2022-01-02T15:26:29+01:00</time>
      </trkpt>
      <trkpt lat="48.76714" lon="2.15585">
        <ele>90</ele>
        <time>2022-01-02T15:26:38+01:00</time>
      </trkpt>
      <trkpt lat="48.76715" lon="2.15598">
        <ele>90</ele>
        <time>2022-01-02T15:26:46+01:00</time>
      </trkpt>
      <trkpt lat="48.76711" lon="2.15611">
        <ele>91</ele>
        <time>2022-01-02T15:26:54+01:00</time>
      </trkpt>
      <trkpt lat="48.76704" lon="2.15621">
        <ele>92</ele>
        <time>2022-01-02T15:27:01+01:00</time>
      </trkpt>
      <trkpt lat="48.76702" lon="2.15635">
        <ele>91</ele>
        <time>2022-01-02T15:27:10+01:00</time>
      </trkpt>
      <trkpt lat="48.76701" lon="2.1565">
        <ele>90</ele>
        <time>2022-01-02T15:27:17+01:00</time>
      </trkpt>
      <trkpt lat="48.76702" lon="2.15665">
        <ele>88</ele>
        <time>2022-01-02T15:27:25+01:00</time>
      </trkpt>
      <trkpt lat="48.76703" lon="2.1568">
        <ele>86</ele>
        <time>2022-01-02T15:27:32+01:00</time>
      </trkpt>
      <trkpt lat="48.76704" lon="2.15695">
        <ele>86</ele>
        <time>2022-01-02T15:27:40+01:00</time>
      </trkpt>
      <trkpt lat="48.76705" lon="2.1571">
        <ele>86</ele>
        <time>2022-01-02T15:27:47+01:00</time>
      </trkpt>
      <trkpt lat="48.76703" lon="2.15723">
        <ele>87</ele>
        <time>2022-01-02T15:27:54+01:00</time>
      </trkpt>
      <trkpt lat="48.76703" lon="2.15737">
        <ele>87</ele>
        <time>2022-01-02T15:28:01+01:00</time>
      </trkpt>
      <trkpt lat="48.76697" lon="2.15749">
        <ele>84</ele>
        <time>2022-01-02T15:28:14+01:00</time>
      </trkpt>
      <trkpt lat="48.76688" lon="2.15751">
        <ele>83</ele>
        <time>2022-01-02T15:28:21+01:00</time>
      </trkpt>
      <trkpt lat="48.76678" lon="2.1575">
        <ele>83</ele>
        <time>2022-01-02T15:28:28+01:00</time>
      </trkpt>
      <trkpt lat="48.76669" lon="2.15747">
        <ele>83</ele>
        <time>2022-01-02T15:28:34+01:00</time>
      </trkpt>
      <trkpt lat="48.76659" lon="2.15746">
        <ele>85</ele>
        <time>2022-01-02T15:28:41+01:00</time>
      </trkpt>
      <trkpt lat="48.76649" lon="2.15749">
        <ele>84</ele>
        <time>2022-01-02T15:28:48+01:00</time>
      </trkpt>
      <trkpt lat="48.76644" lon="2.1576">
        <ele>84</ele>
        <time>2022-01-02T15:28:55+01:00</time>
      </trkpt>
      <trkpt lat="48.7664" lon="2.15774">
        <ele>86</ele>
        <time>2022-01-02T15:29:03+01:00</time>
      </trkpt>
      <trkpt lat="48.76636" lon="2.15788">
        <ele>86</ele>
        <time>2022-01-02T15:29:09+01:00</time>
      </trkpt>
      <trkpt lat="48.76633" lon="2.15801">
        <ele>84</ele>
        <time>2022-01-02T15:29:16+01:00</time>
      </trkpt>
      <trkpt lat="48.76632" lon="2.15814">
        <ele>82</ele>
        <time>2022-01-02T15:29:24+01:00</time>
      </trkpt>
      <trkpt lat="48.76623" lon="2.15822">
        <ele>76</ele>
        <time>2022-01-02T15:29:33+01:00</time>
      </trkpt>
      <trkpt lat="48.76615" lon="2.15831">
        <ele>77</ele>
        <time>2022-01-02T15:29:39+01:00</time>
      </trkpt>
      <trkpt lat="48.76608" lon="2.15841">
        <ele>76</ele>
        <time>2022-01-02T15:29:46+01:00</time>
      </trkpt>
      <trkpt lat="48.766" lon="2.15849">
        <ele>78</ele>
        <time>2022-01-02T15:29:53+01:00</time>
      </trkpt>
      <trkpt lat="48.76594" lon="2.15861">
        <ele>80</ele>
        <time>2022-01-02T15:29:59+01:00</time>
      </trkpt>
      <trkpt lat="48.76587" lon="2.15871">
        <ele>81</ele>
        <time>2022-01-02T15:30:07+01:00</time>
      </trkpt>
      <trkpt lat="48.76582" lon="2.15882">
        <ele>84</ele>
        <time>2022-01-02T15:30:15+01:00</time>
      </trkpt>
      <trkpt lat="48.76576" lon="2.15894">
        <ele>83</ele>
        <time>2022-01-02T15:30:23+01:00</time>
      </trkpt>
      <trkpt lat="48.76567" lon="2.15903">
        <ele>84</ele>
        <time>2022-01-02T15:30:29+01:00</time>
      </trkpt>
      <trkpt lat="48.7656" lon="2.15913">
        <ele>83</ele>
        <time>2022-01-02T15:30:38+01:00</time>
      </trkpt>
      <trkpt lat="48.76554" lon="2.15925">
        <ele>81</ele>
        <time>2022-01-02T15:30:45+01:00</time>
      </trkpt>
      <trkpt lat="48.76547" lon="2.15935">
        <ele>80</ele>
        <time>2022-01-02T15:30:53+01:00</time>
      </trkpt>
      <trkpt lat="48.76539" lon="2.15945">
        <ele>81</ele>
        <time>2022-01-02T15:31:00+01:00</time>
      </trkpt>
      <trkpt lat="48.76531" lon="2.15954">
        <ele>82</ele>
        <time>2022-01-02T15:31:08+01:00</time>
      </trkpt>
      <trkpt lat="48.76527" lon="2.15966">
        <ele>83</ele>
        <time>2022-01-02T15:31:15+01:00</time>
      </trkpt>
      <trkpt lat="48.7652" lon="2.15977">
        <ele>83</ele>
        <time>2022-01-02T15:31:22+01:00</time>
      </trkpt>
      <trkpt lat="48.76516" lon="2.15991">
        <ele>84</ele>
        <time>2022-01-02T15:31:30+01:00</time>
      </trkpt>
      <trkpt lat="48.76519" lon="2.16004">
        <ele>84</ele>
        <time>2022-01-02T15:31:36+01:00</time>
      </trkpt>
      <trkpt lat="48.76523" lon="2.16017">
        <ele>84</ele>
        <time>2022-01-02T15:31:43+01:00</time>
      </trkpt>
      <trkpt lat="48.76531" lon="2.16028">
        <ele>84</ele>
        <time>2022-01-02T15:31:50+01:00</time>
      </trkpt>
      <trkpt lat="48.76535" lon="2.1604">
        <ele>83</ele>
        <time>2022-01-02T15:31:58+01:00</time>
      </trkpt>
      <trkpt lat="48.76537" lon="2.16055">
        <ele>83</ele>
        <time>2022-01-02T15:32:09+01:00</time>
      </trkpt>
      <trkpt lat="48.76533" lon="2.16068">
        <ele>81</ele>
        <time>2022-01-02T15:32:19+01:00</time>
      </trkpt>
      <trkpt lat="48.76527" lon="2.16079">
        <ele>80</ele>
        <time>2022-01-02T15:32:28+01:00</time>
      </trkpt>
      <trkpt lat="48.76524" lon="2.16092">
        <ele>80</ele>
        <time>2022-01-02T15:32:36+01:00</time>
      </trkpt>
      <trkpt lat="48.76519" lon="2.16104">
        <ele>81</ele>
        <time>2022-01-02T15:32:44+01:00</time>
      </trkpt>
    </trkseg>
  </trk>
</gpx>